<?xml version="1.0" encoding="UTF-8" standalone="no" ?>
<gpx xmlns="http://www.topografix.com/GPX/1/1" xmlns:xsi="http://www.w3.org/2001/XMLSchema-instance" xsi:schemaLocation="http://www.topografix.com/GPX/1/1 http://www.topografix.com/GPX/1/1/gpx.xsd" version="1.1" creator="VisuGPX - https://www.visugpx.com">
  <metadata>
    <name>guilié</name>
    <desc><![CDATA[guilié ski rando]]></desc>
  </metadata>
  <trk>
    <name><![CDATA[Ski de rando - Cime du Guilié]]></name>
    <trkseg>
      <trkpt lat="44.11346" lon="7.2892">
        <ele>1494.4000244141</ele>
        <time>2014-02-23T06:39:06.000Z</time>
      </trkpt>
      <trkpt lat="44.11346" lon="7.2892">
        <ele>1494.1999511719</ele>
        <time>2014-02-23T06:39:07.000Z</time>
      </trkpt>
      <trkpt lat="44.11346" lon="7.28919">
        <ele>1494.4000244141</ele>
        <time>2014-02-23T06:39:33.000Z</time>
      </trkpt>
      <trkpt lat="44.11346" lon="7.28919">
        <ele>1494</ele>
        <time>2014-02-23T06:39:58.000Z</time>
      </trkpt>
      <trkpt lat="44.11343" lon="7.28915">
        <ele>1493.8000488281</ele>
        <time>2014-02-23T06:40:17.000Z</time>
      </trkpt>
      <trkpt lat="44.11344" lon="7.28916">
        <ele>1494</ele>
        <time>2014-02-23T06:40:40.000Z</time>
      </trkpt>
      <trkpt lat="44.11345" lon="7.28916">
        <ele>1493.8000488281</ele>
        <time>2014-02-23T06:41:08.000Z</time>
      </trkpt>
      <trkpt lat="44.11349" lon="7.28925">
        <ele>1494.4000244141</ele>
        <time>2014-02-23T06:41:32.000Z</time>
      </trkpt>
      <trkpt lat="44.1135" lon="7.28926">
        <ele>1493.8000488281</ele>
        <time>2014-02-23T06:41:59.000Z</time>
      </trkpt>
      <trkpt lat="44.11349" lon="7.28925">
        <ele>1494.4000244141</ele>
        <time>2014-02-23T06:42:20.000Z</time>
      </trkpt>
      <trkpt lat="44.1135" lon="7.28926">
        <ele>1494</ele>
        <time>2014-02-23T06:42:48.000Z</time>
      </trkpt>
      <trkpt lat="44.11355" lon="7.28934">
        <ele>1494.5999755859</ele>
        <time>2014-02-23T06:43:01.000Z</time>
      </trkpt>
      <trkpt lat="44.11367" lon="7.2895">
        <ele>1495.5999755859</ele>
        <time>2014-02-23T06:43:24.000Z</time>
      </trkpt>
      <trkpt lat="44.11379" lon="7.28958">
        <ele>1495.8000488281</ele>
        <time>2014-02-23T06:43:38.000Z</time>
      </trkpt>
      <trkpt lat="44.11398" lon="7.28935">
        <ele>1496.4000244141</ele>
        <time>2014-02-23T06:44:03.000Z</time>
      </trkpt>
      <trkpt lat="44.11398" lon="7.2893">
        <ele>1496.8000488281</ele>
        <time>2014-02-23T06:44:06.000Z</time>
      </trkpt>
      <trkpt lat="44.11396" lon="7.28895">
        <ele>1498.1999511719</ele>
        <time>2014-02-23T06:44:26.000Z</time>
      </trkpt>
      <trkpt lat="44.11398" lon="7.28871">
        <ele>1499.8000488281</ele>
        <time>2014-02-23T06:44:43.000Z</time>
      </trkpt>
      <trkpt lat="44.11399" lon="7.28868">
        <ele>1500</ele>
        <time>2014-02-23T06:44:45.000Z</time>
      </trkpt>
      <trkpt lat="44.114" lon="7.28851">
        <ele>1501</ele>
        <time>2014-02-23T06:44:56.000Z</time>
      </trkpt>
      <trkpt lat="44.11403" lon="7.28829">
        <ele>1502.4000244141</ele>
        <time>2014-02-23T06:45:10.000Z</time>
      </trkpt>
      <trkpt lat="44.11405" lon="7.28817">
        <ele>1503</ele>
        <time>2014-02-23T06:45:18.000Z</time>
      </trkpt>
      <trkpt lat="44.1141" lon="7.28794">
        <ele>1505</ele>
        <time>2014-02-23T06:45:34.000Z</time>
      </trkpt>
      <trkpt lat="44.1141" lon="7.28792">
        <ele>1505</ele>
        <time>2014-02-23T06:45:35.000Z</time>
      </trkpt>
      <trkpt lat="44.11411" lon="7.28769">
        <ele>1506.4000244141</ele>
        <time>2014-02-23T06:45:49.000Z</time>
      </trkpt>
      <trkpt lat="44.11412" lon="7.28768">
        <ele>1506.5999755859</ele>
        <time>2014-02-23T06:45:50.000Z</time>
      </trkpt>
      <trkpt lat="44.11415" lon="7.28762">
        <ele>1507.1999511719</ele>
        <time>2014-02-23T06:45:54.000Z</time>
      </trkpt>
      <trkpt lat="44.11419" lon="7.28746">
        <ele>1508.5999755859</ele>
        <time>2014-02-23T06:46:05.000Z</time>
      </trkpt>
      <trkpt lat="44.11423" lon="7.28729">
        <ele>1510</ele>
        <time>2014-02-23T06:46:17.000Z</time>
      </trkpt>
      <trkpt lat="44.11429" lon="7.28716">
        <ele>1511</ele>
        <time>2014-02-23T06:46:26.000Z</time>
      </trkpt>
      <trkpt lat="44.11431" lon="7.28708">
        <ele>1511.8000488281</ele>
        <time>2014-02-23T06:46:32.000Z</time>
      </trkpt>
      <trkpt lat="44.11432" lon="7.28703">
        <ele>1512</ele>
        <time>2014-02-23T06:46:35.000Z</time>
      </trkpt>
      <trkpt lat="44.11441" lon="7.28678">
        <ele>1513.5999755859</ele>
        <time>2014-02-23T06:46:51.000Z</time>
      </trkpt>
      <trkpt lat="44.11442" lon="7.28677">
        <ele>1513.5999755859</ele>
        <time>2014-02-23T06:46:52.000Z</time>
      </trkpt>
      <trkpt lat="44.11448" lon="7.28675">
        <ele>1514.8000488281</ele>
        <time>2014-02-23T06:47:07.000Z</time>
      </trkpt>
      <trkpt lat="44.11447" lon="7.28678">
        <ele>1514.8000488281</ele>
        <time>2014-02-23T06:47:22.000Z</time>
      </trkpt>
      <trkpt lat="44.11448" lon="7.28681">
        <ele>1514.5999755859</ele>
        <time>2014-02-23T06:47:44.000Z</time>
      </trkpt>
      <trkpt lat="44.11449" lon="7.2868">
        <ele>1514.1999511719</ele>
        <time>2014-02-23T06:48:07.000Z</time>
      </trkpt>
      <trkpt lat="44.11447" lon="7.28677">
        <ele>1513.8000488281</ele>
        <time>2014-02-23T06:48:31.000Z</time>
      </trkpt>
      <trkpt lat="44.11447" lon="7.28676">
        <ele>1514</ele>
        <time>2014-02-23T06:48:54.000Z</time>
      </trkpt>
      <trkpt lat="44.11445" lon="7.28685">
        <ele>1514.4000244141</ele>
        <time>2014-02-23T06:49:18.000Z</time>
      </trkpt>
      <trkpt lat="44.11437" lon="7.28716">
        <ele>1516.4000244141</ele>
        <time>2014-02-23T06:49:42.000Z</time>
      </trkpt>
      <trkpt lat="44.11441" lon="7.28745">
        <ele>1518.8000488281</ele>
        <time>2014-02-23T06:50:04.000Z</time>
      </trkpt>
      <trkpt lat="44.11444" lon="7.28766">
        <ele>1521.5999755859</ele>
        <time>2014-02-23T06:50:24.000Z</time>
      </trkpt>
      <trkpt lat="44.11443" lon="7.28788">
        <ele>1524.1999511719</ele>
        <time>2014-02-23T06:50:44.000Z</time>
      </trkpt>
      <trkpt lat="44.11447" lon="7.28807">
        <ele>1527.1999511719</ele>
        <time>2014-02-23T06:50:59.000Z</time>
      </trkpt>
      <trkpt lat="44.11454" lon="7.28825">
        <ele>1530.1999511719</ele>
        <time>2014-02-23T06:51:14.000Z</time>
      </trkpt>
      <trkpt lat="44.11462" lon="7.28827">
        <ele>1531.8000488281</ele>
        <time>2014-02-23T06:51:23.000Z</time>
      </trkpt>
      <trkpt lat="44.11475" lon="7.28794">
        <ele>1534.8000488281</ele>
        <time>2014-02-23T06:51:48.000Z</time>
      </trkpt>
      <trkpt lat="44.11488" lon="7.28756">
        <ele>1536.8000488281</ele>
        <time>2014-02-23T06:52:15.000Z</time>
      </trkpt>
      <trkpt lat="44.11493" lon="7.28773">
        <ele>1539.5999755859</ele>
        <time>2014-02-23T06:52:33.000Z</time>
      </trkpt>
      <trkpt lat="44.11494" lon="7.28787">
        <ele>1541.1999511719</ele>
        <time>2014-02-23T06:52:42.000Z</time>
      </trkpt>
      <trkpt lat="44.11496" lon="7.28808">
        <ele>1543.5999755859</ele>
        <time>2014-02-23T06:52:57.000Z</time>
      </trkpt>
      <trkpt lat="44.11497" lon="7.28816">
        <ele>1544.4000244141</ele>
        <time>2014-02-23T06:53:03.000Z</time>
      </trkpt>
      <trkpt lat="44.11502" lon="7.28855">
        <ele>1547.4000244141</ele>
        <time>2014-02-23T06:53:30.000Z</time>
      </trkpt>
      <trkpt lat="44.11503" lon="7.28883">
        <ele>1549.5999755859</ele>
        <time>2014-02-23T06:53:53.000Z</time>
      </trkpt>
      <trkpt lat="44.11506" lon="7.28911">
        <ele>1552.5999755859</ele>
        <time>2014-02-23T06:54:13.000Z</time>
      </trkpt>
      <trkpt lat="44.11515" lon="7.28928">
        <ele>1555.4000244141</ele>
        <time>2014-02-23T06:54:29.000Z</time>
      </trkpt>
      <trkpt lat="44.11529" lon="7.28952">
        <ele>1558.5999755859</ele>
        <time>2014-02-23T06:54:51.000Z</time>
      </trkpt>
      <trkpt lat="44.11537" lon="7.28972">
        <ele>1561.8000488281</ele>
        <time>2014-02-23T06:55:09.000Z</time>
      </trkpt>
      <trkpt lat="44.11549" lon="7.28993">
        <ele>1563.5999755859</ele>
        <time>2014-02-23T06:55:26.000Z</time>
      </trkpt>
      <trkpt lat="44.11549" lon="7.29002">
        <ele>1564.8000488281</ele>
        <time>2014-02-23T06:55:33.000Z</time>
      </trkpt>
      <trkpt lat="44.1155" lon="7.29007">
        <ele>1565.4000244141</ele>
        <time>2014-02-23T06:55:36.000Z</time>
      </trkpt>
      <trkpt lat="44.11556" lon="7.29024">
        <ele>1568.1999511719</ele>
        <time>2014-02-23T06:55:51.000Z</time>
      </trkpt>
      <trkpt lat="44.11565" lon="7.2903">
        <ele>1571.4000244141</ele>
        <time>2014-02-23T06:56:04.000Z</time>
      </trkpt>
      <trkpt lat="44.11577" lon="7.2903">
        <ele>1574</ele>
        <time>2014-02-23T06:56:17.000Z</time>
      </trkpt>
      <trkpt lat="44.11584" lon="7.29033">
        <ele>1576.5999755859</ele>
        <time>2014-02-23T06:56:29.000Z</time>
      </trkpt>
      <trkpt lat="44.11589" lon="7.29042">
        <ele>1579.4000244141</ele>
        <time>2014-02-23T06:56:41.000Z</time>
      </trkpt>
      <trkpt lat="44.1159" lon="7.29044">
        <ele>1579.8000488281</ele>
        <time>2014-02-23T06:56:44.000Z</time>
      </trkpt>
      <trkpt lat="44.11591" lon="7.29047">
        <ele>1580.4000244141</ele>
        <time>2014-02-23T06:56:47.000Z</time>
      </trkpt>
      <trkpt lat="44.11598" lon="7.29049">
        <ele>1582.8000488281</ele>
        <time>2014-02-23T06:56:59.000Z</time>
      </trkpt>
      <trkpt lat="44.11602" lon="7.29052">
        <ele>1584</ele>
        <time>2014-02-23T06:57:06.000Z</time>
      </trkpt>
      <trkpt lat="44.11608" lon="7.29053">
        <ele>1586.1999511719</ele>
        <time>2014-02-23T06:57:17.000Z</time>
      </trkpt>
      <trkpt lat="44.11618" lon="7.29065">
        <ele>1589.1999511719</ele>
        <time>2014-02-23T06:57:36.000Z</time>
      </trkpt>
      <trkpt lat="44.11622" lon="7.29071">
        <ele>1592.1999511719</ele>
        <time>2014-02-23T06:57:59.000Z</time>
      </trkpt>
      <trkpt lat="44.11629" lon="7.29081">
        <ele>1595.4000244141</ele>
        <time>2014-02-23T06:58:16.000Z</time>
      </trkpt>
      <trkpt lat="44.11632" lon="7.29088">
        <ele>1598.1999511719</ele>
        <time>2014-02-23T06:58:29.000Z</time>
      </trkpt>
      <trkpt lat="44.11647" lon="7.29103">
        <ele>1601.4000244141</ele>
        <time>2014-02-23T06:58:55.000Z</time>
      </trkpt>
      <trkpt lat="44.11653" lon="7.29118">
        <ele>1604.4000244141</ele>
        <time>2014-02-23T06:59:09.000Z</time>
      </trkpt>
      <trkpt lat="44.11654" lon="7.29135">
        <ele>1607.5999755859</ele>
        <time>2014-02-23T06:59:32.000Z</time>
      </trkpt>
      <trkpt lat="44.11654" lon="7.29154">
        <ele>1610.5999755859</ele>
        <time>2014-02-23T06:59:52.000Z</time>
      </trkpt>
      <trkpt lat="44.11656" lon="7.29162">
        <ele>1611.4000244141</ele>
        <time>2014-02-23T06:59:57.000Z</time>
      </trkpt>
      <trkpt lat="44.11654" lon="7.29189">
        <ele>1613.1999511719</ele>
        <time>2014-02-23T07:00:21.000Z</time>
      </trkpt>
      <trkpt lat="44.1166" lon="7.2921">
        <ele>1616.1999511719</ele>
        <time>2014-02-23T07:00:44.000Z</time>
      </trkpt>
      <trkpt lat="44.11665" lon="7.29225">
        <ele>1619</ele>
        <time>2014-02-23T07:01:10.000Z</time>
      </trkpt>
      <trkpt lat="44.11668" lon="7.29233">
        <ele>1619.5999755859</ele>
        <time>2014-02-23T07:01:30.000Z</time>
      </trkpt>
      <trkpt lat="44.11666" lon="7.29236">
        <ele>1619.5999755859</ele>
        <time>2014-02-23T07:01:40.000Z</time>
      </trkpt>
      <trkpt lat="44.11668" lon="7.29245">
        <ele>1619.5999755859</ele>
        <time>2014-02-23T07:01:59.000Z</time>
      </trkpt>
      <trkpt lat="44.11667" lon="7.29236">
        <ele>1619.8000488281</ele>
        <time>2014-02-23T07:02:15.000Z</time>
      </trkpt>
      <trkpt lat="44.11664" lon="7.29234">
        <ele>1619.5999755859</ele>
        <time>2014-02-23T07:02:21.000Z</time>
      </trkpt>
      <trkpt lat="44.11665" lon="7.29242">
        <ele>1619.5999755859</ele>
        <time>2014-02-23T07:02:26.000Z</time>
      </trkpt>
      <trkpt lat="44.11664" lon="7.29247">
        <ele>1619.5999755859</ele>
        <time>2014-02-23T07:02:33.000Z</time>
      </trkpt>
      <trkpt lat="44.11661" lon="7.29238">
        <ele>1619.5999755859</ele>
        <time>2014-02-23T07:02:39.000Z</time>
      </trkpt>
      <trkpt lat="44.11662" lon="7.2924">
        <ele>1620.1999511719</ele>
        <time>2014-02-23T07:02:48.000Z</time>
      </trkpt>
      <trkpt lat="44.11668" lon="7.29239">
        <ele>1620</ele>
        <time>2014-02-23T07:02:58.000Z</time>
      </trkpt>
      <trkpt lat="44.11664" lon="7.29236">
        <ele>1620.1999511719</ele>
        <time>2014-02-23T07:03:07.000Z</time>
      </trkpt>
      <trkpt lat="44.11667" lon="7.29235">
        <ele>1620.5999755859</ele>
        <time>2014-02-23T07:03:12.000Z</time>
      </trkpt>
      <trkpt lat="44.11671" lon="7.29236">
        <ele>1622.4000244141</ele>
        <time>2014-02-23T07:03:25.000Z</time>
      </trkpt>
      <trkpt lat="44.11672" lon="7.29239">
        <ele>1623</ele>
        <time>2014-02-23T07:03:37.000Z</time>
      </trkpt>
      <trkpt lat="44.11675" lon="7.29244">
        <ele>1624.1999511719</ele>
        <time>2014-02-23T07:03:49.000Z</time>
      </trkpt>
      <trkpt lat="44.11675" lon="7.29233">
        <ele>1626.1999511719</ele>
        <time>2014-02-23T07:04:04.000Z</time>
      </trkpt>
      <trkpt lat="44.11678" lon="7.29228">
        <ele>1629.4000244141</ele>
        <time>2014-02-23T07:04:17.000Z</time>
      </trkpt>
      <trkpt lat="44.11684" lon="7.29224">
        <ele>1631.1999511719</ele>
        <time>2014-02-23T07:04:27.000Z</time>
      </trkpt>
      <trkpt lat="44.11686" lon="7.2923">
        <ele>1632.5999755859</ele>
        <time>2014-02-23T07:04:41.000Z</time>
      </trkpt>
      <trkpt lat="44.11686" lon="7.2923">
        <ele>1634.4000244141</ele>
        <time>2014-02-23T07:04:56.000Z</time>
      </trkpt>
      <trkpt lat="44.11686" lon="7.29227">
        <ele>1635</ele>
        <time>2014-02-23T07:04:58.000Z</time>
      </trkpt>
      <trkpt lat="44.11685" lon="7.29208">
        <ele>1637.4000244141</ele>
        <time>2014-02-23T07:05:15.000Z</time>
      </trkpt>
      <trkpt lat="44.11684" lon="7.29207">
        <ele>1638</ele>
        <time>2014-02-23T07:05:18.000Z</time>
      </trkpt>
      <trkpt lat="44.11686" lon="7.29203">
        <ele>1639.4000244141</ele>
        <time>2014-02-23T07:05:30.000Z</time>
      </trkpt>
      <trkpt lat="44.11692" lon="7.29196">
        <ele>1640.8000488281</ele>
        <time>2014-02-23T07:05:41.000Z</time>
      </trkpt>
      <trkpt lat="44.11692" lon="7.29189">
        <ele>1642.8000488281</ele>
        <time>2014-02-23T07:05:56.000Z</time>
      </trkpt>
      <trkpt lat="44.11694" lon="7.29188">
        <ele>1643</ele>
        <time>2014-02-23T07:06:11.000Z</time>
      </trkpt>
      <trkpt lat="44.11693" lon="7.29178">
        <ele>1642.4000244141</ele>
        <time>2014-02-23T07:06:28.000Z</time>
      </trkpt>
      <trkpt lat="44.11693" lon="7.29181">
        <ele>1643.1999511719</ele>
        <time>2014-02-23T07:06:43.000Z</time>
      </trkpt>
      <trkpt lat="44.11696" lon="7.29182">
        <ele>1643.5999755859</ele>
        <time>2014-02-23T07:06:47.000Z</time>
      </trkpt>
      <trkpt lat="44.11698" lon="7.29184">
        <ele>1644.4000244141</ele>
        <time>2014-02-23T07:06:49.000Z</time>
      </trkpt>
      <trkpt lat="44.11699" lon="7.29196">
        <ele>1647.1999511719</ele>
        <time>2014-02-23T07:06:58.000Z</time>
      </trkpt>
      <trkpt lat="44.117" lon="7.29198">
        <ele>1648</ele>
        <time>2014-02-23T07:07:01.000Z</time>
      </trkpt>
      <trkpt lat="44.11704" lon="7.29201">
        <ele>1649.5999755859</ele>
        <time>2014-02-23T07:07:05.000Z</time>
      </trkpt>
      <trkpt lat="44.11715" lon="7.29207">
        <ele>1653.1999511719</ele>
        <time>2014-02-23T07:07:19.000Z</time>
      </trkpt>
      <trkpt lat="44.11719" lon="7.29201">
        <ele>1656.4000244141</ele>
        <time>2014-02-23T07:07:31.000Z</time>
      </trkpt>
      <trkpt lat="44.11724" lon="7.29211">
        <ele>1658.8000488281</ele>
        <time>2014-02-23T07:07:43.000Z</time>
      </trkpt>
      <trkpt lat="44.11727" lon="7.29216">
        <ele>1661</ele>
        <time>2014-02-23T07:07:55.000Z</time>
      </trkpt>
      <trkpt lat="44.11728" lon="7.29221">
        <ele>1664</ele>
        <time>2014-02-23T07:08:09.000Z</time>
      </trkpt>
      <trkpt lat="44.11733" lon="7.2923">
        <ele>1666.8000488281</ele>
        <time>2014-02-23T07:08:21.000Z</time>
      </trkpt>
      <trkpt lat="44.11743" lon="7.29239">
        <ele>1669.1999511719</ele>
        <time>2014-02-23T07:08:38.000Z</time>
      </trkpt>
      <trkpt lat="44.11745" lon="7.29243">
        <ele>1671.4000244141</ele>
        <time>2014-02-23T07:08:53.000Z</time>
      </trkpt>
      <trkpt lat="44.11747" lon="7.29248">
        <ele>1674.5999755859</ele>
        <time>2014-02-23T07:09:05.000Z</time>
      </trkpt>
      <trkpt lat="44.11753" lon="7.29258">
        <ele>1677.8000488281</ele>
        <time>2014-02-23T07:09:17.000Z</time>
      </trkpt>
      <trkpt lat="44.11759" lon="7.29264">
        <ele>1680</ele>
        <time>2014-02-23T07:09:31.000Z</time>
      </trkpt>
      <trkpt lat="44.11762" lon="7.29272">
        <ele>1683.1999511719</ele>
        <time>2014-02-23T07:09:44.000Z</time>
      </trkpt>
      <trkpt lat="44.11764" lon="7.29273">
        <ele>1685.4000244141</ele>
        <time>2014-02-23T07:09:57.000Z</time>
      </trkpt>
      <trkpt lat="44.11768" lon="7.29278">
        <ele>1688.1999511719</ele>
        <time>2014-02-23T07:10:10.000Z</time>
      </trkpt>
      <trkpt lat="44.11771" lon="7.29281">
        <ele>1689.4000244141</ele>
        <time>2014-02-23T07:10:17.000Z</time>
      </trkpt>
      <trkpt lat="44.11773" lon="7.29284">
        <ele>1691</ele>
        <time>2014-02-23T07:10:28.000Z</time>
      </trkpt>
      <trkpt lat="44.11778" lon="7.29285">
        <ele>1692.1999511719</ele>
        <time>2014-02-23T07:10:37.000Z</time>
      </trkpt>
      <trkpt lat="44.11778" lon="7.29284">
        <ele>1692.1999511719</ele>
        <time>2014-02-23T07:10:44.000Z</time>
      </trkpt>
      <trkpt lat="44.11782" lon="7.29287">
        <ele>1695.1999511719</ele>
        <time>2014-02-23T07:10:58.000Z</time>
      </trkpt>
      <trkpt lat="44.1178" lon="7.29291">
        <ele>1696.1999511719</ele>
        <time>2014-02-23T07:11:14.000Z</time>
      </trkpt>
      <trkpt lat="44.11784" lon="7.29294">
        <ele>1698.4000244141</ele>
        <time>2014-02-23T07:11:29.000Z</time>
      </trkpt>
      <trkpt lat="44.11781" lon="7.29293">
        <ele>1698.4000244141</ele>
        <time>2014-02-23T07:11:44.000Z</time>
      </trkpt>
      <trkpt lat="44.11783" lon="7.29293">
        <ele>1700.1999511719</ele>
        <time>2014-02-23T07:11:51.000Z</time>
      </trkpt>
      <trkpt lat="44.11789" lon="7.29295">
        <ele>1702</ele>
        <time>2014-02-23T07:12:04.000Z</time>
      </trkpt>
      <trkpt lat="44.1179" lon="7.29299">
        <ele>1704</ele>
        <time>2014-02-23T07:12:17.000Z</time>
      </trkpt>
      <trkpt lat="44.11793" lon="7.29296">
        <ele>1706.5999755859</ele>
        <time>2014-02-23T07:12:31.000Z</time>
      </trkpt>
      <trkpt lat="44.11796" lon="7.29306">
        <ele>1708.4000244141</ele>
        <time>2014-02-23T07:12:46.000Z</time>
      </trkpt>
      <trkpt lat="44.11805" lon="7.29315">
        <ele>1710.8000488281</ele>
        <time>2014-02-23T07:12:59.000Z</time>
      </trkpt>
      <trkpt lat="44.11807" lon="7.29317">
        <ele>1711.5999755859</ele>
        <time>2014-02-23T07:13:03.000Z</time>
      </trkpt>
      <trkpt lat="44.1181" lon="7.2933">
        <ele>1713.1999511719</ele>
        <time>2014-02-23T07:13:19.000Z</time>
      </trkpt>
      <trkpt lat="44.11813" lon="7.29349">
        <ele>1712.8000488281</ele>
        <time>2014-02-23T07:13:32.000Z</time>
      </trkpt>
      <trkpt lat="44.11813" lon="7.29352">
        <ele>1713.1999511719</ele>
        <time>2014-02-23T07:13:36.000Z</time>
      </trkpt>
      <trkpt lat="44.11817" lon="7.29364">
        <ele>1715</ele>
        <time>2014-02-23T07:13:49.000Z</time>
      </trkpt>
      <trkpt lat="44.11819" lon="7.29371">
        <ele>1717.5999755859</ele>
        <time>2014-02-23T07:14:03.000Z</time>
      </trkpt>
      <trkpt lat="44.11825" lon="7.29379">
        <ele>1720.4000244141</ele>
        <time>2014-02-23T07:14:18.000Z</time>
      </trkpt>
      <trkpt lat="44.11828" lon="7.29381">
        <ele>1721</ele>
        <time>2014-02-23T07:14:23.000Z</time>
      </trkpt>
      <trkpt lat="44.11828" lon="7.29383">
        <ele>1721.5999755859</ele>
        <time>2014-02-23T07:14:25.000Z</time>
      </trkpt>
      <trkpt lat="44.11831" lon="7.29386">
        <ele>1723</ele>
        <time>2014-02-23T07:14:33.000Z</time>
      </trkpt>
      <trkpt lat="44.11834" lon="7.2939">
        <ele>1724.1999511719</ele>
        <time>2014-02-23T07:14:39.000Z</time>
      </trkpt>
      <trkpt lat="44.11839" lon="7.29398">
        <ele>1726.4000244141</ele>
        <time>2014-02-23T07:14:51.000Z</time>
      </trkpt>
      <trkpt lat="44.11843" lon="7.29396">
        <ele>1727.1999511719</ele>
        <time>2014-02-23T07:14:57.000Z</time>
      </trkpt>
      <trkpt lat="44.11847" lon="7.29396">
        <ele>1727.8000488281</ele>
        <time>2014-02-23T07:15:07.000Z</time>
      </trkpt>
      <trkpt lat="44.11854" lon="7.29394">
        <ele>1729.5999755859</ele>
        <time>2014-02-23T07:15:19.000Z</time>
      </trkpt>
      <trkpt lat="44.11862" lon="7.29396">
        <ele>1731.8000488281</ele>
        <time>2014-02-23T07:15:29.000Z</time>
      </trkpt>
      <trkpt lat="44.1187" lon="7.29404">
        <ele>1733.4000244141</ele>
        <time>2014-02-23T07:15:42.000Z</time>
      </trkpt>
      <trkpt lat="44.11875" lon="7.29405">
        <ele>1734.5999755859</ele>
        <time>2014-02-23T07:15:48.000Z</time>
      </trkpt>
      <trkpt lat="44.11887" lon="7.29415">
        <ele>1736.8000488281</ele>
        <time>2014-02-23T07:16:03.000Z</time>
      </trkpt>
      <trkpt lat="44.11891" lon="7.29418">
        <ele>1738.8000488281</ele>
        <time>2014-02-23T07:16:16.000Z</time>
      </trkpt>
      <trkpt lat="44.11898" lon="7.29431">
        <ele>1740.4000244141</ele>
        <time>2014-02-23T07:16:30.000Z</time>
      </trkpt>
      <trkpt lat="44.1191" lon="7.29437">
        <ele>1743.4000244141</ele>
        <time>2014-02-23T07:16:52.000Z</time>
      </trkpt>
      <trkpt lat="44.11914" lon="7.29437">
        <ele>1743.4000244141</ele>
        <time>2014-02-23T07:17:15.000Z</time>
      </trkpt>
      <trkpt lat="44.11914" lon="7.29437">
        <ele>1743.5999755859</ele>
        <time>2014-02-23T07:17:39.000Z</time>
      </trkpt>
      <trkpt lat="44.11918" lon="7.29445">
        <ele>1743.1999511719</ele>
        <time>2014-02-23T07:18:03.000Z</time>
      </trkpt>
      <trkpt lat="44.11925" lon="7.29445">
        <ele>1743.4000244141</ele>
        <time>2014-02-23T07:18:17.000Z</time>
      </trkpt>
      <trkpt lat="44.11925" lon="7.29441">
        <ele>1742.8000488281</ele>
        <time>2014-02-23T07:18:46.000Z</time>
      </trkpt>
      <trkpt lat="44.11923" lon="7.29443">
        <ele>1742.1999511719</ele>
        <time>2014-02-23T07:19:13.000Z</time>
      </trkpt>
      <trkpt lat="44.11923" lon="7.29443">
        <ele>1742.1999511719</ele>
        <time>2014-02-23T07:19:37.000Z</time>
      </trkpt>
      <trkpt lat="44.11918" lon="7.29442">
        <ele>1742.1999511719</ele>
        <time>2014-02-23T07:20:04.000Z</time>
      </trkpt>
      <trkpt lat="44.11918" lon="7.29438">
        <ele>1741.5999755859</ele>
        <time>2014-02-23T07:20:30.000Z</time>
      </trkpt>
      <trkpt lat="44.11919" lon="7.2944">
        <ele>1741.8000488281</ele>
        <time>2014-02-23T07:20:57.000Z</time>
      </trkpt>
      <trkpt lat="44.11917" lon="7.29442">
        <ele>1741.1999511719</ele>
        <time>2014-02-23T07:21:21.000Z</time>
      </trkpt>
      <trkpt lat="44.11919" lon="7.29442">
        <ele>1741.1999511719</ele>
        <time>2014-02-23T07:21:48.000Z</time>
      </trkpt>
      <trkpt lat="44.11918" lon="7.29441">
        <ele>1740.8000488281</ele>
        <time>2014-02-23T07:22:12.000Z</time>
      </trkpt>
      <trkpt lat="44.11918" lon="7.29438">
        <ele>1741.1999511719</ele>
        <time>2014-02-23T07:22:40.000Z</time>
      </trkpt>
      <trkpt lat="44.11919" lon="7.29438">
        <ele>1740.8000488281</ele>
        <time>2014-02-23T07:23:06.000Z</time>
      </trkpt>
      <trkpt lat="44.11919" lon="7.29441">
        <ele>1740.5999755859</ele>
        <time>2014-02-23T07:23:38.000Z</time>
      </trkpt>
      <trkpt lat="44.11922" lon="7.2944">
        <ele>1739.8000488281</ele>
        <time>2014-02-23T07:23:59.000Z</time>
      </trkpt>
      <trkpt lat="44.11927" lon="7.29434">
        <ele>1740.8000488281</ele>
        <time>2014-02-23T07:24:22.000Z</time>
      </trkpt>
      <trkpt lat="44.11926" lon="7.29432">
        <ele>1740.5999755859</ele>
        <time>2014-02-23T07:24:51.000Z</time>
      </trkpt>
      <trkpt lat="44.11927" lon="7.29432">
        <ele>1740.5999755859</ele>
        <time>2014-02-23T07:25:24.000Z</time>
      </trkpt>
      <trkpt lat="44.11926" lon="7.29433">
        <ele>1740.5999755859</ele>
        <time>2014-02-23T07:25:47.000Z</time>
      </trkpt>
      <trkpt lat="44.11923" lon="7.29434">
        <ele>1740.5999755859</ele>
        <time>2014-02-23T07:26:18.000Z</time>
      </trkpt>
      <trkpt lat="44.11925" lon="7.29432">
        <ele>1740.1999511719</ele>
        <time>2014-02-23T07:26:39.000Z</time>
      </trkpt>
      <trkpt lat="44.11923" lon="7.2943">
        <ele>1740.4000244141</ele>
        <time>2014-02-23T07:27:08.000Z</time>
      </trkpt>
      <trkpt lat="44.11924" lon="7.29429">
        <ele>1740</ele>
        <time>2014-02-23T07:27:34.000Z</time>
      </trkpt>
      <trkpt lat="44.11928" lon="7.29432">
        <ele>1740.5999755859</ele>
        <time>2014-02-23T07:28:01.000Z</time>
      </trkpt>
      <trkpt lat="44.11939" lon="7.29431">
        <ele>1743.8000488281</ele>
        <time>2014-02-23T07:28:18.000Z</time>
      </trkpt>
      <trkpt lat="44.1195" lon="7.29433">
        <ele>1746.1999511719</ele>
        <time>2014-02-23T07:28:40.000Z</time>
      </trkpt>
      <trkpt lat="44.11962" lon="7.29439">
        <ele>1749.1999511719</ele>
        <time>2014-02-23T07:29:02.000Z</time>
      </trkpt>
      <trkpt lat="44.11981" lon="7.2944">
        <ele>1752.1999511719</ele>
        <time>2014-02-23T07:29:28.000Z</time>
      </trkpt>
      <trkpt lat="44.11992" lon="7.29449">
        <ele>1755.1999511719</ele>
        <time>2014-02-23T07:29:50.000Z</time>
      </trkpt>
      <trkpt lat="44.12002" lon="7.2946">
        <ele>1758.1999511719</ele>
        <time>2014-02-23T07:30:10.000Z</time>
      </trkpt>
      <trkpt lat="44.12014" lon="7.29452">
        <ele>1761.1999511719</ele>
        <time>2014-02-23T07:30:28.000Z</time>
      </trkpt>
      <trkpt lat="44.12024" lon="7.29445">
        <ele>1764.4000244141</ele>
        <time>2014-02-23T07:30:45.000Z</time>
      </trkpt>
      <trkpt lat="44.12037" lon="7.29445">
        <ele>1767.5999755859</ele>
        <time>2014-02-23T07:31:06.000Z</time>
      </trkpt>
      <trkpt lat="44.12049" lon="7.29446">
        <ele>1770.5999755859</ele>
        <time>2014-02-23T07:31:27.000Z</time>
      </trkpt>
      <trkpt lat="44.12055" lon="7.29446">
        <ele>1773.4000244141</ele>
        <time>2014-02-23T07:31:44.000Z</time>
      </trkpt>
      <trkpt lat="44.12061" lon="7.29444">
        <ele>1776.5999755859</ele>
        <time>2014-02-23T07:32:00.000Z</time>
      </trkpt>
      <trkpt lat="44.12068" lon="7.2945">
        <ele>1779.5999755859</ele>
        <time>2014-02-23T07:32:16.000Z</time>
      </trkpt>
      <trkpt lat="44.12079" lon="7.29448">
        <ele>1782.5999755859</ele>
        <time>2014-02-23T07:32:35.000Z</time>
      </trkpt>
      <trkpt lat="44.12088" lon="7.29449">
        <ele>1785.8000488281</ele>
        <time>2014-02-23T07:32:55.000Z</time>
      </trkpt>
      <trkpt lat="44.12093" lon="7.29449">
        <ele>1788.8000488281</ele>
        <time>2014-02-23T07:33:09.000Z</time>
      </trkpt>
      <trkpt lat="44.12094" lon="7.29446">
        <ele>1789.4000244141</ele>
        <time>2014-02-23T07:33:14.000Z</time>
      </trkpt>
      <trkpt lat="44.12109" lon="7.29453">
        <ele>1792.8000488281</ele>
        <time>2014-02-23T07:33:35.000Z</time>
      </trkpt>
      <trkpt lat="44.12113" lon="7.29449">
        <ele>1796</ele>
        <time>2014-02-23T07:33:50.000Z</time>
      </trkpt>
      <trkpt lat="44.12119" lon="7.2945">
        <ele>1798.8000488281</ele>
        <time>2014-02-23T07:34:13.000Z</time>
      </trkpt>
      <trkpt lat="44.12129" lon="7.29457">
        <ele>1802</ele>
        <time>2014-02-23T07:34:31.000Z</time>
      </trkpt>
      <trkpt lat="44.12132" lon="7.29452">
        <ele>1805</ele>
        <time>2014-02-23T07:34:44.000Z</time>
      </trkpt>
      <trkpt lat="44.12138" lon="7.29458">
        <ele>1807.4000244141</ele>
        <time>2014-02-23T07:35:02.000Z</time>
      </trkpt>
      <trkpt lat="44.1214" lon="7.2947">
        <ele>1810.5999755859</ele>
        <time>2014-02-23T07:35:26.000Z</time>
      </trkpt>
      <trkpt lat="44.12143" lon="7.29484">
        <ele>1813.5999755859</ele>
        <time>2014-02-23T07:35:44.000Z</time>
      </trkpt>
      <trkpt lat="44.12149" lon="7.29495">
        <ele>1817</ele>
        <time>2014-02-23T07:35:59.000Z</time>
      </trkpt>
      <trkpt lat="44.12155" lon="7.29488">
        <ele>1820</ele>
        <time>2014-02-23T07:36:13.000Z</time>
      </trkpt>
      <trkpt lat="44.1216" lon="7.29491">
        <ele>1822.1999511719</ele>
        <time>2014-02-23T07:36:27.000Z</time>
      </trkpt>
      <trkpt lat="44.12161" lon="7.29497">
        <ele>1823.5999755859</ele>
        <time>2014-02-23T07:36:35.000Z</time>
      </trkpt>
      <trkpt lat="44.12161" lon="7.29501">
        <ele>1823.4000244141</ele>
        <time>2014-02-23T07:36:39.000Z</time>
      </trkpt>
      <trkpt lat="44.12165" lon="7.29502">
        <ele>1826.5999755859</ele>
        <time>2014-02-23T07:36:53.000Z</time>
      </trkpt>
      <trkpt lat="44.1217" lon="7.29501">
        <ele>1829.5999755859</ele>
        <time>2014-02-23T07:37:06.000Z</time>
      </trkpt>
      <trkpt lat="44.12179" lon="7.29497">
        <ele>1832.8000488281</ele>
        <time>2014-02-23T07:37:24.000Z</time>
      </trkpt>
      <trkpt lat="44.12184" lon="7.29507">
        <ele>1835.8000488281</ele>
        <time>2014-02-23T07:37:40.000Z</time>
      </trkpt>
      <trkpt lat="44.12193" lon="7.29511">
        <ele>1838.5999755859</ele>
        <time>2014-02-23T07:38:04.000Z</time>
      </trkpt>
      <trkpt lat="44.12196" lon="7.29511">
        <ele>1839.8000488281</ele>
        <time>2014-02-23T07:38:11.000Z</time>
      </trkpt>
      <trkpt lat="44.12195" lon="7.29509">
        <ele>1840</ele>
        <time>2014-02-23T07:38:20.000Z</time>
      </trkpt>
      <trkpt lat="44.12209" lon="7.29506">
        <ele>1843.1999511719</ele>
        <time>2014-02-23T07:38:42.000Z</time>
      </trkpt>
      <trkpt lat="44.12219" lon="7.29503">
        <ele>1846.5999755859</ele>
        <time>2014-02-23T07:39:01.000Z</time>
      </trkpt>
      <trkpt lat="44.12227" lon="7.29506">
        <ele>1849.5999755859</ele>
        <time>2014-02-23T07:39:19.000Z</time>
      </trkpt>
      <trkpt lat="44.12234" lon="7.29514">
        <ele>1852.8000488281</ele>
        <time>2014-02-23T07:39:40.000Z</time>
      </trkpt>
      <trkpt lat="44.12244" lon="7.2953">
        <ele>1855.8000488281</ele>
        <time>2014-02-23T07:40:02.000Z</time>
      </trkpt>
      <trkpt lat="44.12248" lon="7.29537">
        <ele>1858.1999511719</ele>
        <time>2014-02-23T07:40:13.000Z</time>
      </trkpt>
      <trkpt lat="44.1226" lon="7.29549">
        <ele>1860.8000488281</ele>
        <time>2014-02-23T07:40:35.000Z</time>
      </trkpt>
      <trkpt lat="44.12271" lon="7.29562">
        <ele>1863.8000488281</ele>
        <time>2014-02-23T07:40:56.000Z</time>
      </trkpt>
      <trkpt lat="44.12282" lon="7.2957">
        <ele>1867</ele>
        <time>2014-02-23T07:41:14.000Z</time>
      </trkpt>
      <trkpt lat="44.1229" lon="7.29576">
        <ele>1870.1999511719</ele>
        <time>2014-02-23T07:41:29.000Z</time>
      </trkpt>
      <trkpt lat="44.12304" lon="7.29582">
        <ele>1873.4000244141</ele>
        <time>2014-02-23T07:41:49.000Z</time>
      </trkpt>
      <trkpt lat="44.12313" lon="7.29593">
        <ele>1876.5999755859</ele>
        <time>2014-02-23T07:42:07.000Z</time>
      </trkpt>
      <trkpt lat="44.12324" lon="7.29601">
        <ele>1879.5999755859</ele>
        <time>2014-02-23T07:42:24.000Z</time>
      </trkpt>
      <trkpt lat="44.12337" lon="7.29611">
        <ele>1882.5999755859</ele>
        <time>2014-02-23T07:42:50.000Z</time>
      </trkpt>
      <trkpt lat="44.12347" lon="7.29621">
        <ele>1885.8000488281</ele>
        <time>2014-02-23T07:43:11.000Z</time>
      </trkpt>
      <trkpt lat="44.12356" lon="7.29637">
        <ele>1888.8000488281</ele>
        <time>2014-02-23T07:43:30.000Z</time>
      </trkpt>
      <trkpt lat="44.12363" lon="7.29642">
        <ele>1891.8000488281</ele>
        <time>2014-02-23T07:43:43.000Z</time>
      </trkpt>
      <trkpt lat="44.12372" lon="7.29651">
        <ele>1895</ele>
        <time>2014-02-23T07:44:01.000Z</time>
      </trkpt>
      <trkpt lat="44.12384" lon="7.29658">
        <ele>1898.1999511719</ele>
        <time>2014-02-23T07:44:22.000Z</time>
      </trkpt>
      <trkpt lat="44.12396" lon="7.29656">
        <ele>1901.1999511719</ele>
        <time>2014-02-23T07:44:40.000Z</time>
      </trkpt>
      <trkpt lat="44.12411" lon="7.2966">
        <ele>1904.4000244141</ele>
        <time>2014-02-23T07:45:07.000Z</time>
      </trkpt>
      <trkpt lat="44.12424" lon="7.29674">
        <ele>1907.4000244141</ele>
        <time>2014-02-23T07:45:30.000Z</time>
      </trkpt>
      <trkpt lat="44.12433" lon="7.29679">
        <ele>1910.5999755859</ele>
        <time>2014-02-23T07:45:46.000Z</time>
      </trkpt>
      <trkpt lat="44.12444" lon="7.29689">
        <ele>1913.4000244141</ele>
        <time>2014-02-23T07:46:07.000Z</time>
      </trkpt>
      <trkpt lat="44.12458" lon="7.29689">
        <ele>1915.5999755859</ele>
        <time>2014-02-23T07:46:26.000Z</time>
      </trkpt>
      <trkpt lat="44.12471" lon="7.29696">
        <ele>1918.5999755859</ele>
        <time>2014-02-23T07:46:45.000Z</time>
      </trkpt>
      <trkpt lat="44.12478" lon="7.297">
        <ele>1919.4000244141</ele>
        <time>2014-02-23T07:46:54.000Z</time>
      </trkpt>
      <trkpt lat="44.12487" lon="7.29707">
        <ele>1920.5999755859</ele>
        <time>2014-02-23T07:47:07.000Z</time>
      </trkpt>
      <trkpt lat="44.12488" lon="7.2971">
        <ele>1920.8000488281</ele>
        <time>2014-02-23T07:47:09.000Z</time>
      </trkpt>
      <trkpt lat="44.12496" lon="7.29716">
        <ele>1922.5999755859</ele>
        <time>2014-02-23T07:47:22.000Z</time>
      </trkpt>
      <trkpt lat="44.12504" lon="7.2972">
        <ele>1925.5999755859</ele>
        <time>2014-02-23T07:47:34.000Z</time>
      </trkpt>
      <trkpt lat="44.1251" lon="7.29723">
        <ele>1928.8000488281</ele>
        <time>2014-02-23T07:47:47.000Z</time>
      </trkpt>
      <trkpt lat="44.12514" lon="7.2972">
        <ele>1931.8000488281</ele>
        <time>2014-02-23T07:48:00.000Z</time>
      </trkpt>
      <trkpt lat="44.12516" lon="7.29715">
        <ele>1935</ele>
        <time>2014-02-23T07:48:12.000Z</time>
      </trkpt>
      <trkpt lat="44.1252" lon="7.29704">
        <ele>1938</ele>
        <time>2014-02-23T07:48:26.000Z</time>
      </trkpt>
      <trkpt lat="44.12529" lon="7.29706">
        <ele>1941.1999511719</ele>
        <time>2014-02-23T07:48:41.000Z</time>
      </trkpt>
      <trkpt lat="44.12536" lon="7.29715">
        <ele>1944.1999511719</ele>
        <time>2014-02-23T07:48:58.000Z</time>
      </trkpt>
      <trkpt lat="44.12545" lon="7.29724">
        <ele>1947.4000244141</ele>
        <time>2014-02-23T07:49:13.000Z</time>
      </trkpt>
      <trkpt lat="44.12559" lon="7.2973">
        <ele>1950.5999755859</ele>
        <time>2014-02-23T07:49:32.000Z</time>
      </trkpt>
      <trkpt lat="44.12568" lon="7.29735">
        <ele>1953.5999755859</ele>
        <time>2014-02-23T07:49:47.000Z</time>
      </trkpt>
      <trkpt lat="44.12572" lon="7.29748">
        <ele>1956.5999755859</ele>
        <time>2014-02-23T07:50:03.000Z</time>
      </trkpt>
      <trkpt lat="44.12577" lon="7.29762">
        <ele>1959.5999755859</ele>
        <time>2014-02-23T07:50:18.000Z</time>
      </trkpt>
      <trkpt lat="44.12581" lon="7.29764">
        <ele>1962.8000488281</ele>
        <time>2014-02-23T07:50:32.000Z</time>
      </trkpt>
      <trkpt lat="44.12585" lon="7.29755">
        <ele>1965.8000488281</ele>
        <time>2014-02-23T07:50:44.000Z</time>
      </trkpt>
      <trkpt lat="44.12594" lon="7.29762">
        <ele>1968.8000488281</ele>
        <time>2014-02-23T07:51:02.000Z</time>
      </trkpt>
      <trkpt lat="44.126" lon="7.29759">
        <ele>1971.8000488281</ele>
        <time>2014-02-23T07:51:15.000Z</time>
      </trkpt>
      <trkpt lat="44.12612" lon="7.29755">
        <ele>1974.8000488281</ele>
        <time>2014-02-23T07:51:32.000Z</time>
      </trkpt>
      <trkpt lat="44.12617" lon="7.2976">
        <ele>1978</ele>
        <time>2014-02-23T07:51:45.000Z</time>
      </trkpt>
      <trkpt lat="44.12623" lon="7.29755">
        <ele>1981</ele>
        <time>2014-02-23T07:51:58.000Z</time>
      </trkpt>
      <trkpt lat="44.12631" lon="7.29763">
        <ele>1984</ele>
        <time>2014-02-23T07:52:18.000Z</time>
      </trkpt>
      <trkpt lat="44.12636" lon="7.29766">
        <ele>1987.1999511719</ele>
        <time>2014-02-23T07:52:30.000Z</time>
      </trkpt>
      <trkpt lat="44.1264" lon="7.29781">
        <ele>1990.1999511719</ele>
        <time>2014-02-23T07:52:46.000Z</time>
      </trkpt>
      <trkpt lat="44.12648" lon="7.29784">
        <ele>1993.1999511719</ele>
        <time>2014-02-23T07:53:00.000Z</time>
      </trkpt>
      <trkpt lat="44.12655" lon="7.29781">
        <ele>1996.1999511719</ele>
        <time>2014-02-23T07:53:14.000Z</time>
      </trkpt>
      <trkpt lat="44.1266" lon="7.29773">
        <ele>1999.4000244141</ele>
        <time>2014-02-23T07:53:28.000Z</time>
      </trkpt>
      <trkpt lat="44.12667" lon="7.29767">
        <ele>2002.4000244141</ele>
        <time>2014-02-23T07:53:42.000Z</time>
      </trkpt>
      <trkpt lat="44.12673" lon="7.29759">
        <ele>2005.4000244141</ele>
        <time>2014-02-23T07:53:57.000Z</time>
      </trkpt>
      <trkpt lat="44.12679" lon="7.29761">
        <ele>2008.5999755859</ele>
        <time>2014-02-23T07:54:13.000Z</time>
      </trkpt>
      <trkpt lat="44.12686" lon="7.29758">
        <ele>2011.5999755859</ele>
        <time>2014-02-23T07:54:25.000Z</time>
      </trkpt>
      <trkpt lat="44.12689" lon="7.29765">
        <ele>2014.8000488281</ele>
        <time>2014-02-23T07:54:44.000Z</time>
      </trkpt>
      <trkpt lat="44.12695" lon="7.29758">
        <ele>2017.8000488281</ele>
        <time>2014-02-23T07:54:59.000Z</time>
      </trkpt>
      <trkpt lat="44.127" lon="7.29751">
        <ele>2020.8000488281</ele>
        <time>2014-02-23T07:55:11.000Z</time>
      </trkpt>
      <trkpt lat="44.12705" lon="7.2975">
        <ele>2023.8000488281</ele>
        <time>2014-02-23T07:55:28.000Z</time>
      </trkpt>
      <trkpt lat="44.12713" lon="7.29756">
        <ele>2026.8000488281</ele>
        <time>2014-02-23T07:55:43.000Z</time>
      </trkpt>
      <trkpt lat="44.12724" lon="7.29752">
        <ele>2029.1999511719</ele>
        <time>2014-02-23T07:56:08.000Z</time>
      </trkpt>
      <trkpt lat="44.12726" lon="7.29752">
        <ele>2029.4000244141</ele>
        <time>2014-02-23T07:56:34.000Z</time>
      </trkpt>
      <trkpt lat="44.12725" lon="7.29751">
        <ele>2029.5999755859</ele>
        <time>2014-02-23T07:57:04.000Z</time>
      </trkpt>
      <trkpt lat="44.12726" lon="7.29752">
        <ele>2029.5999755859</ele>
        <time>2014-02-23T07:57:31.000Z</time>
      </trkpt>
      <trkpt lat="44.12727" lon="7.29753">
        <ele>2029.8000488281</ele>
        <time>2014-02-23T07:57:59.000Z</time>
      </trkpt>
      <trkpt lat="44.12727" lon="7.29754">
        <ele>2029.5999755859</ele>
        <time>2014-02-23T07:58:28.000Z</time>
      </trkpt>
      <trkpt lat="44.12726" lon="7.29753">
        <ele>2029.8000488281</ele>
        <time>2014-02-23T07:58:57.000Z</time>
      </trkpt>
      <trkpt lat="44.12726" lon="7.29753">
        <ele>2030.1999511719</ele>
        <time>2014-02-23T07:59:23.000Z</time>
      </trkpt>
      <trkpt lat="44.12726" lon="7.29754">
        <ele>2030.4000244141</ele>
        <time>2014-02-23T07:59:51.000Z</time>
      </trkpt>
      <trkpt lat="44.12725" lon="7.29754">
        <ele>2030.5999755859</ele>
        <time>2014-02-23T08:00:22.000Z</time>
      </trkpt>
      <trkpt lat="44.12723" lon="7.29753">
        <ele>2030.8000488281</ele>
        <time>2014-02-23T08:00:56.000Z</time>
      </trkpt>
      <trkpt lat="44.12723" lon="7.29752">
        <ele>2031</ele>
        <time>2014-02-23T08:01:26.000Z</time>
      </trkpt>
      <trkpt lat="44.12737" lon="7.29756">
        <ele>2032.5999755859</ele>
        <time>2014-02-23T08:01:49.000Z</time>
      </trkpt>
      <trkpt lat="44.1275" lon="7.2975">
        <ele>2035</ele>
        <time>2014-02-23T08:02:06.000Z</time>
      </trkpt>
      <trkpt lat="44.12767" lon="7.29746">
        <ele>2036.4000244141</ele>
        <time>2014-02-23T08:02:28.000Z</time>
      </trkpt>
      <trkpt lat="44.12784" lon="7.29747">
        <ele>2039.1999511719</ele>
        <time>2014-02-23T08:02:51.000Z</time>
      </trkpt>
      <trkpt lat="44.12791" lon="7.29737">
        <ele>2042</ele>
        <time>2014-02-23T08:03:11.000Z</time>
      </trkpt>
      <trkpt lat="44.12798" lon="7.29725">
        <ele>2045.1999511719</ele>
        <time>2014-02-23T08:03:29.000Z</time>
      </trkpt>
      <trkpt lat="44.12805" lon="7.29712">
        <ele>2048.3999023438</ele>
        <time>2014-02-23T08:03:45.000Z</time>
      </trkpt>
      <trkpt lat="44.1281" lon="7.29703">
        <ele>2051.3999023438</ele>
        <time>2014-02-23T08:03:58.000Z</time>
      </trkpt>
      <trkpt lat="44.12818" lon="7.29695">
        <ele>2054.6000976562</ele>
        <time>2014-02-23T08:04:16.000Z</time>
      </trkpt>
      <trkpt lat="44.12827" lon="7.29687">
        <ele>2057.6000976562</ele>
        <time>2014-02-23T08:04:33.000Z</time>
      </trkpt>
      <trkpt lat="44.12834" lon="7.29699">
        <ele>2060.8000488281</ele>
        <time>2014-02-23T08:04:55.000Z</time>
      </trkpt>
      <trkpt lat="44.12844" lon="7.29699">
        <ele>2063.8000488281</ele>
        <time>2014-02-23T08:05:12.000Z</time>
      </trkpt>
      <trkpt lat="44.12852" lon="7.29699">
        <ele>2067</ele>
        <time>2014-02-23T08:05:28.000Z</time>
      </trkpt>
      <trkpt lat="44.12862" lon="7.29701">
        <ele>2070</ele>
        <time>2014-02-23T08:05:46.000Z</time>
      </trkpt>
      <trkpt lat="44.12866" lon="7.29715">
        <ele>2073</ele>
        <time>2014-02-23T08:06:02.000Z</time>
      </trkpt>
      <trkpt lat="44.12867" lon="7.29726">
        <ele>2076</ele>
        <time>2014-02-23T08:06:19.000Z</time>
      </trkpt>
      <trkpt lat="44.1287" lon="7.29729">
        <ele>2079.1999511719</ele>
        <time>2014-02-23T08:06:34.000Z</time>
      </trkpt>
      <trkpt lat="44.1288" lon="7.2972">
        <ele>2082.1999511719</ele>
        <time>2014-02-23T08:06:53.000Z</time>
      </trkpt>
      <trkpt lat="44.12881" lon="7.29717">
        <ele>2082.8000488281</ele>
        <time>2014-02-23T08:07:21.000Z</time>
      </trkpt>
      <trkpt lat="44.12883" lon="7.29727">
        <ele>2083.8000488281</ele>
        <time>2014-02-23T08:07:40.000Z</time>
      </trkpt>
      <trkpt lat="44.1288" lon="7.29744">
        <ele>2087</ele>
        <time>2014-02-23T08:07:56.000Z</time>
      </trkpt>
      <trkpt lat="44.12882" lon="7.29749">
        <ele>2090</ele>
        <time>2014-02-23T08:08:07.000Z</time>
      </trkpt>
      <trkpt lat="44.12892" lon="7.29751">
        <ele>2093</ele>
        <time>2014-02-23T08:08:26.000Z</time>
      </trkpt>
      <trkpt lat="44.12893" lon="7.2975">
        <ele>2093</ele>
        <time>2014-02-23T08:08:56.000Z</time>
      </trkpt>
      <trkpt lat="44.12892" lon="7.29749">
        <ele>2092.8000488281</ele>
        <time>2014-02-23T08:09:21.000Z</time>
      </trkpt>
      <trkpt lat="44.12894" lon="7.29753">
        <ele>2093.6000976562</ele>
        <time>2014-02-23T08:09:48.000Z</time>
      </trkpt>
      <trkpt lat="44.12904" lon="7.29761">
        <ele>2096.8000488281</ele>
        <time>2014-02-23T08:10:01.000Z</time>
      </trkpt>
      <trkpt lat="44.12912" lon="7.29767">
        <ele>2100</ele>
        <time>2014-02-23T08:10:15.000Z</time>
      </trkpt>
      <trkpt lat="44.12921" lon="7.29774">
        <ele>2103.3999023438</ele>
        <time>2014-02-23T08:10:32.000Z</time>
      </trkpt>
      <trkpt lat="44.12927" lon="7.2978">
        <ele>2106.6000976562</ele>
        <time>2014-02-23T08:10:44.000Z</time>
      </trkpt>
      <trkpt lat="44.12933" lon="7.29788">
        <ele>2109.8000488281</ele>
        <time>2014-02-23T08:10:59.000Z</time>
      </trkpt>
      <trkpt lat="44.12938" lon="7.29793">
        <ele>2112.8000488281</ele>
        <time>2014-02-23T08:11:12.000Z</time>
      </trkpt>
      <trkpt lat="44.12945" lon="7.29794">
        <ele>2116</ele>
        <time>2014-02-23T08:11:26.000Z</time>
      </trkpt>
      <trkpt lat="44.12949" lon="7.29801">
        <ele>2119.1999511719</ele>
        <time>2014-02-23T08:11:40.000Z</time>
      </trkpt>
      <trkpt lat="44.12956" lon="7.29806">
        <ele>2122.1999511719</ele>
        <time>2014-02-23T08:11:52.000Z</time>
      </trkpt>
      <trkpt lat="44.12964" lon="7.29802">
        <ele>2125.3999023438</ele>
        <time>2014-02-23T08:12:06.000Z</time>
      </trkpt>
      <trkpt lat="44.12973" lon="7.29799">
        <ele>2128.6000976562</ele>
        <time>2014-02-23T08:12:20.000Z</time>
      </trkpt>
      <trkpt lat="44.12982" lon="7.298">
        <ele>2131.6000976562</ele>
        <time>2014-02-23T08:12:33.000Z</time>
      </trkpt>
      <trkpt lat="44.1299" lon="7.29806">
        <ele>2134.6000976562</ele>
        <time>2014-02-23T08:12:48.000Z</time>
      </trkpt>
      <trkpt lat="44.12996" lon="7.29813">
        <ele>2137.8000488281</ele>
        <time>2014-02-23T08:12:59.000Z</time>
      </trkpt>
      <trkpt lat="44.13003" lon="7.29819">
        <ele>2140.8000488281</ele>
        <time>2014-02-23T08:13:12.000Z</time>
      </trkpt>
      <trkpt lat="44.13013" lon="7.29827">
        <ele>2143.8000488281</ele>
        <time>2014-02-23T08:13:26.000Z</time>
      </trkpt>
      <trkpt lat="44.1302" lon="7.29827">
        <ele>2146.8000488281</ele>
        <time>2014-02-23T08:13:40.000Z</time>
      </trkpt>
      <trkpt lat="44.1302" lon="7.29837">
        <ele>2149.8000488281</ele>
        <time>2014-02-23T08:13:54.000Z</time>
      </trkpt>
      <trkpt lat="44.13019" lon="7.29848">
        <ele>2152.8000488281</ele>
        <time>2014-02-23T08:14:06.000Z</time>
      </trkpt>
      <trkpt lat="44.13019" lon="7.29854">
        <ele>2155.8000488281</ele>
        <time>2014-02-23T08:14:16.000Z</time>
      </trkpt>
      <trkpt lat="44.1303" lon="7.29856">
        <ele>2158.8000488281</ele>
        <time>2014-02-23T08:14:30.000Z</time>
      </trkpt>
      <trkpt lat="44.13035" lon="7.2986">
        <ele>2162</ele>
        <time>2014-02-23T08:14:42.000Z</time>
      </trkpt>
      <trkpt lat="44.13042" lon="7.29868">
        <ele>2165</ele>
        <time>2014-02-23T08:14:57.000Z</time>
      </trkpt>
      <trkpt lat="44.1305" lon="7.2988">
        <ele>2168.1999511719</ele>
        <time>2014-02-23T08:15:11.000Z</time>
      </trkpt>
      <trkpt lat="44.13055" lon="7.29888">
        <ele>2171.3999023438</ele>
        <time>2014-02-23T08:15:24.000Z</time>
      </trkpt>
      <trkpt lat="44.13061" lon="7.29893">
        <ele>2174.3999023438</ele>
        <time>2014-02-23T08:15:36.000Z</time>
      </trkpt>
      <trkpt lat="44.13064" lon="7.29903">
        <ele>2177.6000976562</ele>
        <time>2014-02-23T08:15:51.000Z</time>
      </trkpt>
      <trkpt lat="44.13059" lon="7.29912">
        <ele>2180.6000976562</ele>
        <time>2014-02-23T08:16:03.000Z</time>
      </trkpt>
      <trkpt lat="44.13056" lon="7.29916">
        <ele>2184.1999511719</ele>
        <time>2014-02-23T08:16:17.000Z</time>
      </trkpt>
      <trkpt lat="44.13064" lon="7.29926">
        <ele>2187.1999511719</ele>
        <time>2014-02-23T08:16:32.000Z</time>
      </trkpt>
      <trkpt lat="44.13072" lon="7.29935">
        <ele>2190.3999023438</ele>
        <time>2014-02-23T08:16:45.000Z</time>
      </trkpt>
      <trkpt lat="44.13077" lon="7.29942">
        <ele>2193.6000976562</ele>
        <time>2014-02-23T08:16:55.000Z</time>
      </trkpt>
      <trkpt lat="44.13077" lon="7.29951">
        <ele>2196.6000976562</ele>
        <time>2014-02-23T08:17:06.000Z</time>
      </trkpt>
      <trkpt lat="44.13078" lon="7.29954">
        <ele>2197.1999511719</ele>
        <time>2014-02-23T08:17:32.000Z</time>
      </trkpt>
      <trkpt lat="44.1308" lon="7.29953">
        <ele>2197.8000488281</ele>
        <time>2014-02-23T08:18:00.000Z</time>
      </trkpt>
      <trkpt lat="44.13079" lon="7.2995">
        <ele>2198.1999511719</ele>
        <time>2014-02-23T08:18:32.000Z</time>
      </trkpt>
      <trkpt lat="44.1308" lon="7.2995">
        <ele>2198</ele>
        <time>2014-02-23T08:18:59.000Z</time>
      </trkpt>
      <trkpt lat="44.1308" lon="7.29949">
        <ele>2198.6000976562</ele>
        <time>2014-02-23T08:19:26.000Z</time>
      </trkpt>
      <trkpt lat="44.13079" lon="7.29949">
        <ele>2198.3999023438</ele>
        <time>2014-02-23T08:19:53.000Z</time>
      </trkpt>
      <trkpt lat="44.13079" lon="7.29948">
        <ele>2199</ele>
        <time>2014-02-23T08:20:24.000Z</time>
      </trkpt>
      <trkpt lat="44.13079" lon="7.29947">
        <ele>2198.6000976562</ele>
        <time>2014-02-23T08:20:52.000Z</time>
      </trkpt>
      <trkpt lat="44.13079" lon="7.29948">
        <ele>2198.6000976562</ele>
        <time>2014-02-23T08:21:20.000Z</time>
      </trkpt>
      <trkpt lat="44.13079" lon="7.29948">
        <ele>2198.8000488281</ele>
        <time>2014-02-23T08:21:50.000Z</time>
      </trkpt>
      <trkpt lat="44.13079" lon="7.29948">
        <ele>2198.6000976562</ele>
        <time>2014-02-23T08:22:18.000Z</time>
      </trkpt>
      <trkpt lat="44.13078" lon="7.29949">
        <ele>2199</ele>
        <time>2014-02-23T08:22:43.000Z</time>
      </trkpt>
      <trkpt lat="44.13078" lon="7.29949">
        <ele>2199</ele>
        <time>2014-02-23T08:23:12.000Z</time>
      </trkpt>
      <trkpt lat="44.13079" lon="7.29949">
        <ele>2199.1999511719</ele>
        <time>2014-02-23T08:23:35.000Z</time>
      </trkpt>
      <trkpt lat="44.13078" lon="7.29947">
        <ele>2198.8000488281</ele>
        <time>2014-02-23T08:24:00.000Z</time>
      </trkpt>
      <trkpt lat="44.13076" lon="7.29947">
        <ele>2199.3999023438</ele>
        <time>2014-02-23T08:24:24.000Z</time>
      </trkpt>
      <trkpt lat="44.13078" lon="7.29948">
        <ele>2199</ele>
        <time>2014-02-23T08:24:53.000Z</time>
      </trkpt>
      <trkpt lat="44.13078" lon="7.29949">
        <ele>2199.8000488281</ele>
        <time>2014-02-23T08:25:18.000Z</time>
      </trkpt>
      <trkpt lat="44.13079" lon="7.29948">
        <ele>2199.3999023438</ele>
        <time>2014-02-23T08:25:41.000Z</time>
      </trkpt>
      <trkpt lat="44.13079" lon="7.29947">
        <ele>2199.6000976562</ele>
        <time>2014-02-23T08:26:10.000Z</time>
      </trkpt>
      <trkpt lat="44.13079" lon="7.29948">
        <ele>2199.6000976562</ele>
        <time>2014-02-23T08:26:39.000Z</time>
      </trkpt>
      <trkpt lat="44.13079" lon="7.29948">
        <ele>2199.6000976562</ele>
        <time>2014-02-23T08:27:02.000Z</time>
      </trkpt>
      <trkpt lat="44.1308" lon="7.29949">
        <ele>2199.8000488281</ele>
        <time>2014-02-23T08:27:31.000Z</time>
      </trkpt>
      <trkpt lat="44.13082" lon="7.29948">
        <ele>2199.8000488281</ele>
        <time>2014-02-23T08:27:56.000Z</time>
      </trkpt>
      <trkpt lat="44.13082" lon="7.29948">
        <ele>2199.8000488281</ele>
        <time>2014-02-23T08:28:24.000Z</time>
      </trkpt>
      <trkpt lat="44.13082" lon="7.29947">
        <ele>2200</ele>
        <time>2014-02-23T08:28:52.000Z</time>
      </trkpt>
      <trkpt lat="44.13081" lon="7.29947">
        <ele>2200</ele>
        <time>2014-02-23T08:29:20.000Z</time>
      </trkpt>
      <trkpt lat="44.1308" lon="7.29949">
        <ele>2200.1999511719</ele>
        <time>2014-02-23T08:29:46.000Z</time>
      </trkpt>
      <trkpt lat="44.1308" lon="7.29948">
        <ele>2200.1999511719</ele>
        <time>2014-02-23T08:30:11.000Z</time>
      </trkpt>
      <trkpt lat="44.1308" lon="7.29948">
        <ele>2200.3999023438</ele>
        <time>2014-02-23T08:30:42.000Z</time>
      </trkpt>
      <trkpt lat="44.13085" lon="7.29959">
        <ele>2200.6000976562</ele>
        <time>2014-02-23T08:31:06.000Z</time>
      </trkpt>
      <trkpt lat="44.13094" lon="7.29973">
        <ele>2201.6000976562</ele>
        <time>2014-02-23T08:31:18.000Z</time>
      </trkpt>
      <trkpt lat="44.13105" lon="7.29985">
        <ele>2202.3999023438</ele>
        <time>2014-02-23T08:31:33.000Z</time>
      </trkpt>
      <trkpt lat="44.13118" lon="7.3">
        <ele>2205</ele>
        <time>2014-02-23T08:31:54.000Z</time>
      </trkpt>
      <trkpt lat="44.13127" lon="7.30016">
        <ele>2205.3999023438</ele>
        <time>2014-02-23T08:32:09.000Z</time>
      </trkpt>
      <trkpt lat="44.13138" lon="7.30028">
        <ele>2206.6000976562</ele>
        <time>2014-02-23T08:32:25.000Z</time>
      </trkpt>
      <trkpt lat="44.13153" lon="7.30035">
        <ele>2208</ele>
        <time>2014-02-23T08:32:39.000Z</time>
      </trkpt>
      <trkpt lat="44.13167" lon="7.30038">
        <ele>2209.6000976562</ele>
        <time>2014-02-23T08:32:53.000Z</time>
      </trkpt>
      <trkpt lat="44.13168" lon="7.30039">
        <ele>2209.8000488281</ele>
        <time>2014-02-23T08:32:54.000Z</time>
      </trkpt>
      <trkpt lat="44.1317" lon="7.3004">
        <ele>2209.6000976562</ele>
        <time>2014-02-23T08:32:56.000Z</time>
      </trkpt>
      <trkpt lat="44.13184" lon="7.30042">
        <ele>2210.8000488281</ele>
        <time>2014-02-23T08:33:09.000Z</time>
      </trkpt>
      <trkpt lat="44.13199" lon="7.30046">
        <ele>2212.8000488281</ele>
        <time>2014-02-23T08:33:25.000Z</time>
      </trkpt>
      <trkpt lat="44.13215" lon="7.30049">
        <ele>2215.3999023438</ele>
        <time>2014-02-23T08:33:43.000Z</time>
      </trkpt>
      <trkpt lat="44.13228" lon="7.30052">
        <ele>2218</ele>
        <time>2014-02-23T08:33:59.000Z</time>
      </trkpt>
      <trkpt lat="44.1324" lon="7.30052">
        <ele>2221.1999511719</ele>
        <time>2014-02-23T08:34:13.000Z</time>
      </trkpt>
      <trkpt lat="44.13253" lon="7.30053">
        <ele>2224.3999023438</ele>
        <time>2014-02-23T08:34:29.000Z</time>
      </trkpt>
      <trkpt lat="44.13267" lon="7.30052">
        <ele>2227</ele>
        <time>2014-02-23T08:34:45.000Z</time>
      </trkpt>
      <trkpt lat="44.1328" lon="7.30051">
        <ele>2229.6000976562</ele>
        <time>2014-02-23T08:35:00.000Z</time>
      </trkpt>
      <trkpt lat="44.13293" lon="7.30051">
        <ele>2232.6000976562</ele>
        <time>2014-02-23T08:35:16.000Z</time>
      </trkpt>
      <trkpt lat="44.13307" lon="7.30049">
        <ele>2235.6000976562</ele>
        <time>2014-02-23T08:35:33.000Z</time>
      </trkpt>
      <trkpt lat="44.1332" lon="7.30046">
        <ele>2238.6000976562</ele>
        <time>2014-02-23T08:35:49.000Z</time>
      </trkpt>
      <trkpt lat="44.13334" lon="7.30045">
        <ele>2241.8000488281</ele>
        <time>2014-02-23T08:36:05.000Z</time>
      </trkpt>
      <trkpt lat="44.13347" lon="7.30041">
        <ele>2245</ele>
        <time>2014-02-23T08:36:22.000Z</time>
      </trkpt>
      <trkpt lat="44.13365" lon="7.30034">
        <ele>2248</ele>
        <time>2014-02-23T08:36:43.000Z</time>
      </trkpt>
      <trkpt lat="44.13384" lon="7.3003">
        <ele>2250.3999023438</ele>
        <time>2014-02-23T08:37:02.000Z</time>
      </trkpt>
      <trkpt lat="44.13399" lon="7.30027">
        <ele>2252.1999511719</ele>
        <time>2014-02-23T08:37:19.000Z</time>
      </trkpt>
      <trkpt lat="44.13419" lon="7.30029">
        <ele>2255.3999023438</ele>
        <time>2014-02-23T08:37:37.000Z</time>
      </trkpt>
      <trkpt lat="44.13439" lon="7.30029">
        <ele>2258.6000976562</ele>
        <time>2014-02-23T08:37:57.000Z</time>
      </trkpt>
      <trkpt lat="44.13448" lon="7.3003">
        <ele>2261.6000976562</ele>
        <time>2014-02-23T08:38:08.000Z</time>
      </trkpt>
      <trkpt lat="44.13459" lon="7.30031">
        <ele>2265</ele>
        <time>2014-02-23T08:38:19.000Z</time>
      </trkpt>
      <trkpt lat="44.13468" lon="7.30031">
        <ele>2268</ele>
        <time>2014-02-23T08:38:33.000Z</time>
      </trkpt>
      <trkpt lat="44.13481" lon="7.3003">
        <ele>2271.1999511719</ele>
        <time>2014-02-23T08:38:48.000Z</time>
      </trkpt>
      <trkpt lat="44.13499" lon="7.30034">
        <ele>2274.1999511719</ele>
        <time>2014-02-23T08:39:07.000Z</time>
      </trkpt>
      <trkpt lat="44.13516" lon="7.30039">
        <ele>2277.3999023438</ele>
        <time>2014-02-23T08:39:25.000Z</time>
      </trkpt>
      <trkpt lat="44.1353" lon="7.30043">
        <ele>2280.3999023438</ele>
        <time>2014-02-23T08:39:41.000Z</time>
      </trkpt>
      <trkpt lat="44.13542" lon="7.30049">
        <ele>2283.6000976562</ele>
        <time>2014-02-23T08:39:57.000Z</time>
      </trkpt>
      <trkpt lat="44.13555" lon="7.30052">
        <ele>2286.6000976562</ele>
        <time>2014-02-23T08:40:10.000Z</time>
      </trkpt>
      <trkpt lat="44.13569" lon="7.30055">
        <ele>2289.6000976562</ele>
        <time>2014-02-23T08:40:26.000Z</time>
      </trkpt>
      <trkpt lat="44.13586" lon="7.30063">
        <ele>2292.8000488281</ele>
        <time>2014-02-23T08:40:45.000Z</time>
      </trkpt>
      <trkpt lat="44.13603" lon="7.30069">
        <ele>2296</ele>
        <time>2014-02-23T08:41:04.000Z</time>
      </trkpt>
      <trkpt lat="44.13619" lon="7.30073">
        <ele>2299</ele>
        <time>2014-02-23T08:41:20.000Z</time>
      </trkpt>
      <trkpt lat="44.13632" lon="7.3008">
        <ele>2302.1999511719</ele>
        <time>2014-02-23T08:41:34.000Z</time>
      </trkpt>
      <trkpt lat="44.13646" lon="7.30089">
        <ele>2305.1999511719</ele>
        <time>2014-02-23T08:41:51.000Z</time>
      </trkpt>
      <trkpt lat="44.13658" lon="7.301">
        <ele>2308.1999511719</ele>
        <time>2014-02-23T08:42:05.000Z</time>
      </trkpt>
      <trkpt lat="44.13669" lon="7.30111">
        <ele>2311.3999023438</ele>
        <time>2014-02-23T08:42:21.000Z</time>
      </trkpt>
      <trkpt lat="44.13679" lon="7.30119">
        <ele>2314.6000976562</ele>
        <time>2014-02-23T08:42:34.000Z</time>
      </trkpt>
      <trkpt lat="44.13686" lon="7.30128">
        <ele>2317.6000976562</ele>
        <time>2014-02-23T08:42:48.000Z</time>
      </trkpt>
      <trkpt lat="44.13694" lon="7.30138">
        <ele>2320.8000488281</ele>
        <time>2014-02-23T08:43:02.000Z</time>
      </trkpt>
      <trkpt lat="44.13701" lon="7.30148">
        <ele>2324</ele>
        <time>2014-02-23T08:43:16.000Z</time>
      </trkpt>
      <trkpt lat="44.13714" lon="7.30155">
        <ele>2327</ele>
        <time>2014-02-23T08:43:31.000Z</time>
      </trkpt>
      <trkpt lat="44.13724" lon="7.30161">
        <ele>2330.1999511719</ele>
        <time>2014-02-23T08:43:44.000Z</time>
      </trkpt>
      <trkpt lat="44.13733" lon="7.30168">
        <ele>2333.3999023438</ele>
        <time>2014-02-23T08:43:58.000Z</time>
      </trkpt>
      <trkpt lat="44.13743" lon="7.30172">
        <ele>2336.6000976562</ele>
        <time>2014-02-23T08:44:12.000Z</time>
      </trkpt>
      <trkpt lat="44.13753" lon="7.30176">
        <ele>2339.6000976562</ele>
        <time>2014-02-23T08:44:25.000Z</time>
      </trkpt>
      <trkpt lat="44.13766" lon="7.30179">
        <ele>2342.6000976562</ele>
        <time>2014-02-23T08:44:40.000Z</time>
      </trkpt>
      <trkpt lat="44.13779" lon="7.30182">
        <ele>2345.6000976562</ele>
        <time>2014-02-23T08:44:57.000Z</time>
      </trkpt>
      <trkpt lat="44.13791" lon="7.30181">
        <ele>2348.8000488281</ele>
        <time>2014-02-23T08:45:11.000Z</time>
      </trkpt>
      <trkpt lat="44.13798" lon="7.30178">
        <ele>2351.8000488281</ele>
        <time>2014-02-23T08:45:23.000Z</time>
      </trkpt>
      <trkpt lat="44.13805" lon="7.30174">
        <ele>2355</ele>
        <time>2014-02-23T08:45:36.000Z</time>
      </trkpt>
      <trkpt lat="44.13813" lon="7.30175">
        <ele>2358</ele>
        <time>2014-02-23T08:45:54.000Z</time>
      </trkpt>
      <trkpt lat="44.1382" lon="7.30179">
        <ele>2361</ele>
        <time>2014-02-23T08:46:06.000Z</time>
      </trkpt>
      <trkpt lat="44.13829" lon="7.30182">
        <ele>2364.1999511719</ele>
        <time>2014-02-23T08:46:20.000Z</time>
      </trkpt>
      <trkpt lat="44.13837" lon="7.30189">
        <ele>2367.1999511719</ele>
        <time>2014-02-23T08:46:35.000Z</time>
      </trkpt>
      <trkpt lat="44.13848" lon="7.30197">
        <ele>2370.3999023438</ele>
        <time>2014-02-23T08:46:55.000Z</time>
      </trkpt>
      <trkpt lat="44.13861" lon="7.30204">
        <ele>2373.6000976562</ele>
        <time>2014-02-23T08:47:13.000Z</time>
      </trkpt>
      <trkpt lat="44.13865" lon="7.30203">
        <ele>2376.6000976562</ele>
        <time>2014-02-23T08:47:34.000Z</time>
      </trkpt>
      <trkpt lat="44.13864" lon="7.30199">
        <ele>2377.1999511719</ele>
        <time>2014-02-23T08:47:52.000Z</time>
      </trkpt>
      <trkpt lat="44.13863" lon="7.30201">
        <ele>2377.1999511719</ele>
        <time>2014-02-23T08:47:56.000Z</time>
      </trkpt>
      <trkpt lat="44.13859" lon="7.30203">
        <ele>2374</ele>
        <time>2014-02-23T08:48:01.000Z</time>
      </trkpt>
      <trkpt lat="44.13859" lon="7.30199">
        <ele>2374.6000976562</ele>
        <time>2014-02-23T08:48:22.000Z</time>
      </trkpt>
      <trkpt lat="44.13866" lon="7.30201">
        <ele>2377</ele>
        <time>2014-02-23T08:48:42.000Z</time>
      </trkpt>
      <trkpt lat="44.13868" lon="7.30199">
        <ele>2378.8000488281</ele>
        <time>2014-02-23T08:49:06.000Z</time>
      </trkpt>
      <trkpt lat="44.13873" lon="7.30204">
        <ele>2381.8000488281</ele>
        <time>2014-02-23T08:49:23.000Z</time>
      </trkpt>
      <trkpt lat="44.13881" lon="7.30214">
        <ele>2385</ele>
        <time>2014-02-23T08:49:38.000Z</time>
      </trkpt>
      <trkpt lat="44.13889" lon="7.30217">
        <ele>2388.1999511719</ele>
        <time>2014-02-23T08:49:49.000Z</time>
      </trkpt>
      <trkpt lat="44.13897" lon="7.30217">
        <ele>2391.3999023438</ele>
        <time>2014-02-23T08:50:02.000Z</time>
      </trkpt>
      <trkpt lat="44.13907" lon="7.30215">
        <ele>2394.3999023438</ele>
        <time>2014-02-23T08:50:15.000Z</time>
      </trkpt>
      <trkpt lat="44.13917" lon="7.30212">
        <ele>2397.6000976562</ele>
        <time>2014-02-23T08:50:30.000Z</time>
      </trkpt>
      <trkpt lat="44.13926" lon="7.3021">
        <ele>2399.3999023438</ele>
        <time>2014-02-23T08:50:51.000Z</time>
      </trkpt>
      <trkpt lat="44.13926" lon="7.30208">
        <ele>2399.3999023438</ele>
        <time>2014-02-23T08:51:17.000Z</time>
      </trkpt>
      <trkpt lat="44.13926" lon="7.30207">
        <ele>2398.8000488281</ele>
        <time>2014-02-23T08:51:46.000Z</time>
      </trkpt>
      <trkpt lat="44.13927" lon="7.30206">
        <ele>2399.1999511719</ele>
        <time>2014-02-23T08:52:12.000Z</time>
      </trkpt>
      <trkpt lat="44.13927" lon="7.30206">
        <ele>2399.1999511719</ele>
        <time>2014-02-23T08:52:39.000Z</time>
      </trkpt>
      <trkpt lat="44.13928" lon="7.30208">
        <ele>2399.1999511719</ele>
        <time>2014-02-23T08:53:06.000Z</time>
      </trkpt>
      <trkpt lat="44.13929" lon="7.30208">
        <ele>2398.8000488281</ele>
        <time>2014-02-23T08:53:30.000Z</time>
      </trkpt>
      <trkpt lat="44.13929" lon="7.30208">
        <ele>2398.6000976562</ele>
        <time>2014-02-23T08:53:56.000Z</time>
      </trkpt>
      <trkpt lat="44.1393" lon="7.30206">
        <ele>2399.1999511719</ele>
        <time>2014-02-23T08:54:28.000Z</time>
      </trkpt>
      <trkpt lat="44.13929" lon="7.30207">
        <ele>2398.8000488281</ele>
        <time>2014-02-23T08:55:00.000Z</time>
      </trkpt>
      <trkpt lat="44.13928" lon="7.30206">
        <ele>2399</ele>
        <time>2014-02-23T08:55:31.000Z</time>
      </trkpt>
      <trkpt lat="44.13927" lon="7.30205">
        <ele>2399</ele>
        <time>2014-02-23T08:55:56.000Z</time>
      </trkpt>
      <trkpt lat="44.13928" lon="7.30205">
        <ele>2398.6000976562</ele>
        <time>2014-02-23T08:56:21.000Z</time>
      </trkpt>
      <trkpt lat="44.13928" lon="7.30205">
        <ele>2398.3999023438</ele>
        <time>2014-02-23T08:56:52.000Z</time>
      </trkpt>
      <trkpt lat="44.13928" lon="7.30205">
        <ele>2398.6000976562</ele>
        <time>2014-02-23T08:57:19.000Z</time>
      </trkpt>
      <trkpt lat="44.13928" lon="7.30205">
        <ele>2398.1999511719</ele>
        <time>2014-02-23T08:57:40.000Z</time>
      </trkpt>
      <trkpt lat="44.13929" lon="7.30202">
        <ele>2398.8000488281</ele>
        <time>2014-02-23T08:58:07.000Z</time>
      </trkpt>
      <trkpt lat="44.13929" lon="7.30201">
        <ele>2398.3999023438</ele>
        <time>2014-02-23T08:58:34.000Z</time>
      </trkpt>
      <trkpt lat="44.13929" lon="7.30202">
        <ele>2398.8000488281</ele>
        <time>2014-02-23T08:59:00.000Z</time>
      </trkpt>
      <trkpt lat="44.13929" lon="7.30202">
        <ele>2398.6000976562</ele>
        <time>2014-02-23T08:59:27.000Z</time>
      </trkpt>
      <trkpt lat="44.13928" lon="7.30202">
        <ele>2398.6000976562</ele>
        <time>2014-02-23T08:59:51.000Z</time>
      </trkpt>
      <trkpt lat="44.13928" lon="7.30203">
        <ele>2398.3999023438</ele>
        <time>2014-02-23T09:00:21.000Z</time>
      </trkpt>
      <trkpt lat="44.13927" lon="7.30203">
        <ele>2398.1999511719</ele>
        <time>2014-02-23T09:00:44.000Z</time>
      </trkpt>
      <trkpt lat="44.13927" lon="7.30204">
        <ele>2398.1999511719</ele>
        <time>2014-02-23T09:01:14.000Z</time>
      </trkpt>
      <trkpt lat="44.13927" lon="7.30203">
        <ele>2398.1999511719</ele>
        <time>2014-02-23T09:01:37.000Z</time>
      </trkpt>
      <trkpt lat="44.13927" lon="7.30202">
        <ele>2398.1999511719</ele>
        <time>2014-02-23T09:02:08.000Z</time>
      </trkpt>
      <trkpt lat="44.13926" lon="7.30203">
        <ele>2397.6000976562</ele>
        <time>2014-02-23T09:02:37.000Z</time>
      </trkpt>
      <trkpt lat="44.13926" lon="7.30203">
        <ele>2398</ele>
        <time>2014-02-23T09:03:01.000Z</time>
      </trkpt>
      <trkpt lat="44.13927" lon="7.30199">
        <ele>2398.1999511719</ele>
        <time>2014-02-23T09:03:24.000Z</time>
      </trkpt>
      <trkpt lat="44.13925" lon="7.30196">
        <ele>2398.6000976562</ele>
        <time>2014-02-23T09:03:42.000Z</time>
      </trkpt>
      <trkpt lat="44.13925" lon="7.30196">
        <ele>2398.8000488281</ele>
        <time>2014-02-23T09:04:11.000Z</time>
      </trkpt>
      <trkpt lat="44.13927" lon="7.30207">
        <ele>2398.6000976562</ele>
        <time>2014-02-23T09:04:32.000Z</time>
      </trkpt>
      <trkpt lat="44.13927" lon="7.30207">
        <ele>2398</ele>
        <time>2014-02-23T09:04:55.000Z</time>
      </trkpt>
      <trkpt lat="44.13927" lon="7.30207">
        <ele>2398.3999023438</ele>
        <time>2014-02-23T09:05:18.000Z</time>
      </trkpt>
      <trkpt lat="44.13926" lon="7.30208">
        <ele>2398.6000976562</ele>
        <time>2014-02-23T09:05:47.000Z</time>
      </trkpt>
      <trkpt lat="44.13928" lon="7.30209">
        <ele>2398.8000488281</ele>
        <time>2014-02-23T09:06:16.000Z</time>
      </trkpt>
      <trkpt lat="44.13928" lon="7.30208">
        <ele>2399</ele>
        <time>2014-02-23T09:06:45.000Z</time>
      </trkpt>
      <trkpt lat="44.13927" lon="7.30208">
        <ele>2399</ele>
        <time>2014-02-23T09:07:11.000Z</time>
      </trkpt>
      <trkpt lat="44.13927" lon="7.30209">
        <ele>2399.1999511719</ele>
        <time>2014-02-23T09:07:35.000Z</time>
      </trkpt>
      <trkpt lat="44.13928" lon="7.30209">
        <ele>2399</ele>
        <time>2014-02-23T09:08:00.000Z</time>
      </trkpt>
      <trkpt lat="44.13928" lon="7.30209">
        <ele>2399</ele>
        <time>2014-02-23T09:08:21.000Z</time>
      </trkpt>
      <trkpt lat="44.13928" lon="7.30209">
        <ele>2398.8000488281</ele>
        <time>2014-02-23T09:08:48.000Z</time>
      </trkpt>
      <trkpt lat="44.13928" lon="7.3021">
        <ele>2398.8000488281</ele>
        <time>2014-02-23T09:09:16.000Z</time>
      </trkpt>
      <trkpt lat="44.13928" lon="7.3021">
        <ele>2399</ele>
        <time>2014-02-23T09:09:43.000Z</time>
      </trkpt>
      <trkpt lat="44.13928" lon="7.3021">
        <ele>2399</ele>
        <time>2014-02-23T09:10:07.000Z</time>
      </trkpt>
      <trkpt lat="44.13927" lon="7.30208">
        <ele>2399</ele>
        <time>2014-02-23T09:10:35.000Z</time>
      </trkpt>
      <trkpt lat="44.13927" lon="7.30207">
        <ele>2399.1999511719</ele>
        <time>2014-02-23T09:11:00.000Z</time>
      </trkpt>
      <trkpt lat="44.13927" lon="7.30207">
        <ele>2399.1999511719</ele>
        <time>2014-02-23T09:11:24.000Z</time>
      </trkpt>
      <trkpt lat="44.13926" lon="7.30208">
        <ele>2399.1999511719</ele>
        <time>2014-02-23T09:11:54.000Z</time>
      </trkpt>
      <trkpt lat="44.13926" lon="7.30208">
        <ele>2399.3999023438</ele>
        <time>2014-02-23T09:12:21.000Z</time>
      </trkpt>
      <trkpt lat="44.13927" lon="7.30207">
        <ele>2399.3999023438</ele>
        <time>2014-02-23T09:12:41.000Z</time>
      </trkpt>
      <trkpt lat="44.13927" lon="7.30207">
        <ele>2399.6000976562</ele>
        <time>2014-02-23T09:13:02.000Z</time>
      </trkpt>
      <trkpt lat="44.13927" lon="7.30207">
        <ele>2398.6000976562</ele>
        <time>2014-02-23T09:13:23.000Z</time>
      </trkpt>
      <trkpt lat="44.13927" lon="7.3021">
        <ele>2399.3999023438</ele>
        <time>2014-02-23T09:13:48.000Z</time>
      </trkpt>
      <trkpt lat="44.13929" lon="7.30214">
        <ele>2399.8000488281</ele>
        <time>2014-02-23T09:14:15.000Z</time>
      </trkpt>
      <trkpt lat="44.13929" lon="7.30214">
        <ele>2400.1999511719</ele>
        <time>2014-02-23T09:14:45.000Z</time>
      </trkpt>
      <trkpt lat="44.13941" lon="7.30222">
        <ele>2402.8000488281</ele>
        <time>2014-02-23T09:15:06.000Z</time>
      </trkpt>
      <trkpt lat="44.13958" lon="7.30236">
        <ele>2405.8000488281</ele>
        <time>2014-02-23T09:15:31.000Z</time>
      </trkpt>
      <trkpt lat="44.1397" lon="7.30243">
        <ele>2408.8000488281</ele>
        <time>2014-02-23T09:15:48.000Z</time>
      </trkpt>
      <trkpt lat="44.13988" lon="7.30251">
        <ele>2411.6000976562</ele>
        <time>2014-02-23T09:16:10.000Z</time>
      </trkpt>
      <trkpt lat="44.14007" lon="7.30259">
        <ele>2414</ele>
        <time>2014-02-23T09:16:32.000Z</time>
      </trkpt>
      <trkpt lat="44.1402" lon="7.30262">
        <ele>2416.8000488281</ele>
        <time>2014-02-23T09:16:53.000Z</time>
      </trkpt>
      <trkpt lat="44.14033" lon="7.30266">
        <ele>2419.8000488281</ele>
        <time>2014-02-23T09:17:12.000Z</time>
      </trkpt>
      <trkpt lat="44.14047" lon="7.30268">
        <ele>2422.8000488281</ele>
        <time>2014-02-23T09:17:33.000Z</time>
      </trkpt>
      <trkpt lat="44.14059" lon="7.30273">
        <ele>2425.6000976562</ele>
        <time>2014-02-23T09:17:53.000Z</time>
      </trkpt>
      <trkpt lat="44.14076" lon="7.30278">
        <ele>2428.6000976562</ele>
        <time>2014-02-23T09:18:17.000Z</time>
      </trkpt>
      <trkpt lat="44.14092" lon="7.3028">
        <ele>2431.8000488281</ele>
        <time>2014-02-23T09:18:42.000Z</time>
      </trkpt>
      <trkpt lat="44.14105" lon="7.30279">
        <ele>2434.8000488281</ele>
        <time>2014-02-23T09:19:01.000Z</time>
      </trkpt>
      <trkpt lat="44.14117" lon="7.30277">
        <ele>2437.8000488281</ele>
        <time>2014-02-23T09:19:20.000Z</time>
      </trkpt>
      <trkpt lat="44.14129" lon="7.30281">
        <ele>2441</ele>
        <time>2014-02-23T09:19:38.000Z</time>
      </trkpt>
      <trkpt lat="44.1414" lon="7.30287">
        <ele>2444</ele>
        <time>2014-02-23T09:19:57.000Z</time>
      </trkpt>
      <trkpt lat="44.1415" lon="7.30293">
        <ele>2447.1999511719</ele>
        <time>2014-02-23T09:20:15.000Z</time>
      </trkpt>
      <trkpt lat="44.14159" lon="7.303">
        <ele>2450.1999511719</ele>
        <time>2014-02-23T09:20:34.000Z</time>
      </trkpt>
      <trkpt lat="44.14168" lon="7.30306">
        <ele>2453.1999511719</ele>
        <time>2014-02-23T09:20:51.000Z</time>
      </trkpt>
      <trkpt lat="44.1418" lon="7.30312">
        <ele>2456.3999023438</ele>
        <time>2014-02-23T09:21:11.000Z</time>
      </trkpt>
      <trkpt lat="44.14189" lon="7.30317">
        <ele>2459.3999023438</ele>
        <time>2014-02-23T09:21:28.000Z</time>
      </trkpt>
      <trkpt lat="44.14198" lon="7.3032">
        <ele>2462.3999023438</ele>
        <time>2014-02-23T09:21:45.000Z</time>
      </trkpt>
      <trkpt lat="44.14207" lon="7.30328">
        <ele>2465.6000976562</ele>
        <time>2014-02-23T09:22:03.000Z</time>
      </trkpt>
      <trkpt lat="44.14211" lon="7.30336">
        <ele>2468.8000488281</ele>
        <time>2014-02-23T09:22:18.000Z</time>
      </trkpt>
      <trkpt lat="44.14213" lon="7.30349">
        <ele>2471.8000488281</ele>
        <time>2014-02-23T09:22:36.000Z</time>
      </trkpt>
      <trkpt lat="44.14216" lon="7.30362">
        <ele>2474.8000488281</ele>
        <time>2014-02-23T09:22:53.000Z</time>
      </trkpt>
      <trkpt lat="44.14215" lon="7.30373">
        <ele>2478</ele>
        <time>2014-02-23T09:23:09.000Z</time>
      </trkpt>
      <trkpt lat="44.14215" lon="7.30379">
        <ele>2481.1999511719</ele>
        <time>2014-02-23T09:23:22.000Z</time>
      </trkpt>
      <trkpt lat="44.1422" lon="7.30378">
        <ele>2484.3999023438</ele>
        <time>2014-02-23T09:23:41.000Z</time>
      </trkpt>
      <trkpt lat="44.14232" lon="7.30377">
        <ele>2487.3999023438</ele>
        <time>2014-02-23T09:23:59.000Z</time>
      </trkpt>
      <trkpt lat="44.14241" lon="7.30376">
        <ele>2490.3999023438</ele>
        <time>2014-02-23T09:24:15.000Z</time>
      </trkpt>
      <trkpt lat="44.14248" lon="7.3038">
        <ele>2493.6000976562</ele>
        <time>2014-02-23T09:24:28.000Z</time>
      </trkpt>
      <trkpt lat="44.14249" lon="7.30392">
        <ele>2496.6000976562</ele>
        <time>2014-02-23T09:24:42.000Z</time>
      </trkpt>
      <trkpt lat="44.14248" lon="7.30404">
        <ele>2499.8000488281</ele>
        <time>2014-02-23T09:24:56.000Z</time>
      </trkpt>
      <trkpt lat="44.14245" lon="7.30416">
        <ele>2503</ele>
        <time>2014-02-23T09:25:10.000Z</time>
      </trkpt>
      <trkpt lat="44.14242" lon="7.30429">
        <ele>2506</ele>
        <time>2014-02-23T09:25:25.000Z</time>
      </trkpt>
      <trkpt lat="44.14239" lon="7.3044">
        <ele>2509.1999511719</ele>
        <time>2014-02-23T09:25:39.000Z</time>
      </trkpt>
      <trkpt lat="44.14234" lon="7.30445">
        <ele>2512.1999511719</ele>
        <time>2014-02-23T09:25:53.000Z</time>
      </trkpt>
      <trkpt lat="44.14231" lon="7.30452">
        <ele>2515.3999023438</ele>
        <time>2014-02-23T09:26:06.000Z</time>
      </trkpt>
      <trkpt lat="44.14233" lon="7.3046">
        <ele>2518.8000488281</ele>
        <time>2014-02-23T09:26:18.000Z</time>
      </trkpt>
      <trkpt lat="44.14235" lon="7.30474">
        <ele>2521.8000488281</ele>
        <time>2014-02-23T09:26:30.000Z</time>
      </trkpt>
      <trkpt lat="44.14233" lon="7.30487">
        <ele>2525</ele>
        <time>2014-02-23T09:26:45.000Z</time>
      </trkpt>
      <trkpt lat="44.14225" lon="7.30499">
        <ele>2528</ele>
        <time>2014-02-23T09:26:59.000Z</time>
      </trkpt>
      <trkpt lat="44.1422" lon="7.30512">
        <ele>2531</ele>
        <time>2014-02-23T09:27:14.000Z</time>
      </trkpt>
      <trkpt lat="44.14218" lon="7.3051">
        <ele>2531.6000976562</ele>
        <time>2014-02-23T09:27:36.000Z</time>
      </trkpt>
      <trkpt lat="44.14219" lon="7.3051">
        <ele>2532</ele>
        <time>2014-02-23T09:28:01.000Z</time>
      </trkpt>
      <trkpt lat="44.14219" lon="7.30508">
        <ele>2532.3999023438</ele>
        <time>2014-02-23T09:28:31.000Z</time>
      </trkpt>
      <trkpt lat="44.14219" lon="7.30508">
        <ele>2532.3999023438</ele>
        <time>2014-02-23T09:28:59.000Z</time>
      </trkpt>
      <trkpt lat="44.14219" lon="7.30511">
        <ele>2533.6000976562</ele>
        <time>2014-02-23T09:29:26.000Z</time>
      </trkpt>
      <trkpt lat="44.14213" lon="7.30522">
        <ele>2536.8000488281</ele>
        <time>2014-02-23T09:29:42.000Z</time>
      </trkpt>
      <trkpt lat="44.14209" lon="7.30534">
        <ele>2539.8000488281</ele>
        <time>2014-02-23T09:29:57.000Z</time>
      </trkpt>
      <trkpt lat="44.14203" lon="7.30547">
        <ele>2542.8000488281</ele>
        <time>2014-02-23T09:30:15.000Z</time>
      </trkpt>
      <trkpt lat="44.14193" lon="7.30566">
        <ele>2545.8000488281</ele>
        <time>2014-02-23T09:30:35.000Z</time>
      </trkpt>
      <trkpt lat="44.14183" lon="7.30586">
        <ele>2548.6000976562</ele>
        <time>2014-02-23T09:30:55.000Z</time>
      </trkpt>
      <trkpt lat="44.14169" lon="7.30601">
        <ele>2551.8000488281</ele>
        <time>2014-02-23T09:31:14.000Z</time>
      </trkpt>
      <trkpt lat="44.14152" lon="7.30616">
        <ele>2554.8000488281</ele>
        <time>2014-02-23T09:31:37.000Z</time>
      </trkpt>
      <trkpt lat="44.14134" lon="7.3062">
        <ele>2558</ele>
        <time>2014-02-23T09:31:58.000Z</time>
      </trkpt>
      <trkpt lat="44.14116" lon="7.30624">
        <ele>2561</ele>
        <time>2014-02-23T09:32:17.000Z</time>
      </trkpt>
      <trkpt lat="44.14105" lon="7.30631">
        <ele>2564.3999023438</ele>
        <time>2014-02-23T09:32:32.000Z</time>
      </trkpt>
      <trkpt lat="44.14105" lon="7.30643">
        <ele>2567.3999023438</ele>
        <time>2014-02-23T09:32:46.000Z</time>
      </trkpt>
      <trkpt lat="44.14101" lon="7.30654">
        <ele>2570.3999023438</ele>
        <time>2014-02-23T09:33:00.000Z</time>
      </trkpt>
      <trkpt lat="44.14097" lon="7.30667">
        <ele>2573.6000976562</ele>
        <time>2014-02-23T09:33:14.000Z</time>
      </trkpt>
      <trkpt lat="44.14094" lon="7.30671">
        <ele>2575.1999511719</ele>
        <time>2014-02-23T09:33:33.000Z</time>
      </trkpt>
      <trkpt lat="44.14093" lon="7.3067">
        <ele>2575.3999023438</ele>
        <time>2014-02-23T09:34:01.000Z</time>
      </trkpt>
      <trkpt lat="44.14094" lon="7.3067">
        <ele>2575.8000488281</ele>
        <time>2014-02-23T09:34:25.000Z</time>
      </trkpt>
      <trkpt lat="44.14094" lon="7.30677">
        <ele>2576.1999511719</ele>
        <time>2014-02-23T09:34:38.000Z</time>
      </trkpt>
      <trkpt lat="44.14088" lon="7.30692">
        <ele>2579.6000976562</ele>
        <time>2014-02-23T09:34:51.000Z</time>
      </trkpt>
      <trkpt lat="44.14078" lon="7.30713">
        <ele>2582.6000976562</ele>
        <time>2014-02-23T09:35:09.000Z</time>
      </trkpt>
      <trkpt lat="44.14073" lon="7.30731">
        <ele>2585.8000488281</ele>
        <time>2014-02-23T09:35:25.000Z</time>
      </trkpt>
      <trkpt lat="44.14071" lon="7.30746">
        <ele>2589</ele>
        <time>2014-02-23T09:35:39.000Z</time>
      </trkpt>
      <trkpt lat="44.14068" lon="7.30759">
        <ele>2592.1999511719</ele>
        <time>2014-02-23T09:35:54.000Z</time>
      </trkpt>
      <trkpt lat="44.14065" lon="7.30769">
        <ele>2595.1999511719</ele>
        <time>2014-02-23T09:36:09.000Z</time>
      </trkpt>
      <trkpt lat="44.14063" lon="7.3078">
        <ele>2598.3999023438</ele>
        <time>2014-02-23T09:36:24.000Z</time>
      </trkpt>
      <trkpt lat="44.1406" lon="7.30789">
        <ele>2601.3999023438</ele>
        <time>2014-02-23T09:36:39.000Z</time>
      </trkpt>
      <trkpt lat="44.14057" lon="7.30801">
        <ele>2604.6000976562</ele>
        <time>2014-02-23T09:36:53.000Z</time>
      </trkpt>
      <trkpt lat="44.14051" lon="7.30812">
        <ele>2607.6000976562</ele>
        <time>2014-02-23T09:37:09.000Z</time>
      </trkpt>
      <trkpt lat="44.14044" lon="7.30827">
        <ele>2610.6000976562</ele>
        <time>2014-02-23T09:37:26.000Z</time>
      </trkpt>
      <trkpt lat="44.14041" lon="7.3084">
        <ele>2613.6000976562</ele>
        <time>2014-02-23T09:37:42.000Z</time>
      </trkpt>
      <trkpt lat="44.14037" lon="7.30848">
        <ele>2616.8000488281</ele>
        <time>2014-02-23T09:37:56.000Z</time>
      </trkpt>
      <trkpt lat="44.14032" lon="7.30856">
        <ele>2619.8000488281</ele>
        <time>2014-02-23T09:38:11.000Z</time>
      </trkpt>
      <trkpt lat="44.14026" lon="7.30865">
        <ele>2623</ele>
        <time>2014-02-23T09:38:26.000Z</time>
      </trkpt>
      <trkpt lat="44.14022" lon="7.30875">
        <ele>2626</ele>
        <time>2014-02-23T09:38:41.000Z</time>
      </trkpt>
      <trkpt lat="44.14017" lon="7.30883">
        <ele>2629.1999511719</ele>
        <time>2014-02-23T09:38:56.000Z</time>
      </trkpt>
      <trkpt lat="44.14014" lon="7.30894">
        <ele>2632.1999511719</ele>
        <time>2014-02-23T09:39:11.000Z</time>
      </trkpt>
      <trkpt lat="44.14012" lon="7.30904">
        <ele>2635.6000976562</ele>
        <time>2014-02-23T09:39:25.000Z</time>
      </trkpt>
      <trkpt lat="44.14009" lon="7.30913">
        <ele>2638.6000976562</ele>
        <time>2014-02-23T09:39:39.000Z</time>
      </trkpt>
      <trkpt lat="44.14005" lon="7.30928">
        <ele>2641.8000488281</ele>
        <time>2014-02-23T09:39:55.000Z</time>
      </trkpt>
      <trkpt lat="44.14" lon="7.30943">
        <ele>2645</ele>
        <time>2014-02-23T09:40:13.000Z</time>
      </trkpt>
      <trkpt lat="44.13993" lon="7.30955">
        <ele>2648</ele>
        <time>2014-02-23T09:40:31.000Z</time>
      </trkpt>
      <trkpt lat="44.13988" lon="7.30965">
        <ele>2651.1999511719</ele>
        <time>2014-02-23T09:40:47.000Z</time>
      </trkpt>
      <trkpt lat="44.13984" lon="7.30977">
        <ele>2654.3999023438</ele>
        <time>2014-02-23T09:41:04.000Z</time>
      </trkpt>
      <trkpt lat="44.13982" lon="7.30989">
        <ele>2657.6000976562</ele>
        <time>2014-02-23T09:41:19.000Z</time>
      </trkpt>
      <trkpt lat="44.13979" lon="7.30999">
        <ele>2660.6000976562</ele>
        <time>2014-02-23T09:41:34.000Z</time>
      </trkpt>
      <trkpt lat="44.13974" lon="7.31009">
        <ele>2663.8000488281</ele>
        <time>2014-02-23T09:41:48.000Z</time>
      </trkpt>
      <trkpt lat="44.13972" lon="7.31016">
        <ele>2667</ele>
        <time>2014-02-23T09:42:02.000Z</time>
      </trkpt>
      <trkpt lat="44.13967" lon="7.31022">
        <ele>2670</ele>
        <time>2014-02-23T09:42:15.000Z</time>
      </trkpt>
      <trkpt lat="44.13964" lon="7.3103">
        <ele>2673</ele>
        <time>2014-02-23T09:42:28.000Z</time>
      </trkpt>
      <trkpt lat="44.13963" lon="7.31039">
        <ele>2676.1999511719</ele>
        <time>2014-02-23T09:42:41.000Z</time>
      </trkpt>
      <trkpt lat="44.13957" lon="7.31048">
        <ele>2679.1999511719</ele>
        <time>2014-02-23T09:42:56.000Z</time>
      </trkpt>
      <trkpt lat="44.13953" lon="7.31059">
        <ele>2682.3999023438</ele>
        <time>2014-02-23T09:43:09.000Z</time>
      </trkpt>
      <trkpt lat="44.1395" lon="7.31074">
        <ele>2685.6000976562</ele>
        <time>2014-02-23T09:43:27.000Z</time>
      </trkpt>
      <trkpt lat="44.1395" lon="7.31077">
        <ele>2686.6000976562</ele>
        <time>2014-02-23T09:43:48.000Z</time>
      </trkpt>
      <trkpt lat="44.13949" lon="7.31077">
        <ele>2686.6000976562</ele>
        <time>2014-02-23T09:44:12.000Z</time>
      </trkpt>
      <trkpt lat="44.1395" lon="7.31078">
        <ele>2686.3999023438</ele>
        <time>2014-02-23T09:44:44.000Z</time>
      </trkpt>
      <trkpt lat="44.1395" lon="7.31079">
        <ele>2686.8000488281</ele>
        <time>2014-02-23T09:45:09.000Z</time>
      </trkpt>
      <trkpt lat="44.13949" lon="7.31077">
        <ele>2687.3999023438</ele>
        <time>2014-02-23T09:45:31.000Z</time>
      </trkpt>
      <trkpt lat="44.13949" lon="7.31076">
        <ele>2687.6000976562</ele>
        <time>2014-02-23T09:45:56.000Z</time>
      </trkpt>
      <trkpt lat="44.13948" lon="7.31076">
        <ele>2687.1999511719</ele>
        <time>2014-02-23T09:46:25.000Z</time>
      </trkpt>
      <trkpt lat="44.13947" lon="7.31076">
        <ele>2687.8000488281</ele>
        <time>2014-02-23T09:46:53.000Z</time>
      </trkpt>
      <trkpt lat="44.13948" lon="7.31076">
        <ele>2688</ele>
        <time>2014-02-23T09:47:25.000Z</time>
      </trkpt>
      <trkpt lat="44.13949" lon="7.31075">
        <ele>2687.6000976562</ele>
        <time>2014-02-23T09:47:55.000Z</time>
      </trkpt>
      <trkpt lat="44.13948" lon="7.31077">
        <ele>2688</ele>
        <time>2014-02-23T09:48:21.000Z</time>
      </trkpt>
      <trkpt lat="44.13946" lon="7.31077">
        <ele>2688</ele>
        <time>2014-02-23T09:48:42.000Z</time>
      </trkpt>
      <trkpt lat="44.13948" lon="7.31077">
        <ele>2687.6000976562</ele>
        <time>2014-02-23T09:49:07.000Z</time>
      </trkpt>
      <trkpt lat="44.13949" lon="7.31076">
        <ele>2687.8000488281</ele>
        <time>2014-02-23T09:49:32.000Z</time>
      </trkpt>
      <trkpt lat="44.1395" lon="7.31076">
        <ele>2688</ele>
        <time>2014-02-23T09:49:59.000Z</time>
      </trkpt>
      <trkpt lat="44.13949" lon="7.31075">
        <ele>2688</ele>
        <time>2014-02-23T09:50:27.000Z</time>
      </trkpt>
      <trkpt lat="44.13949" lon="7.31074">
        <ele>2688.3999023438</ele>
        <time>2014-02-23T09:50:53.000Z</time>
      </trkpt>
      <trkpt lat="44.1395" lon="7.31075">
        <ele>2688.1999511719</ele>
        <time>2014-02-23T09:51:22.000Z</time>
      </trkpt>
      <trkpt lat="44.13951" lon="7.31074">
        <ele>2688.3999023438</ele>
        <time>2014-02-23T09:51:53.000Z</time>
      </trkpt>
      <trkpt lat="44.13951" lon="7.31076">
        <ele>2688.6000976562</ele>
        <time>2014-02-23T09:52:21.000Z</time>
      </trkpt>
      <trkpt lat="44.13951" lon="7.31076">
        <ele>2688.1999511719</ele>
        <time>2014-02-23T09:52:48.000Z</time>
      </trkpt>
      <trkpt lat="44.13952" lon="7.31077">
        <ele>2688.3999023438</ele>
        <time>2014-02-23T09:53:11.000Z</time>
      </trkpt>
      <trkpt lat="44.13951" lon="7.31079">
        <ele>2688.6000976562</ele>
        <time>2014-02-23T09:53:36.000Z</time>
      </trkpt>
      <trkpt lat="44.13951" lon="7.31078">
        <ele>2688.6000976562</ele>
        <time>2014-02-23T09:54:04.000Z</time>
      </trkpt>
      <trkpt lat="44.13951" lon="7.31079">
        <ele>2688.8000488281</ele>
        <time>2014-02-23T09:54:31.000Z</time>
      </trkpt>
      <trkpt lat="44.13951" lon="7.31079">
        <ele>2688.8000488281</ele>
        <time>2014-02-23T09:54:57.000Z</time>
      </trkpt>
      <trkpt lat="44.13949" lon="7.31078">
        <ele>2689</ele>
        <time>2014-02-23T09:55:24.000Z</time>
      </trkpt>
      <trkpt lat="44.1395" lon="7.31078">
        <ele>2689</ele>
        <time>2014-02-23T09:55:54.000Z</time>
      </trkpt>
      <trkpt lat="44.1395" lon="7.31077">
        <ele>2689</ele>
        <time>2014-02-23T09:56:21.000Z</time>
      </trkpt>
      <trkpt lat="44.1395" lon="7.31076">
        <ele>2689</ele>
        <time>2014-02-23T09:56:48.000Z</time>
      </trkpt>
      <trkpt lat="44.13949" lon="7.31075">
        <ele>2689.1999511719</ele>
        <time>2014-02-23T09:57:15.000Z</time>
      </trkpt>
      <trkpt lat="44.13949" lon="7.31075">
        <ele>2689</ele>
        <time>2014-02-23T09:57:43.000Z</time>
      </trkpt>
      <trkpt lat="44.13949" lon="7.31072">
        <ele>2689.1999511719</ele>
        <time>2014-02-23T09:58:12.000Z</time>
      </trkpt>
      <trkpt lat="44.13944" lon="7.31075">
        <ele>2689.1999511719</ele>
        <time>2014-02-23T09:58:42.000Z</time>
      </trkpt>
      <trkpt lat="44.13946" lon="7.31074">
        <ele>2689.1999511719</ele>
        <time>2014-02-23T09:59:04.000Z</time>
      </trkpt>
      <trkpt lat="44.13939" lon="7.31075">
        <ele>2689.1999511719</ele>
        <time>2014-02-23T09:59:10.000Z</time>
      </trkpt>
      <trkpt lat="44.13939" lon="7.31086">
        <ele>2690.8000488281</ele>
        <time>2014-02-23T09:59:33.000Z</time>
      </trkpt>
      <trkpt lat="44.13946" lon="7.3109">
        <ele>2692.3999023438</ele>
        <time>2014-02-23T09:59:43.000Z</time>
      </trkpt>
      <trkpt lat="44.13951" lon="7.31091">
        <ele>2692.8000488281</ele>
        <time>2014-02-23T09:59:53.000Z</time>
      </trkpt>
      <trkpt lat="44.13967" lon="7.31086">
        <ele>2696</ele>
        <time>2014-02-23T10:00:15.000Z</time>
      </trkpt>
      <trkpt lat="44.13974" lon="7.31091">
        <ele>2698.3999023438</ele>
        <time>2014-02-23T10:00:35.000Z</time>
      </trkpt>
      <trkpt lat="44.13976" lon="7.31094">
        <ele>2699.8000488281</ele>
        <time>2014-02-23T10:00:53.000Z</time>
      </trkpt>
      <trkpt lat="44.13974" lon="7.31093">
        <ele>2699</ele>
        <time>2014-02-23T10:01:17.000Z</time>
      </trkpt>
      <trkpt lat="44.13975" lon="7.31095">
        <ele>2699.3999023438</ele>
        <time>2014-02-23T10:01:42.000Z</time>
      </trkpt>
      <trkpt lat="44.13981" lon="7.31107">
        <ele>2702.3999023438</ele>
        <time>2014-02-23T10:01:59.000Z</time>
      </trkpt>
      <trkpt lat="44.13984" lon="7.31107">
        <ele>2703.3999023438</ele>
        <time>2014-02-23T10:02:03.000Z</time>
      </trkpt>
      <trkpt lat="44.13994" lon="7.31101">
        <ele>2706.8000488281</ele>
        <time>2014-02-23T10:02:20.000Z</time>
      </trkpt>
      <trkpt lat="44.14" lon="7.3111">
        <ele>2709.8000488281</ele>
        <time>2014-02-23T10:02:36.000Z</time>
      </trkpt>
      <trkpt lat="44.14003" lon="7.31123">
        <ele>2713</ele>
        <time>2014-02-23T10:02:57.000Z</time>
      </trkpt>
      <trkpt lat="44.14009" lon="7.31132">
        <ele>2716</ele>
        <time>2014-02-23T10:03:14.000Z</time>
      </trkpt>
      <trkpt lat="44.1402" lon="7.31137">
        <ele>2719</ele>
        <time>2014-02-23T10:03:31.000Z</time>
      </trkpt>
      <trkpt lat="44.14028" lon="7.31141">
        <ele>2722.1999511719</ele>
        <time>2014-02-23T10:03:48.000Z</time>
      </trkpt>
      <trkpt lat="44.14035" lon="7.31129">
        <ele>2725.1999511719</ele>
        <time>2014-02-23T10:04:06.000Z</time>
      </trkpt>
      <trkpt lat="44.14039" lon="7.31116">
        <ele>2728.1999511719</ele>
        <time>2014-02-23T10:04:21.000Z</time>
      </trkpt>
      <trkpt lat="44.14042" lon="7.31103">
        <ele>2731.3999023438</ele>
        <time>2014-02-23T10:04:36.000Z</time>
      </trkpt>
      <trkpt lat="44.14049" lon="7.311">
        <ele>2734.3999023438</ele>
        <time>2014-02-23T10:04:52.000Z</time>
      </trkpt>
      <trkpt lat="44.14056" lon="7.31104">
        <ele>2737.3999023438</ele>
        <time>2014-02-23T10:05:07.000Z</time>
      </trkpt>
      <trkpt lat="44.14063" lon="7.31107">
        <ele>2740.3999023438</ele>
        <time>2014-02-23T10:05:23.000Z</time>
      </trkpt>
      <trkpt lat="44.14073" lon="7.31118">
        <ele>2743.3999023438</ele>
        <time>2014-02-23T10:05:47.000Z</time>
      </trkpt>
      <trkpt lat="44.14081" lon="7.31128">
        <ele>2746.6000976562</ele>
        <time>2014-02-23T10:06:06.000Z</time>
      </trkpt>
      <trkpt lat="44.14091" lon="7.3113">
        <ele>2749.8000488281</ele>
        <time>2014-02-23T10:06:24.000Z</time>
      </trkpt>
      <trkpt lat="44.141" lon="7.31127">
        <ele>2753</ele>
        <time>2014-02-23T10:06:40.000Z</time>
      </trkpt>
      <trkpt lat="44.1411" lon="7.31126">
        <ele>2756</ele>
        <time>2014-02-23T10:06:56.000Z</time>
      </trkpt>
      <trkpt lat="44.1411" lon="7.31138">
        <ele>2759</ele>
        <time>2014-02-23T10:07:12.000Z</time>
      </trkpt>
      <trkpt lat="44.14116" lon="7.31147">
        <ele>2762.1999511719</ele>
        <time>2014-02-23T10:07:30.000Z</time>
      </trkpt>
      <trkpt lat="44.14124" lon="7.31147">
        <ele>2765.1999511719</ele>
        <time>2014-02-23T10:07:45.000Z</time>
      </trkpt>
      <trkpt lat="44.14129" lon="7.31139">
        <ele>2768.3999023438</ele>
        <time>2014-02-23T10:07:59.000Z</time>
      </trkpt>
      <trkpt lat="44.14133" lon="7.31129">
        <ele>2771.3999023438</ele>
        <time>2014-02-23T10:08:14.000Z</time>
      </trkpt>
      <trkpt lat="44.14136" lon="7.31119">
        <ele>2774.6000976562</ele>
        <time>2014-02-23T10:08:29.000Z</time>
      </trkpt>
      <trkpt lat="44.14141" lon="7.31127">
        <ele>2776.8000488281</ele>
        <time>2014-02-23T10:08:45.000Z</time>
      </trkpt>
      <trkpt lat="44.14146" lon="7.31137">
        <ele>2780</ele>
        <time>2014-02-23T10:09:02.000Z</time>
      </trkpt>
      <trkpt lat="44.14154" lon="7.31143">
        <ele>2783</ele>
        <time>2014-02-23T10:09:17.000Z</time>
      </trkpt>
      <trkpt lat="44.14162" lon="7.31148">
        <ele>2786.1999511719</ele>
        <time>2014-02-23T10:09:33.000Z</time>
      </trkpt>
      <trkpt lat="44.14169" lon="7.31153">
        <ele>2789.1999511719</ele>
        <time>2014-02-23T10:09:48.000Z</time>
      </trkpt>
      <trkpt lat="44.14177" lon="7.31155">
        <ele>2792.1999511719</ele>
        <time>2014-02-23T10:10:03.000Z</time>
      </trkpt>
      <trkpt lat="44.14175" lon="7.31145">
        <ele>2795</ele>
        <time>2014-02-23T10:10:19.000Z</time>
      </trkpt>
      <trkpt lat="44.14177" lon="7.3113">
        <ele>2798</ele>
        <time>2014-02-23T10:10:36.000Z</time>
      </trkpt>
      <trkpt lat="44.14187" lon="7.31129">
        <ele>2801.1999511719</ele>
        <time>2014-02-23T10:10:55.000Z</time>
      </trkpt>
      <trkpt lat="44.14196" lon="7.31132">
        <ele>2804.1999511719</ele>
        <time>2014-02-23T10:11:12.000Z</time>
      </trkpt>
      <trkpt lat="44.14198" lon="7.31123">
        <ele>2807.1999511719</ele>
        <time>2014-02-23T10:11:28.000Z</time>
      </trkpt>
      <trkpt lat="44.14202" lon="7.31112">
        <ele>2810.1999511719</ele>
        <time>2014-02-23T10:11:43.000Z</time>
      </trkpt>
      <trkpt lat="44.14204" lon="7.31102">
        <ele>2813.6000976562</ele>
        <time>2014-02-23T10:11:57.000Z</time>
      </trkpt>
      <trkpt lat="44.14206" lon="7.31091">
        <ele>2816.6000976562</ele>
        <time>2014-02-23T10:12:11.000Z</time>
      </trkpt>
      <trkpt lat="44.1421" lon="7.3108">
        <ele>2819.8000488281</ele>
        <time>2014-02-23T10:12:26.000Z</time>
      </trkpt>
      <trkpt lat="44.14215" lon="7.31073">
        <ele>2822.8000488281</ele>
        <time>2014-02-23T10:12:42.000Z</time>
      </trkpt>
      <trkpt lat="44.14221" lon="7.31084">
        <ele>2826</ele>
        <time>2014-02-23T10:12:58.000Z</time>
      </trkpt>
      <trkpt lat="44.14228" lon="7.31092">
        <ele>2829</ele>
        <time>2014-02-23T10:13:17.000Z</time>
      </trkpt>
      <trkpt lat="44.14233" lon="7.31083">
        <ele>2832.1999511719</ele>
        <time>2014-02-23T10:13:32.000Z</time>
      </trkpt>
      <trkpt lat="44.14233" lon="7.31067">
        <ele>2835.3999023438</ele>
        <time>2014-02-23T10:13:50.000Z</time>
      </trkpt>
      <trkpt lat="44.14241" lon="7.31061">
        <ele>2838.3999023438</ele>
        <time>2014-02-23T10:14:04.000Z</time>
      </trkpt>
      <trkpt lat="44.14251" lon="7.31058">
        <ele>2841.3999023438</ele>
        <time>2014-02-23T10:14:19.000Z</time>
      </trkpt>
      <trkpt lat="44.14262" lon="7.31051">
        <ele>2844.1999511719</ele>
        <time>2014-02-23T10:14:36.000Z</time>
      </trkpt>
      <trkpt lat="44.14266" lon="7.31049">
        <ele>2844.1999511719</ele>
        <time>2014-02-23T10:14:54.000Z</time>
      </trkpt>
      <trkpt lat="44.14266" lon="7.31048">
        <ele>2844.6000976562</ele>
        <time>2014-02-23T10:15:22.000Z</time>
      </trkpt>
      <trkpt lat="44.14267" lon="7.31048">
        <ele>2844.6000976562</ele>
        <time>2014-02-23T10:15:49.000Z</time>
      </trkpt>
      <trkpt lat="44.14286" lon="7.31033">
        <ele>2844.1999511719</ele>
        <time>2014-02-23T10:16:06.000Z</time>
      </trkpt>
      <trkpt lat="44.14294" lon="7.31026">
        <ele>2843.6000976562</ele>
        <time>2014-02-23T10:16:13.000Z</time>
      </trkpt>
      <trkpt lat="44.143" lon="7.31023">
        <ele>2843.8000488281</ele>
        <time>2014-02-23T10:16:18.000Z</time>
      </trkpt>
      <trkpt lat="44.14306" lon="7.3102">
        <ele>2844.6000976562</ele>
        <time>2014-02-23T10:16:25.000Z</time>
      </trkpt>
      <trkpt lat="44.14314" lon="7.31019">
        <ele>2845.8000488281</ele>
        <time>2014-02-23T10:16:33.000Z</time>
      </trkpt>
      <trkpt lat="44.14317" lon="7.31018">
        <ele>2846</ele>
        <time>2014-02-23T10:16:36.000Z</time>
      </trkpt>
      <trkpt lat="44.14329" lon="7.31018">
        <ele>2848.3999023438</ele>
        <time>2014-02-23T10:16:51.000Z</time>
      </trkpt>
      <trkpt lat="44.14342" lon="7.31021">
        <ele>2851.3999023438</ele>
        <time>2014-02-23T10:17:07.000Z</time>
      </trkpt>
      <trkpt lat="44.1435" lon="7.31022">
        <ele>2854.3999023438</ele>
        <time>2014-02-23T10:17:21.000Z</time>
      </trkpt>
      <trkpt lat="44.1436" lon="7.31022">
        <ele>2857.6000976562</ele>
        <time>2014-02-23T10:17:38.000Z</time>
      </trkpt>
      <trkpt lat="44.1437" lon="7.31023">
        <ele>2860.6000976562</ele>
        <time>2014-02-23T10:17:54.000Z</time>
      </trkpt>
      <trkpt lat="44.14379" lon="7.31022">
        <ele>2863.6000976562</ele>
        <time>2014-02-23T10:18:16.000Z</time>
      </trkpt>
      <trkpt lat="44.14387" lon="7.31024">
        <ele>2866.8000488281</ele>
        <time>2014-02-23T10:18:30.000Z</time>
      </trkpt>
      <trkpt lat="44.14398" lon="7.31023">
        <ele>2870</ele>
        <time>2014-02-23T10:18:47.000Z</time>
      </trkpt>
      <trkpt lat="44.14409" lon="7.31024">
        <ele>2873</ele>
        <time>2014-02-23T10:19:03.000Z</time>
      </trkpt>
      <trkpt lat="44.1442" lon="7.31026">
        <ele>2876.1999511719</ele>
        <time>2014-02-23T10:19:19.000Z</time>
      </trkpt>
      <trkpt lat="44.14429" lon="7.31026">
        <ele>2879.3999023438</ele>
        <time>2014-02-23T10:19:35.000Z</time>
      </trkpt>
      <trkpt lat="44.14438" lon="7.3103">
        <ele>2881.8000488281</ele>
        <time>2014-02-23T10:19:58.000Z</time>
      </trkpt>
      <trkpt lat="44.14439" lon="7.31028">
        <ele>2881.8000488281</ele>
        <time>2014-02-23T10:20:29.000Z</time>
      </trkpt>
      <trkpt lat="44.14454" lon="7.31029">
        <ele>2884.1999511719</ele>
        <time>2014-02-23T10:20:46.000Z</time>
      </trkpt>
      <trkpt lat="44.14463" lon="7.31029">
        <ele>2885</ele>
        <time>2014-02-23T10:20:53.000Z</time>
      </trkpt>
      <trkpt lat="44.14482" lon="7.3103">
        <ele>2885.3999023438</ele>
        <time>2014-02-23T10:21:09.000Z</time>
      </trkpt>
      <trkpt lat="44.14496" lon="7.31031">
        <ele>2888</ele>
        <time>2014-02-23T10:21:24.000Z</time>
      </trkpt>
      <trkpt lat="44.14509" lon="7.31029">
        <ele>2891.1999511719</ele>
        <time>2014-02-23T10:21:41.000Z</time>
      </trkpt>
      <trkpt lat="44.14514" lon="7.31038">
        <ele>2894.3999023438</ele>
        <time>2014-02-23T10:21:56.000Z</time>
      </trkpt>
      <trkpt lat="44.14516" lon="7.31049">
        <ele>2897.3999023438</ele>
        <time>2014-02-23T10:22:12.000Z</time>
      </trkpt>
      <trkpt lat="44.14519" lon="7.31062">
        <ele>2900.6000976562</ele>
        <time>2014-02-23T10:22:31.000Z</time>
      </trkpt>
      <trkpt lat="44.14525" lon="7.31077">
        <ele>2903.6000976562</ele>
        <time>2014-02-23T10:22:49.000Z</time>
      </trkpt>
      <trkpt lat="44.14532" lon="7.31084">
        <ele>2906.8000488281</ele>
        <time>2014-02-23T10:23:05.000Z</time>
      </trkpt>
      <trkpt lat="44.14542" lon="7.31074">
        <ele>2909.6000976562</ele>
        <time>2014-02-23T10:23:23.000Z</time>
      </trkpt>
      <trkpt lat="44.14552" lon="7.31073">
        <ele>2912.8000488281</ele>
        <time>2014-02-23T10:23:41.000Z</time>
      </trkpt>
      <trkpt lat="44.14562" lon="7.3107">
        <ele>2916</ele>
        <time>2014-02-23T10:23:58.000Z</time>
      </trkpt>
      <trkpt lat="44.14574" lon="7.31065">
        <ele>2919</ele>
        <time>2014-02-23T10:24:17.000Z</time>
      </trkpt>
      <trkpt lat="44.14587" lon="7.31061">
        <ele>2922.3999023438</ele>
        <time>2014-02-23T10:24:35.000Z</time>
      </trkpt>
      <trkpt lat="44.146" lon="7.31056">
        <ele>2925.6000976562</ele>
        <time>2014-02-23T10:24:54.000Z</time>
      </trkpt>
      <trkpt lat="44.14616" lon="7.31047">
        <ele>2928.1999511719</ele>
        <time>2014-02-23T10:25:16.000Z</time>
      </trkpt>
      <trkpt lat="44.14627" lon="7.31038">
        <ele>2929.6000976562</ele>
        <time>2014-02-23T10:25:31.000Z</time>
      </trkpt>
      <trkpt lat="44.14639" lon="7.31035">
        <ele>2932.6000976562</ele>
        <time>2014-02-23T10:25:49.000Z</time>
      </trkpt>
      <trkpt lat="44.14651" lon="7.31038">
        <ele>2935.8000488281</ele>
        <time>2014-02-23T10:26:06.000Z</time>
      </trkpt>
      <trkpt lat="44.14661" lon="7.3104">
        <ele>2939</ele>
        <time>2014-02-23T10:26:23.000Z</time>
      </trkpt>
      <trkpt lat="44.14666" lon="7.31033">
        <ele>2942</ele>
        <time>2014-02-23T10:26:38.000Z</time>
      </trkpt>
      <trkpt lat="44.14666" lon="7.31019">
        <ele>2945.1999511719</ele>
        <time>2014-02-23T10:26:55.000Z</time>
      </trkpt>
      <trkpt lat="44.14672" lon="7.31013">
        <ele>2948.6000976562</ele>
        <time>2014-02-23T10:27:12.000Z</time>
      </trkpt>
      <trkpt lat="44.1468" lon="7.31026">
        <ele>2951.6000976562</ele>
        <time>2014-02-23T10:27:30.000Z</time>
      </trkpt>
      <trkpt lat="44.14686" lon="7.31035">
        <ele>2954.8000488281</ele>
        <time>2014-02-23T10:27:46.000Z</time>
      </trkpt>
      <trkpt lat="44.14695" lon="7.31046">
        <ele>2958</ele>
        <time>2014-02-23T10:28:03.000Z</time>
      </trkpt>
      <trkpt lat="44.14702" lon="7.31058">
        <ele>2961</ele>
        <time>2014-02-23T10:28:19.000Z</time>
      </trkpt>
      <trkpt lat="44.14708" lon="7.31068">
        <ele>2964.1999511719</ele>
        <time>2014-02-23T10:28:35.000Z</time>
      </trkpt>
      <trkpt lat="44.14711" lon="7.31068">
        <ele>2966.6000976562</ele>
        <time>2014-02-23T10:28:55.000Z</time>
      </trkpt>
      <trkpt lat="44.14712" lon="7.31049">
        <ele>2969.6000976562</ele>
        <time>2014-02-23T10:29:12.000Z</time>
      </trkpt>
      <trkpt lat="44.14716" lon="7.31033">
        <ele>2972.8000488281</ele>
        <time>2014-02-23T10:29:28.000Z</time>
      </trkpt>
      <trkpt lat="44.14723" lon="7.31041">
        <ele>2975.8000488281</ele>
        <time>2014-02-23T10:29:45.000Z</time>
      </trkpt>
      <trkpt lat="44.14729" lon="7.31053">
        <ele>2979</ele>
        <time>2014-02-23T10:30:00.000Z</time>
      </trkpt>
      <trkpt lat="44.14736" lon="7.31063">
        <ele>2982</ele>
        <time>2014-02-23T10:30:15.000Z</time>
      </trkpt>
      <trkpt lat="44.14744" lon="7.3107">
        <ele>2985</ele>
        <time>2014-02-23T10:30:30.000Z</time>
      </trkpt>
      <trkpt lat="44.14751" lon="7.31071">
        <ele>2988.1999511719</ele>
        <time>2014-02-23T10:30:43.000Z</time>
      </trkpt>
      <trkpt lat="44.14752" lon="7.3106">
        <ele>2991</ele>
        <time>2014-02-23T10:31:01.000Z</time>
      </trkpt>
      <trkpt lat="44.14754" lon="7.31049">
        <ele>2994.1999511719</ele>
        <time>2014-02-23T10:31:14.000Z</time>
      </trkpt>
      <trkpt lat="44.14756" lon="7.3104">
        <ele>2997.1999511719</ele>
        <time>2014-02-23T10:31:26.000Z</time>
      </trkpt>
      <trkpt lat="44.14761" lon="7.31045">
        <ele>2999.6000976562</ele>
        <time>2014-02-23T10:31:41.000Z</time>
      </trkpt>
      <trkpt lat="44.14765" lon="7.31043">
        <ele>3002.8000488281</ele>
        <time>2014-02-23T10:31:59.000Z</time>
      </trkpt>
      <trkpt lat="44.1477" lon="7.31044">
        <ele>3004.6000976562</ele>
        <time>2014-02-23T10:32:17.000Z</time>
      </trkpt>
      <trkpt lat="44.14769" lon="7.31044">
        <ele>3005</ele>
        <time>2014-02-23T10:32:43.000Z</time>
      </trkpt>
      <trkpt lat="44.1477" lon="7.31043">
        <ele>3006.3999023438</ele>
        <time>2014-02-23T10:33:08.000Z</time>
      </trkpt>
      <trkpt lat="44.1477" lon="7.31042">
        <ele>3005.8000488281</ele>
        <time>2014-02-23T10:33:37.000Z</time>
      </trkpt>
      <trkpt lat="44.1477" lon="7.3104">
        <ele>3006</ele>
        <time>2014-02-23T10:33:56.000Z</time>
      </trkpt>
      <trkpt lat="44.14771" lon="7.31041">
        <ele>3005.8000488281</ele>
        <time>2014-02-23T10:34:18.000Z</time>
      </trkpt>
      <trkpt lat="44.14771" lon="7.31044">
        <ele>3005.3999023438</ele>
        <time>2014-02-23T10:34:41.000Z</time>
      </trkpt>
      <trkpt lat="44.1477" lon="7.31041">
        <ele>3005.6000976562</ele>
        <time>2014-02-23T10:34:58.000Z</time>
      </trkpt>
      <trkpt lat="44.1477" lon="7.31041">
        <ele>3005.3999023438</ele>
        <time>2014-02-23T10:35:18.000Z</time>
      </trkpt>
      <trkpt lat="44.14769" lon="7.31044">
        <ele>3005.1999511719</ele>
        <time>2014-02-23T10:35:44.000Z</time>
      </trkpt>
      <trkpt lat="44.1477" lon="7.31044">
        <ele>3005.1999511719</ele>
        <time>2014-02-23T10:36:04.000Z</time>
      </trkpt>
      <trkpt lat="44.14769" lon="7.31042">
        <ele>3005</ele>
        <time>2014-02-23T10:36:26.000Z</time>
      </trkpt>
      <trkpt lat="44.14769" lon="7.31042">
        <ele>3005</ele>
        <time>2014-02-23T10:36:50.000Z</time>
      </trkpt>
      <trkpt lat="44.14769" lon="7.31043">
        <ele>3004.8000488281</ele>
        <time>2014-02-23T10:37:13.000Z</time>
      </trkpt>
      <trkpt lat="44.1477" lon="7.31044">
        <ele>3004.6000976562</ele>
        <time>2014-02-23T10:37:40.000Z</time>
      </trkpt>
      <trkpt lat="44.14769" lon="7.31042">
        <ele>3004.6000976562</ele>
        <time>2014-02-23T10:38:05.000Z</time>
      </trkpt>
      <trkpt lat="44.14769" lon="7.31042">
        <ele>3004.3999023438</ele>
        <time>2014-02-23T10:38:25.000Z</time>
      </trkpt>
      <trkpt lat="44.14769" lon="7.31042">
        <ele>3004.3999023438</ele>
        <time>2014-02-23T10:38:51.000Z</time>
      </trkpt>
      <trkpt lat="44.14769" lon="7.3104">
        <ele>3003.8000488281</ele>
        <time>2014-02-23T10:39:11.000Z</time>
      </trkpt>
      <trkpt lat="44.14772" lon="7.31038">
        <ele>3003.8000488281</ele>
        <time>2014-02-23T10:39:38.000Z</time>
      </trkpt>
      <trkpt lat="44.14775" lon="7.31036">
        <ele>3003.8000488281</ele>
        <time>2014-02-23T10:40:10.000Z</time>
      </trkpt>
      <trkpt lat="44.14774" lon="7.31035">
        <ele>3003.6000976562</ele>
        <time>2014-02-23T10:40:44.000Z</time>
      </trkpt>
      <trkpt lat="44.14775" lon="7.31034">
        <ele>3003.6000976562</ele>
        <time>2014-02-23T10:41:14.000Z</time>
      </trkpt>
      <trkpt lat="44.14777" lon="7.31033">
        <ele>3003.3999023438</ele>
        <time>2014-02-23T10:41:46.000Z</time>
      </trkpt>
      <trkpt lat="44.1478" lon="7.3103">
        <ele>3003.3999023438</ele>
        <time>2014-02-23T10:42:19.000Z</time>
      </trkpt>
      <trkpt lat="44.14778" lon="7.31033">
        <ele>3003.3999023438</ele>
        <time>2014-02-23T10:42:51.000Z</time>
      </trkpt>
      <trkpt lat="44.14776" lon="7.31037">
        <ele>3003.1999511719</ele>
        <time>2014-02-23T10:43:13.000Z</time>
      </trkpt>
      <trkpt lat="44.14772" lon="7.3104">
        <ele>3004.1999511719</ele>
        <time>2014-02-23T10:43:34.000Z</time>
      </trkpt>
      <trkpt lat="44.14771" lon="7.31041">
        <ele>3003.1999511719</ele>
        <time>2014-02-23T10:43:58.000Z</time>
      </trkpt>
      <trkpt lat="44.1477" lon="7.31041">
        <ele>3003</ele>
        <time>2014-02-23T10:44:30.000Z</time>
      </trkpt>
      <trkpt lat="44.14771" lon="7.31041">
        <ele>3003.1999511719</ele>
        <time>2014-02-23T10:44:58.000Z</time>
      </trkpt>
      <trkpt lat="44.1477" lon="7.31039">
        <ele>3003.1999511719</ele>
        <time>2014-02-23T10:45:27.000Z</time>
      </trkpt>
      <trkpt lat="44.1477" lon="7.31037">
        <ele>3003</ele>
        <time>2014-02-23T10:45:56.000Z</time>
      </trkpt>
      <trkpt lat="44.1477" lon="7.31037">
        <ele>3002.8000488281</ele>
        <time>2014-02-23T10:46:20.000Z</time>
      </trkpt>
      <trkpt lat="44.1477" lon="7.31037">
        <ele>3002.6000976562</ele>
        <time>2014-02-23T10:46:54.000Z</time>
      </trkpt>
      <trkpt lat="44.1477" lon="7.31034">
        <ele>3002.6000976562</ele>
        <time>2014-02-23T10:47:28.000Z</time>
      </trkpt>
      <trkpt lat="44.14768" lon="7.31035">
        <ele>3002.8000488281</ele>
        <time>2014-02-23T10:47:57.000Z</time>
      </trkpt>
      <trkpt lat="44.14765" lon="7.31033">
        <ele>3002.6000976562</ele>
        <time>2014-02-23T10:48:29.000Z</time>
      </trkpt>
      <trkpt lat="44.14763" lon="7.31033">
        <ele>3002.6000976562</ele>
        <time>2014-02-23T10:49:00.000Z</time>
      </trkpt>
      <trkpt lat="44.14766" lon="7.31034">
        <ele>3002.3999023438</ele>
        <time>2014-02-23T10:49:31.000Z</time>
      </trkpt>
      <trkpt lat="44.1477" lon="7.31037">
        <ele>3002.3999023438</ele>
        <time>2014-02-23T10:49:59.000Z</time>
      </trkpt>
      <trkpt lat="44.14771" lon="7.31038">
        <ele>3002.3999023438</ele>
        <time>2014-02-23T10:50:27.000Z</time>
      </trkpt>
      <trkpt lat="44.1477" lon="7.31039">
        <ele>3002.1999511719</ele>
        <time>2014-02-23T10:50:54.000Z</time>
      </trkpt>
      <trkpt lat="44.14769" lon="7.3104">
        <ele>3002.1999511719</ele>
        <time>2014-02-23T10:51:17.000Z</time>
      </trkpt>
      <trkpt lat="44.14768" lon="7.31039">
        <ele>3002.1999511719</ele>
        <time>2014-02-23T10:51:52.000Z</time>
      </trkpt>
      <trkpt lat="44.14769" lon="7.3104">
        <ele>3002.1999511719</ele>
        <time>2014-02-23T10:52:25.000Z</time>
      </trkpt>
      <trkpt lat="44.1477" lon="7.31039">
        <ele>3002</ele>
        <time>2014-02-23T10:52:55.000Z</time>
      </trkpt>
      <trkpt lat="44.1477" lon="7.31039">
        <ele>3001.8000488281</ele>
        <time>2014-02-23T10:53:20.000Z</time>
      </trkpt>
      <trkpt lat="44.14771" lon="7.31039">
        <ele>3002</ele>
        <time>2014-02-23T10:53:41.000Z</time>
      </trkpt>
      <trkpt lat="44.14772" lon="7.31039">
        <ele>3001.8000488281</ele>
        <time>2014-02-23T10:54:12.000Z</time>
      </trkpt>
      <trkpt lat="44.14773" lon="7.3104">
        <ele>3001.6000976562</ele>
        <time>2014-02-23T10:54:42.000Z</time>
      </trkpt>
      <trkpt lat="44.14773" lon="7.31039">
        <ele>3001.3999023438</ele>
        <time>2014-02-23T10:55:07.000Z</time>
      </trkpt>
      <trkpt lat="44.14773" lon="7.3104">
        <ele>3001.3999023438</ele>
        <time>2014-02-23T10:55:37.000Z</time>
      </trkpt>
      <trkpt lat="44.14773" lon="7.3104">
        <ele>3001.3999023438</ele>
        <time>2014-02-23T10:56:06.000Z</time>
      </trkpt>
      <trkpt lat="44.14774" lon="7.3104">
        <ele>3001.3999023438</ele>
        <time>2014-02-23T10:56:40.000Z</time>
      </trkpt>
      <trkpt lat="44.14774" lon="7.31041">
        <ele>3001.3999023438</ele>
        <time>2014-02-23T10:57:11.000Z</time>
      </trkpt>
      <trkpt lat="44.14774" lon="7.31041">
        <ele>3001.1999511719</ele>
        <time>2014-02-23T10:57:43.000Z</time>
      </trkpt>
      <trkpt lat="44.14775" lon="7.31041">
        <ele>3000.8000488281</ele>
        <time>2014-02-23T10:58:10.000Z</time>
      </trkpt>
      <trkpt lat="44.14774" lon="7.31041">
        <ele>3001.1999511719</ele>
        <time>2014-02-23T10:58:38.000Z</time>
      </trkpt>
      <trkpt lat="44.14774" lon="7.31042">
        <ele>3001</ele>
        <time>2014-02-23T10:59:08.000Z</time>
      </trkpt>
      <trkpt lat="44.14775" lon="7.31041">
        <ele>3001</ele>
        <time>2014-02-23T10:59:39.000Z</time>
      </trkpt>
      <trkpt lat="44.14775" lon="7.31041">
        <ele>3001</ele>
        <time>2014-02-23T11:00:05.000Z</time>
      </trkpt>
      <trkpt lat="44.14776" lon="7.31038">
        <ele>3001</ele>
        <time>2014-02-23T11:00:36.000Z</time>
      </trkpt>
      <trkpt lat="44.14779" lon="7.31039">
        <ele>3001</ele>
        <time>2014-02-23T11:01:07.000Z</time>
      </trkpt>
      <trkpt lat="44.14779" lon="7.31041">
        <ele>3001</ele>
        <time>2014-02-23T11:01:34.000Z</time>
      </trkpt>
      <trkpt lat="44.1478" lon="7.31041">
        <ele>3001</ele>
        <time>2014-02-23T11:01:56.000Z</time>
      </trkpt>
      <trkpt lat="44.1478" lon="7.31042">
        <ele>3001.1999511719</ele>
        <time>2014-02-23T11:02:26.000Z</time>
      </trkpt>
      <trkpt lat="44.14778" lon="7.31042">
        <ele>3001</ele>
        <time>2014-02-23T11:02:49.000Z</time>
      </trkpt>
      <trkpt lat="44.14778" lon="7.31042">
        <ele>3001.1999511719</ele>
        <time>2014-02-23T11:03:15.000Z</time>
      </trkpt>
      <trkpt lat="44.14776" lon="7.31042">
        <ele>3001</ele>
        <time>2014-02-23T11:03:41.000Z</time>
      </trkpt>
      <trkpt lat="44.14776" lon="7.31043">
        <ele>3001</ele>
        <time>2014-02-23T11:04:11.000Z</time>
      </trkpt>
      <trkpt lat="44.14776" lon="7.31043">
        <ele>3000.6000976562</ele>
        <time>2014-02-23T11:04:44.000Z</time>
      </trkpt>
      <trkpt lat="44.14776" lon="7.31043">
        <ele>3000.6000976562</ele>
        <time>2014-02-23T11:06:03.000Z</time>
      </trkpt>
      <trkpt lat="44.14775" lon="7.31043">
        <ele>3000.3999023438</ele>
        <time>2014-02-23T11:07:19.000Z</time>
      </trkpt>
      <trkpt lat="44.14775" lon="7.31043">
        <ele>3000.6000976562</ele>
        <time>2014-02-23T11:08:26.000Z</time>
      </trkpt>
      <trkpt lat="44.14774" lon="7.31043">
        <ele>3000.6000976562</ele>
        <time>2014-02-23T11:10:02.000Z</time>
      </trkpt>
      <trkpt lat="44.14774" lon="7.31043">
        <ele>3000.6000976562</ele>
        <time>2014-02-23T11:11:24.000Z</time>
      </trkpt>
      <trkpt lat="44.14774" lon="7.31042">
        <ele>3000.3999023438</ele>
        <time>2014-02-23T11:13:19.000Z</time>
      </trkpt>
      <trkpt lat="44.14775" lon="7.3104">
        <ele>3003.1999511719</ele>
        <time>2014-02-23T11:14:22.000Z</time>
      </trkpt>
      <trkpt lat="44.1477" lon="7.31039">
        <ele>3001.3999023438</ele>
        <time>2014-02-23T11:15:17.000Z</time>
      </trkpt>
      <trkpt lat="44.14774" lon="7.31038">
        <ele>3003.1999511719</ele>
        <time>2014-02-23T11:16:14.000Z</time>
      </trkpt>
      <trkpt lat="44.14774" lon="7.31038">
        <ele>3002.6000976562</ele>
        <time>2014-02-23T11:17:19.000Z</time>
      </trkpt>
      <trkpt lat="44.14774" lon="7.31038">
        <ele>3002.6000976562</ele>
        <time>2014-02-23T11:18:24.000Z</time>
      </trkpt>
      <trkpt lat="44.14774" lon="7.31038">
        <ele>3002.8000488281</ele>
        <time>2014-02-23T11:18:55.000Z</time>
      </trkpt>
      <trkpt lat="44.14774" lon="7.31038">
        <ele>3002.8000488281</ele>
        <time>2014-02-23T11:19:24.000Z</time>
      </trkpt>
      <trkpt lat="44.14772" lon="7.31041">
        <ele>3001.1999511719</ele>
        <time>2014-02-23T11:19:47.000Z</time>
      </trkpt>
      <trkpt lat="44.14773" lon="7.3104">
        <ele>3001</ele>
        <time>2014-02-23T11:20:14.000Z</time>
      </trkpt>
      <trkpt lat="44.14771" lon="7.3104">
        <ele>3000</ele>
        <time>2014-02-23T11:20:36.000Z</time>
      </trkpt>
      <trkpt lat="44.14771" lon="7.31041">
        <ele>3000</ele>
        <time>2014-02-23T11:21:05.000Z</time>
      </trkpt>
      <trkpt lat="44.14772" lon="7.31043">
        <ele>3000.3999023438</ele>
        <time>2014-02-23T11:21:27.000Z</time>
      </trkpt>
      <trkpt lat="44.14772" lon="7.31043">
        <ele>3000</ele>
        <time>2014-02-23T11:21:52.000Z</time>
      </trkpt>
      <trkpt lat="44.14773" lon="7.31041">
        <ele>3000</ele>
        <time>2014-02-23T11:22:19.000Z</time>
      </trkpt>
      <trkpt lat="44.14773" lon="7.3104">
        <ele>3000.1999511719</ele>
        <time>2014-02-23T11:22:43.000Z</time>
      </trkpt>
      <trkpt lat="44.14772" lon="7.31043">
        <ele>3000.1999511719</ele>
        <time>2014-02-23T11:23:11.000Z</time>
      </trkpt>
      <trkpt lat="44.14772" lon="7.31042">
        <ele>3000.1999511719</ele>
        <time>2014-02-23T11:23:34.000Z</time>
      </trkpt>
      <trkpt lat="44.14771" lon="7.31042">
        <ele>3000</ele>
        <time>2014-02-23T11:24:00.000Z</time>
      </trkpt>
      <trkpt lat="44.14773" lon="7.31041">
        <ele>3000.1999511719</ele>
        <time>2014-02-23T11:24:30.000Z</time>
      </trkpt>
      <trkpt lat="44.14773" lon="7.31042">
        <ele>3000.3999023438</ele>
        <time>2014-02-23T11:24:50.000Z</time>
      </trkpt>
      <trkpt lat="44.14774" lon="7.31043">
        <ele>3000.1999511719</ele>
        <time>2014-02-23T11:25:14.000Z</time>
      </trkpt>
      <trkpt lat="44.14773" lon="7.31043">
        <ele>3000.3999023438</ele>
        <time>2014-02-23T11:25:35.000Z</time>
      </trkpt>
      <trkpt lat="44.14772" lon="7.31043">
        <ele>3001</ele>
        <time>2014-02-23T11:26:01.000Z</time>
      </trkpt>
      <trkpt lat="44.14772" lon="7.31042">
        <ele>3000.1999511719</ele>
        <time>2014-02-23T11:26:26.000Z</time>
      </trkpt>
      <trkpt lat="44.14772" lon="7.31042">
        <ele>3000.8000488281</ele>
        <time>2014-02-23T11:26:45.000Z</time>
      </trkpt>
      <trkpt lat="44.14773" lon="7.31042">
        <ele>3000.6000976562</ele>
        <time>2014-02-23T11:27:06.000Z</time>
      </trkpt>
      <trkpt lat="44.1477" lon="7.31042">
        <ele>2999.1999511719</ele>
        <time>2014-02-23T11:27:28.000Z</time>
      </trkpt>
      <trkpt lat="44.14768" lon="7.31041">
        <ele>2998.8000488281</ele>
        <time>2014-02-23T11:27:48.000Z</time>
      </trkpt>
      <trkpt lat="44.14768" lon="7.31041">
        <ele>2998.6000976562</ele>
        <time>2014-02-23T11:28:10.000Z</time>
      </trkpt>
      <trkpt lat="44.14768" lon="7.31041">
        <ele>2999</ele>
        <time>2014-02-23T11:28:38.000Z</time>
      </trkpt>
      <trkpt lat="44.14768" lon="7.31041">
        <ele>2998.6000976562</ele>
        <time>2014-02-23T11:29:26.000Z</time>
      </trkpt>
      <trkpt lat="44.14769" lon="7.3104">
        <ele>2998.8000488281</ele>
        <time>2014-02-23T11:30:12.000Z</time>
      </trkpt>
      <trkpt lat="44.14769" lon="7.31041">
        <ele>2999.3999023438</ele>
        <time>2014-02-23T11:30:37.000Z</time>
      </trkpt>
      <trkpt lat="44.14769" lon="7.31042">
        <ele>2999.1999511719</ele>
        <time>2014-02-23T11:31:02.000Z</time>
      </trkpt>
      <trkpt lat="44.14769" lon="7.31042">
        <ele>2999.1999511719</ele>
        <time>2014-02-23T11:31:44.000Z</time>
      </trkpt>
      <trkpt lat="44.14768" lon="7.31044">
        <ele>2998.3999023438</ele>
        <time>2014-02-23T11:32:01.000Z</time>
      </trkpt>
      <trkpt lat="44.14761" lon="7.31043">
        <ele>2994.3999023438</ele>
        <time>2014-02-23T11:32:07.000Z</time>
      </trkpt>
      <trkpt lat="44.14758" lon="7.3104">
        <ele>2993.1999511719</ele>
        <time>2014-02-23T11:32:10.000Z</time>
      </trkpt>
      <trkpt lat="44.14745" lon="7.31043">
        <ele>2988.3999023438</ele>
        <time>2014-02-23T11:32:15.000Z</time>
      </trkpt>
      <trkpt lat="44.14738" lon="7.31047">
        <ele>2984.6000976562</ele>
        <time>2014-02-23T11:32:17.000Z</time>
      </trkpt>
      <trkpt lat="44.14731" lon="7.31048">
        <ele>2980.6000976562</ele>
        <time>2014-02-23T11:32:19.000Z</time>
      </trkpt>
      <trkpt lat="44.14725" lon="7.31054">
        <ele>2976.6000976562</ele>
        <time>2014-02-23T11:32:21.000Z</time>
      </trkpt>
      <trkpt lat="44.1472" lon="7.3105">
        <ele>2972.6000976562</ele>
        <time>2014-02-23T11:32:23.000Z</time>
      </trkpt>
      <trkpt lat="44.14718" lon="7.31045">
        <ele>2971</ele>
        <time>2014-02-23T11:32:24.000Z</time>
      </trkpt>
      <trkpt lat="44.14701" lon="7.3104">
        <ele>2963.8000488281</ele>
        <time>2014-02-23T11:32:30.000Z</time>
      </trkpt>
      <trkpt lat="44.14695" lon="7.3104">
        <ele>2960.3999023438</ele>
        <time>2014-02-23T11:32:32.000Z</time>
      </trkpt>
      <trkpt lat="44.14687" lon="7.31043">
        <ele>2956.6000976562</ele>
        <time>2014-02-23T11:32:34.000Z</time>
      </trkpt>
      <trkpt lat="44.14681" lon="7.31037">
        <ele>2951.3999023438</ele>
        <time>2014-02-23T11:32:36.000Z</time>
      </trkpt>
      <trkpt lat="44.14671" lon="7.31039">
        <ele>2947.6000976562</ele>
        <time>2014-02-23T11:32:38.000Z</time>
      </trkpt>
      <trkpt lat="44.14664" lon="7.31032">
        <ele>2942.3999023438</ele>
        <time>2014-02-23T11:32:40.000Z</time>
      </trkpt>
      <trkpt lat="44.14658" lon="7.31024">
        <ele>2939.3999023438</ele>
        <time>2014-02-23T11:32:42.000Z</time>
      </trkpt>
      <trkpt lat="44.14639" lon="7.31027">
        <ele>2934.6000976562</ele>
        <time>2014-02-23T11:32:46.000Z</time>
      </trkpt>
      <trkpt lat="44.14628" lon="7.31034">
        <ele>2931</ele>
        <time>2014-02-23T11:32:48.000Z</time>
      </trkpt>
      <trkpt lat="44.14618" lon="7.3104">
        <ele>2927.8000488281</ele>
        <time>2014-02-23T11:32:50.000Z</time>
      </trkpt>
      <trkpt lat="44.14607" lon="7.3105">
        <ele>2924.1999511719</ele>
        <time>2014-02-23T11:32:53.000Z</time>
      </trkpt>
      <trkpt lat="44.146" lon="7.31055">
        <ele>2921.6000976562</ele>
        <time>2014-02-23T11:32:58.000Z</time>
      </trkpt>
      <trkpt lat="44.14603" lon="7.31057">
        <ele>2921.1999511719</ele>
        <time>2014-02-23T11:33:22.000Z</time>
      </trkpt>
      <trkpt lat="44.14604" lon="7.31055">
        <ele>2921.3999023438</ele>
        <time>2014-02-23T11:33:47.000Z</time>
      </trkpt>
      <trkpt lat="44.14604" lon="7.31055">
        <ele>2921.3999023438</ele>
        <time>2014-02-23T11:34:17.000Z</time>
      </trkpt>
      <trkpt lat="44.14604" lon="7.31056">
        <ele>2921.1999511719</ele>
        <time>2014-02-23T11:34:45.000Z</time>
      </trkpt>
      <trkpt lat="44.14603" lon="7.31055">
        <ele>2921</ele>
        <time>2014-02-23T11:35:14.000Z</time>
      </trkpt>
      <trkpt lat="44.14603" lon="7.31055">
        <ele>2921.1999511719</ele>
        <time>2014-02-23T11:35:16.000Z</time>
      </trkpt>
      <trkpt lat="44.14592" lon="7.31086">
        <ele>2919.3999023438</ele>
        <time>2014-02-23T11:35:21.000Z</time>
      </trkpt>
      <trkpt lat="44.14566" lon="7.31127">
        <ele>2916.1999511719</ele>
        <time>2014-02-23T11:35:29.000Z</time>
      </trkpt>
      <trkpt lat="44.14543" lon="7.3117">
        <ele>2913.1999511719</ele>
        <time>2014-02-23T11:35:36.000Z</time>
      </trkpt>
      <trkpt lat="44.14526" lon="7.31201">
        <ele>2909.6000976562</ele>
        <time>2014-02-23T11:35:43.000Z</time>
      </trkpt>
      <trkpt lat="44.14509" lon="7.31212">
        <ele>2905.6000976562</ele>
        <time>2014-02-23T11:35:47.000Z</time>
      </trkpt>
      <trkpt lat="44.14498" lon="7.31226">
        <ele>2902</ele>
        <time>2014-02-23T11:35:50.000Z</time>
      </trkpt>
      <trkpt lat="44.14484" lon="7.3124">
        <ele>2897.3999023438</ele>
        <time>2014-02-23T11:35:53.000Z</time>
      </trkpt>
      <trkpt lat="44.1447" lon="7.3125">
        <ele>2893.6000976562</ele>
        <time>2014-02-23T11:35:56.000Z</time>
      </trkpt>
      <trkpt lat="44.14455" lon="7.31242">
        <ele>2890.3999023438</ele>
        <time>2014-02-23T11:35:59.000Z</time>
      </trkpt>
      <trkpt lat="44.14443" lon="7.31221">
        <ele>2887.6000976562</ele>
        <time>2014-02-23T11:36:03.000Z</time>
      </trkpt>
      <trkpt lat="44.14436" lon="7.3121">
        <ele>2887</ele>
        <time>2014-02-23T11:36:06.000Z</time>
      </trkpt>
      <trkpt lat="44.14422" lon="7.31205">
        <ele>2882.8000488281</ele>
        <time>2014-02-23T11:36:11.000Z</time>
      </trkpt>
      <trkpt lat="44.14422" lon="7.31204">
        <ele>2881.1999511719</ele>
        <time>2014-02-23T11:36:14.000Z</time>
      </trkpt>
      <trkpt lat="44.14422" lon="7.31204">
        <ele>2881</ele>
        <time>2014-02-23T11:36:26.000Z</time>
      </trkpt>
      <trkpt lat="44.14414" lon="7.31198">
        <ele>2878.3999023438</ele>
        <time>2014-02-23T11:36:35.000Z</time>
      </trkpt>
      <trkpt lat="44.14409" lon="7.31193">
        <ele>2877</ele>
        <time>2014-02-23T11:36:43.000Z</time>
      </trkpt>
      <trkpt lat="44.14399" lon="7.31191">
        <ele>2874</ele>
        <time>2014-02-23T11:36:50.000Z</time>
      </trkpt>
      <trkpt lat="44.1439" lon="7.31185">
        <ele>2871.1999511719</ele>
        <time>2014-02-23T11:36:55.000Z</time>
      </trkpt>
      <trkpt lat="44.14384" lon="7.3117">
        <ele>2868</ele>
        <time>2014-02-23T11:36:59.000Z</time>
      </trkpt>
      <trkpt lat="44.14384" lon="7.31165">
        <ele>2866.1999511719</ele>
        <time>2014-02-23T11:37:08.000Z</time>
      </trkpt>
      <trkpt lat="44.14383" lon="7.31164">
        <ele>2866</ele>
        <time>2014-02-23T11:37:15.000Z</time>
      </trkpt>
      <trkpt lat="44.14365" lon="7.31163">
        <ele>2861.3999023438</ele>
        <time>2014-02-23T11:37:20.000Z</time>
      </trkpt>
      <trkpt lat="44.14353" lon="7.31163">
        <ele>2856.8000488281</ele>
        <time>2014-02-23T11:37:22.000Z</time>
      </trkpt>
      <trkpt lat="44.14341" lon="7.31161">
        <ele>2851.6000976562</ele>
        <time>2014-02-23T11:37:24.000Z</time>
      </trkpt>
      <trkpt lat="44.14336" lon="7.3116">
        <ele>2848.8000488281</ele>
        <time>2014-02-23T11:37:25.000Z</time>
      </trkpt>
      <trkpt lat="44.14313" lon="7.31158">
        <ele>2837.8000488281</ele>
        <time>2014-02-23T11:37:29.000Z</time>
      </trkpt>
      <trkpt lat="44.14308" lon="7.31156">
        <ele>2834.8000488281</ele>
        <time>2014-02-23T11:37:30.000Z</time>
      </trkpt>
      <trkpt lat="44.14299" lon="7.31158">
        <ele>2830.6000976562</ele>
        <time>2014-02-23T11:37:32.000Z</time>
      </trkpt>
      <trkpt lat="44.1429" lon="7.31157">
        <ele>2825.1999511719</ele>
        <time>2014-02-23T11:37:34.000Z</time>
      </trkpt>
      <trkpt lat="44.14284" lon="7.31162">
        <ele>2821.8000488281</ele>
        <time>2014-02-23T11:37:36.000Z</time>
      </trkpt>
      <trkpt lat="44.14273" lon="7.31166">
        <ele>2816.6000976562</ele>
        <time>2014-02-23T11:37:38.000Z</time>
      </trkpt>
      <trkpt lat="44.14266" lon="7.31175">
        <ele>2811.6000976562</ele>
        <time>2014-02-23T11:37:40.000Z</time>
      </trkpt>
      <trkpt lat="44.14259" lon="7.31185">
        <ele>2803</ele>
        <time>2014-02-23T11:37:43.000Z</time>
      </trkpt>
      <trkpt lat="44.14255" lon="7.31195">
        <ele>2797.6000976562</ele>
        <time>2014-02-23T11:37:45.000Z</time>
      </trkpt>
      <trkpt lat="44.14251" lon="7.31197">
        <ele>2794.6000976562</ele>
        <time>2014-02-23T11:37:46.000Z</time>
      </trkpt>
      <trkpt lat="44.14249" lon="7.31208">
        <ele>2789</ele>
        <time>2014-02-23T11:37:48.000Z</time>
      </trkpt>
      <trkpt lat="44.14239" lon="7.31213">
        <ele>2783</ele>
        <time>2014-02-23T11:37:50.000Z</time>
      </trkpt>
      <trkpt lat="44.14235" lon="7.31211">
        <ele>2780</ele>
        <time>2014-02-23T11:37:51.000Z</time>
      </trkpt>
      <trkpt lat="44.1423" lon="7.31222">
        <ele>2775.1999511719</ele>
        <time>2014-02-23T11:37:53.000Z</time>
      </trkpt>
      <trkpt lat="44.14226" lon="7.31227">
        <ele>2772.8000488281</ele>
        <time>2014-02-23T11:37:54.000Z</time>
      </trkpt>
      <trkpt lat="44.14215" lon="7.3125">
        <ele>2761.3999023438</ele>
        <time>2014-02-23T11:37:58.000Z</time>
      </trkpt>
      <trkpt lat="44.14205" lon="7.31255">
        <ele>2756.1999511719</ele>
        <time>2014-02-23T11:38:00.000Z</time>
      </trkpt>
      <trkpt lat="44.14193" lon="7.31261">
        <ele>2751.8000488281</ele>
        <time>2014-02-23T11:38:02.000Z</time>
      </trkpt>
      <trkpt lat="44.14188" lon="7.3126">
        <ele>2749.6000976562</ele>
        <time>2014-02-23T11:38:03.000Z</time>
      </trkpt>
      <trkpt lat="44.14154" lon="7.31268">
        <ele>2744</ele>
        <time>2014-02-23T11:38:08.000Z</time>
      </trkpt>
      <trkpt lat="44.14139" lon="7.31266">
        <ele>2738</ele>
        <time>2014-02-23T11:38:14.000Z</time>
      </trkpt>
      <trkpt lat="44.14141" lon="7.31266">
        <ele>2738.3999023438</ele>
        <time>2014-02-23T11:38:34.000Z</time>
      </trkpt>
      <trkpt lat="44.14143" lon="7.31269">
        <ele>2736.8000488281</ele>
        <time>2014-02-23T11:38:38.000Z</time>
      </trkpt>
      <trkpt lat="44.14145" lon="7.31269">
        <ele>2736.3999023438</ele>
        <time>2014-02-23T11:38:57.000Z</time>
      </trkpt>
      <trkpt lat="44.14145" lon="7.31268">
        <ele>2736.8000488281</ele>
        <time>2014-02-23T11:39:28.000Z</time>
      </trkpt>
      <trkpt lat="44.14145" lon="7.3127">
        <ele>2737.1999511719</ele>
        <time>2014-02-23T11:40:04.000Z</time>
      </trkpt>
      <trkpt lat="44.14145" lon="7.31269">
        <ele>2737.6000976562</ele>
        <time>2014-02-23T11:40:29.000Z</time>
      </trkpt>
      <trkpt lat="44.14145" lon="7.31268">
        <ele>2738</ele>
        <time>2014-02-23T11:40:51.000Z</time>
      </trkpt>
      <trkpt lat="44.14145" lon="7.31268">
        <ele>2738.1999511719</ele>
        <time>2014-02-23T11:41:24.000Z</time>
      </trkpt>
      <trkpt lat="44.14144" lon="7.31269">
        <ele>2738.1999511719</ele>
        <time>2014-02-23T11:41:30.000Z</time>
      </trkpt>
      <trkpt lat="44.14115" lon="7.31274">
        <ele>2735.8000488281</ele>
        <time>2014-02-23T11:41:38.000Z</time>
      </trkpt>
      <trkpt lat="44.14091" lon="7.31276">
        <ele>2733</ele>
        <time>2014-02-23T11:41:42.000Z</time>
      </trkpt>
      <trkpt lat="44.1408" lon="7.31278">
        <ele>2730.8000488281</ele>
        <time>2014-02-23T11:41:44.000Z</time>
      </trkpt>
      <trkpt lat="44.1406" lon="7.31278">
        <ele>2725.8000488281</ele>
        <time>2014-02-23T11:41:49.000Z</time>
      </trkpt>
      <trkpt lat="44.14051" lon="7.31269">
        <ele>2722.3999023438</ele>
        <time>2014-02-23T11:41:54.000Z</time>
      </trkpt>
      <trkpt lat="44.14042" lon="7.31275">
        <ele>2718.8000488281</ele>
        <time>2014-02-23T11:41:57.000Z</time>
      </trkpt>
      <trkpt lat="44.14036" lon="7.3128">
        <ele>2715.3999023438</ele>
        <time>2014-02-23T11:41:59.000Z</time>
      </trkpt>
      <trkpt lat="44.14027" lon="7.31279">
        <ele>2711.8000488281</ele>
        <time>2014-02-23T11:42:01.000Z</time>
      </trkpt>
      <trkpt lat="44.14018" lon="7.31281">
        <ele>2711.8000488281</ele>
        <time>2014-02-23T11:42:03.000Z</time>
      </trkpt>
      <trkpt lat="44.14012" lon="7.3128">
        <ele>2709</ele>
        <time>2014-02-23T11:42:04.000Z</time>
      </trkpt>
      <trkpt lat="44.13996" lon="7.31284">
        <ele>2695.6000976562</ele>
        <time>2014-02-23T11:42:07.000Z</time>
      </trkpt>
      <trkpt lat="44.13991" lon="7.31286">
        <ele>2691.1999511719</ele>
        <time>2014-02-23T11:42:08.000Z</time>
      </trkpt>
      <trkpt lat="44.13981" lon="7.31283">
        <ele>2687</ele>
        <time>2014-02-23T11:42:10.000Z</time>
      </trkpt>
      <trkpt lat="44.13971" lon="7.31281">
        <ele>2685.6000976562</ele>
        <time>2014-02-23T11:42:11.000Z</time>
      </trkpt>
      <trkpt lat="44.1393" lon="7.3128">
        <ele>2677</ele>
        <time>2014-02-23T11:42:15.000Z</time>
      </trkpt>
      <trkpt lat="44.13902" lon="7.31282">
        <ele>2673</ele>
        <time>2014-02-23T11:42:18.000Z</time>
      </trkpt>
      <trkpt lat="44.1388" lon="7.31282">
        <ele>2669.8000488281</ele>
        <time>2014-02-23T11:42:20.000Z</time>
      </trkpt>
      <trkpt lat="44.1386" lon="7.31283">
        <ele>2665</ele>
        <time>2014-02-23T11:42:22.000Z</time>
      </trkpt>
      <trkpt lat="44.13847" lon="7.31281">
        <ele>2663.8000488281</ele>
        <time>2014-02-23T11:42:24.000Z</time>
      </trkpt>
      <trkpt lat="44.13827" lon="7.3129">
        <ele>2663.3999023438</ele>
        <time>2014-02-23T11:42:31.000Z</time>
      </trkpt>
      <trkpt lat="44.13826" lon="7.31289">
        <ele>2663.6000976562</ele>
        <time>2014-02-23T11:42:40.000Z</time>
      </trkpt>
      <trkpt lat="44.13829" lon="7.31287">
        <ele>2662.6000976562</ele>
        <time>2014-02-23T11:42:53.000Z</time>
      </trkpt>
      <trkpt lat="44.13831" lon="7.31287">
        <ele>2662.8000488281</ele>
        <time>2014-02-23T11:43:26.000Z</time>
      </trkpt>
      <trkpt lat="44.13829" lon="7.31282">
        <ele>2662</ele>
        <time>2014-02-23T11:43:49.000Z</time>
      </trkpt>
      <trkpt lat="44.1383" lon="7.31283">
        <ele>2662</ele>
        <time>2014-02-23T11:44:16.000Z</time>
      </trkpt>
      <trkpt lat="44.13828" lon="7.31282">
        <ele>2662</ele>
        <time>2014-02-23T11:44:42.000Z</time>
      </trkpt>
      <trkpt lat="44.13801" lon="7.3127">
        <ele>2658.3999023438</ele>
        <time>2014-02-23T11:44:47.000Z</time>
      </trkpt>
      <trkpt lat="44.13783" lon="7.31271">
        <ele>2654.3999023438</ele>
        <time>2014-02-23T11:44:49.000Z</time>
      </trkpt>
      <trkpt lat="44.13763" lon="7.31283">
        <ele>2651.1999511719</ele>
        <time>2014-02-23T11:44:51.000Z</time>
      </trkpt>
      <trkpt lat="44.13727" lon="7.31303">
        <ele>2646</ele>
        <time>2014-02-23T11:44:55.000Z</time>
      </trkpt>
      <trkpt lat="44.137" lon="7.31322">
        <ele>2643.6000976562</ele>
        <time>2014-02-23T11:44:59.000Z</time>
      </trkpt>
      <trkpt lat="44.13672" lon="7.31341">
        <ele>2639.1999511719</ele>
        <time>2014-02-23T11:45:04.000Z</time>
      </trkpt>
      <trkpt lat="44.13666" lon="7.31342">
        <ele>2638</ele>
        <time>2014-02-23T11:45:05.000Z</time>
      </trkpt>
      <trkpt lat="44.13654" lon="7.31343">
        <ele>2634.8000488281</ele>
        <time>2014-02-23T11:45:07.000Z</time>
      </trkpt>
      <trkpt lat="44.13635" lon="7.31346">
        <ele>2630</ele>
        <time>2014-02-23T11:45:10.000Z</time>
      </trkpt>
      <trkpt lat="44.13629" lon="7.31347">
        <ele>2628.3999023438</ele>
        <time>2014-02-23T11:45:11.000Z</time>
      </trkpt>
      <trkpt lat="44.1361" lon="7.31357">
        <ele>2623.3999023438</ele>
        <time>2014-02-23T11:45:14.000Z</time>
      </trkpt>
      <trkpt lat="44.13604" lon="7.31361">
        <ele>2622</ele>
        <time>2014-02-23T11:45:15.000Z</time>
      </trkpt>
      <trkpt lat="44.13574" lon="7.31387">
        <ele>2615</ele>
        <time>2014-02-23T11:45:21.000Z</time>
      </trkpt>
      <trkpt lat="44.13559" lon="7.31397">
        <ele>2611</ele>
        <time>2014-02-23T11:45:24.000Z</time>
      </trkpt>
      <trkpt lat="44.13546" lon="7.31406">
        <ele>2607.3999023438</ele>
        <time>2014-02-23T11:45:26.000Z</time>
      </trkpt>
      <trkpt lat="44.13533" lon="7.31412">
        <ele>2603</ele>
        <time>2014-02-23T11:45:28.000Z</time>
      </trkpt>
      <trkpt lat="44.13522" lon="7.31418">
        <ele>2599.3999023438</ele>
        <time>2014-02-23T11:45:30.000Z</time>
      </trkpt>
      <trkpt lat="44.13515" lon="7.3142">
        <ele>2595.3999023438</ele>
        <time>2014-02-23T11:45:32.000Z</time>
      </trkpt>
      <trkpt lat="44.13515" lon="7.31414">
        <ele>2592.6000976562</ele>
        <time>2014-02-23T11:45:39.000Z</time>
      </trkpt>
      <trkpt lat="44.13516" lon="7.31412">
        <ele>2593</ele>
        <time>2014-02-23T11:46:07.000Z</time>
      </trkpt>
      <trkpt lat="44.13516" lon="7.3141">
        <ele>2593</ele>
        <time>2014-02-23T11:46:24.000Z</time>
      </trkpt>
      <trkpt lat="44.13501" lon="7.3143">
        <ele>2588.8000488281</ele>
        <time>2014-02-23T11:46:30.000Z</time>
      </trkpt>
      <trkpt lat="44.13494" lon="7.31443">
        <ele>2585</ele>
        <time>2014-02-23T11:46:32.000Z</time>
      </trkpt>
      <trkpt lat="44.13487" lon="7.31454">
        <ele>2580.6000976562</ele>
        <time>2014-02-23T11:46:34.000Z</time>
      </trkpt>
      <trkpt lat="44.13482" lon="7.31462">
        <ele>2576.8000488281</ele>
        <time>2014-02-23T11:46:36.000Z</time>
      </trkpt>
      <trkpt lat="44.13477" lon="7.31472">
        <ele>2573.6000976562</ele>
        <time>2014-02-23T11:46:38.000Z</time>
      </trkpt>
      <trkpt lat="44.1348" lon="7.31481">
        <ele>2570.6000976562</ele>
        <time>2014-02-23T11:46:41.000Z</time>
      </trkpt>
      <trkpt lat="44.1348" lon="7.31483">
        <ele>2569.8000488281</ele>
        <time>2014-02-23T11:46:43.000Z</time>
      </trkpt>
      <trkpt lat="44.13481" lon="7.31482">
        <ele>2569.1999511719</ele>
        <time>2014-02-23T11:46:48.000Z</time>
      </trkpt>
      <trkpt lat="44.13473" lon="7.31475">
        <ele>2567.1999511719</ele>
        <time>2014-02-23T11:46:52.000Z</time>
      </trkpt>
      <trkpt lat="44.13451" lon="7.31481">
        <ele>2562.8000488281</ele>
        <time>2014-02-23T11:46:57.000Z</time>
      </trkpt>
      <trkpt lat="44.1344" lon="7.31493">
        <ele>2558</ele>
        <time>2014-02-23T11:46:59.000Z</time>
      </trkpt>
      <trkpt lat="44.13429" lon="7.31501">
        <ele>2554</ele>
        <time>2014-02-23T11:47:01.000Z</time>
      </trkpt>
      <trkpt lat="44.13412" lon="7.31513">
        <ele>2547.6000976562</ele>
        <time>2014-02-23T11:47:04.000Z</time>
      </trkpt>
      <trkpt lat="44.13402" lon="7.31522">
        <ele>2543.6000976562</ele>
        <time>2014-02-23T11:47:06.000Z</time>
      </trkpt>
      <trkpt lat="44.13391" lon="7.3153">
        <ele>2539.8000488281</ele>
        <time>2014-02-23T11:47:08.000Z</time>
      </trkpt>
      <trkpt lat="44.1338" lon="7.3154">
        <ele>2535.1999511719</ele>
        <time>2014-02-23T11:47:10.000Z</time>
      </trkpt>
      <trkpt lat="44.13368" lon="7.31545">
        <ele>2530.1999511719</ele>
        <time>2014-02-23T11:47:12.000Z</time>
      </trkpt>
      <trkpt lat="44.13358" lon="7.31549">
        <ele>2525.8000488281</ele>
        <time>2014-02-23T11:47:14.000Z</time>
      </trkpt>
      <trkpt lat="44.13352" lon="7.31551">
        <ele>2523.6000976562</ele>
        <time>2014-02-23T11:47:15.000Z</time>
      </trkpt>
      <trkpt lat="44.13331" lon="7.31557">
        <ele>2514.1999511719</ele>
        <time>2014-02-23T11:47:19.000Z</time>
      </trkpt>
      <trkpt lat="44.1332" lon="7.31567">
        <ele>2509.1999511719</ele>
        <time>2014-02-23T11:47:21.000Z</time>
      </trkpt>
      <trkpt lat="44.13308" lon="7.31566">
        <ele>2504.1999511719</ele>
        <time>2014-02-23T11:47:23.000Z</time>
      </trkpt>
      <trkpt lat="44.13302" lon="7.31567">
        <ele>2500.8000488281</ele>
        <time>2014-02-23T11:47:24.000Z</time>
      </trkpt>
      <trkpt lat="44.13291" lon="7.31561">
        <ele>2495.8000488281</ele>
        <time>2014-02-23T11:47:26.000Z</time>
      </trkpt>
      <trkpt lat="44.13279" lon="7.31565">
        <ele>2491.6000976562</ele>
        <time>2014-02-23T11:47:28.000Z</time>
      </trkpt>
      <trkpt lat="44.13272" lon="7.31555">
        <ele>2488</ele>
        <time>2014-02-23T11:47:30.000Z</time>
      </trkpt>
      <trkpt lat="44.13273" lon="7.31543">
        <ele>2486.3999023438</ele>
        <time>2014-02-23T11:47:35.000Z</time>
      </trkpt>
      <trkpt lat="44.13274" lon="7.31539">
        <ele>2487</ele>
        <time>2014-02-23T11:48:04.000Z</time>
      </trkpt>
      <trkpt lat="44.13276" lon="7.31537">
        <ele>2487.3999023438</ele>
        <time>2014-02-23T11:48:31.000Z</time>
      </trkpt>
      <trkpt lat="44.13278" lon="7.31534">
        <ele>2487.8000488281</ele>
        <time>2014-02-23T11:49:04.000Z</time>
      </trkpt>
      <trkpt lat="44.13278" lon="7.31533">
        <ele>2487.6000976562</ele>
        <time>2014-02-23T11:49:16.000Z</time>
      </trkpt>
      <trkpt lat="44.13257" lon="7.31543">
        <ele>2484.1999511719</ele>
        <time>2014-02-23T11:49:23.000Z</time>
      </trkpt>
      <trkpt lat="44.1325" lon="7.31554">
        <ele>2480.3999023438</ele>
        <time>2014-02-23T11:49:25.000Z</time>
      </trkpt>
      <trkpt lat="44.13246" lon="7.31562">
        <ele>2476.6000976562</ele>
        <time>2014-02-23T11:49:27.000Z</time>
      </trkpt>
      <trkpt lat="44.13244" lon="7.31568">
        <ele>2475</ele>
        <time>2014-02-23T11:49:28.000Z</time>
      </trkpt>
      <trkpt lat="44.13227" lon="7.31583">
        <ele>2467.3999023438</ele>
        <time>2014-02-23T11:49:32.000Z</time>
      </trkpt>
      <trkpt lat="44.13219" lon="7.31589">
        <ele>2463</ele>
        <time>2014-02-23T11:49:34.000Z</time>
      </trkpt>
      <trkpt lat="44.13215" lon="7.31591">
        <ele>2460.6000976562</ele>
        <time>2014-02-23T11:49:35.000Z</time>
      </trkpt>
      <trkpt lat="44.13196" lon="7.31606">
        <ele>2452</ele>
        <time>2014-02-23T11:49:39.000Z</time>
      </trkpt>
      <trkpt lat="44.13187" lon="7.31609">
        <ele>2447.1999511719</ele>
        <time>2014-02-23T11:49:41.000Z</time>
      </trkpt>
      <trkpt lat="44.13188" lon="7.31616">
        <ele>2443.6000976562</ele>
        <time>2014-02-23T11:49:43.000Z</time>
      </trkpt>
      <trkpt lat="44.1319" lon="7.31617">
        <ele>2442.1999511719</ele>
        <time>2014-02-23T11:49:44.000Z</time>
      </trkpt>
      <trkpt lat="44.13191" lon="7.31617">
        <ele>2441</ele>
        <time>2014-02-23T11:49:46.000Z</time>
      </trkpt>
      <trkpt lat="44.13193" lon="7.31615">
        <ele>2440.8000488281</ele>
        <time>2014-02-23T11:50:13.000Z</time>
      </trkpt>
      <trkpt lat="44.13193" lon="7.31614">
        <ele>2441.1999511719</ele>
        <time>2014-02-23T11:50:43.000Z</time>
      </trkpt>
      <trkpt lat="44.13193" lon="7.31614">
        <ele>2441</ele>
        <time>2014-02-23T11:51:06.000Z</time>
      </trkpt>
      <trkpt lat="44.1318" lon="7.31617">
        <ele>2438.1999511719</ele>
        <time>2014-02-23T11:51:10.000Z</time>
      </trkpt>
      <trkpt lat="44.1316" lon="7.31623">
        <ele>2429.6000976562</ele>
        <time>2014-02-23T11:51:14.000Z</time>
      </trkpt>
      <trkpt lat="44.13151" lon="7.31627">
        <ele>2425</ele>
        <time>2014-02-23T11:51:16.000Z</time>
      </trkpt>
      <trkpt lat="44.13143" lon="7.31625">
        <ele>2420</ele>
        <time>2014-02-23T11:51:18.000Z</time>
      </trkpt>
      <trkpt lat="44.13139" lon="7.31626">
        <ele>2418.6000976562</ele>
        <time>2014-02-23T11:51:19.000Z</time>
      </trkpt>
      <trkpt lat="44.13119" lon="7.31635">
        <ele>2410.3999023438</ele>
        <time>2014-02-23T11:51:23.000Z</time>
      </trkpt>
      <trkpt lat="44.1311" lon="7.3164">
        <ele>2405.3999023438</ele>
        <time>2014-02-23T11:51:25.000Z</time>
      </trkpt>
      <trkpt lat="44.13098" lon="7.31648">
        <ele>2400.6000976562</ele>
        <time>2014-02-23T11:51:27.000Z</time>
      </trkpt>
      <trkpt lat="44.13086" lon="7.31652">
        <ele>2395.3999023438</ele>
        <time>2014-02-23T11:51:29.000Z</time>
      </trkpt>
      <trkpt lat="44.13078" lon="7.3165">
        <ele>2390.1999511719</ele>
        <time>2014-02-23T11:51:30.000Z</time>
      </trkpt>
      <trkpt lat="44.13065" lon="7.31642">
        <ele>2386.8000488281</ele>
        <time>2014-02-23T11:51:32.000Z</time>
      </trkpt>
      <trkpt lat="44.13052" lon="7.31631">
        <ele>2382</ele>
        <time>2014-02-23T11:51:35.000Z</time>
      </trkpt>
      <trkpt lat="44.13043" lon="7.31619">
        <ele>2378.8000488281</ele>
        <time>2014-02-23T11:51:41.000Z</time>
      </trkpt>
      <trkpt lat="44.13042" lon="7.31617">
        <ele>2378.1999511719</ele>
        <time>2014-02-23T11:51:42.000Z</time>
      </trkpt>
      <trkpt lat="44.13032" lon="7.31625">
        <ele>2374.6000976562</ele>
        <time>2014-02-23T11:51:46.000Z</time>
      </trkpt>
      <trkpt lat="44.13022" lon="7.31633">
        <ele>2368.8000488281</ele>
        <time>2014-02-23T11:51:48.000Z</time>
      </trkpt>
      <trkpt lat="44.13014" lon="7.31649">
        <ele>2362.8000488281</ele>
        <time>2014-02-23T11:51:50.000Z</time>
      </trkpt>
      <trkpt lat="44.13008" lon="7.31653">
        <ele>2359.8000488281</ele>
        <time>2014-02-23T11:51:51.000Z</time>
      </trkpt>
      <trkpt lat="44.13001" lon="7.3166">
        <ele>2356.6000976562</ele>
        <time>2014-02-23T11:51:52.000Z</time>
      </trkpt>
      <trkpt lat="44.12986" lon="7.31673">
        <ele>2351.8000488281</ele>
        <time>2014-02-23T11:51:54.000Z</time>
      </trkpt>
      <trkpt lat="44.12972" lon="7.31682">
        <ele>2348</ele>
        <time>2014-02-23T11:51:56.000Z</time>
      </trkpt>
      <trkpt lat="44.12957" lon="7.31709">
        <ele>2343</ele>
        <time>2014-02-23T11:52:00.000Z</time>
      </trkpt>
      <trkpt lat="44.12941" lon="7.31729">
        <ele>2339.1999511719</ele>
        <time>2014-02-23T11:52:03.000Z</time>
      </trkpt>
      <trkpt lat="44.1293" lon="7.31742">
        <ele>2335.6000976562</ele>
        <time>2014-02-23T11:52:05.000Z</time>
      </trkpt>
      <trkpt lat="44.12923" lon="7.31756">
        <ele>2332.1999511719</ele>
        <time>2014-02-23T11:52:07.000Z</time>
      </trkpt>
      <trkpt lat="44.12914" lon="7.31766">
        <ele>2328.8000488281</ele>
        <time>2014-02-23T11:52:09.000Z</time>
      </trkpt>
      <trkpt lat="44.12911" lon="7.31778">
        <ele>2325.6000976562</ele>
        <time>2014-02-23T11:52:11.000Z</time>
      </trkpt>
      <trkpt lat="44.12907" lon="7.31782">
        <ele>2324.3999023438</ele>
        <time>2014-02-23T11:52:12.000Z</time>
      </trkpt>
      <trkpt lat="44.12902" lon="7.31785">
        <ele>2320</ele>
        <time>2014-02-23T11:52:18.000Z</time>
      </trkpt>
      <trkpt lat="44.12905" lon="7.31783">
        <ele>2319.8000488281</ele>
        <time>2014-02-23T11:52:46.000Z</time>
      </trkpt>
      <trkpt lat="44.12905" lon="7.31781">
        <ele>2320</ele>
        <time>2014-02-23T11:53:13.000Z</time>
      </trkpt>
      <trkpt lat="44.12907" lon="7.3178">
        <ele>2320</ele>
        <time>2014-02-23T11:53:51.000Z</time>
      </trkpt>
      <trkpt lat="44.12909" lon="7.31779">
        <ele>2320</ele>
        <time>2014-02-23T11:55:00.000Z</time>
      </trkpt>
      <trkpt lat="44.12909" lon="7.31781">
        <ele>2320</ele>
        <time>2014-02-23T11:55:35.000Z</time>
      </trkpt>
      <trkpt lat="44.12892" lon="7.31797">
        <ele>2316.6000976562</ele>
        <time>2014-02-23T11:55:40.000Z</time>
      </trkpt>
      <trkpt lat="44.1288" lon="7.3181">
        <ele>2313.6000976562</ele>
        <time>2014-02-23T11:55:42.000Z</time>
      </trkpt>
      <trkpt lat="44.1285" lon="7.31841">
        <ele>2307.1999511719</ele>
        <time>2014-02-23T11:55:46.000Z</time>
      </trkpt>
      <trkpt lat="44.12831" lon="7.31862">
        <ele>2304.1999511719</ele>
        <time>2014-02-23T11:55:49.000Z</time>
      </trkpt>
      <trkpt lat="44.12826" lon="7.3187">
        <ele>2303.8000488281</ele>
        <time>2014-02-23T11:55:50.000Z</time>
      </trkpt>
      <trkpt lat="44.12803" lon="7.31899">
        <ele>2299.6000976562</ele>
        <time>2014-02-23T11:55:54.000Z</time>
      </trkpt>
      <trkpt lat="44.12784" lon="7.31923">
        <ele>2294.8000488281</ele>
        <time>2014-02-23T11:55:57.000Z</time>
      </trkpt>
      <trkpt lat="44.12767" lon="7.31939">
        <ele>2292.3999023438</ele>
        <time>2014-02-23T11:56:00.000Z</time>
      </trkpt>
      <trkpt lat="44.12754" lon="7.31947">
        <ele>2291</ele>
        <time>2014-02-23T11:56:08.000Z</time>
      </trkpt>
      <trkpt lat="44.12754" lon="7.31948">
        <ele>2290.6000976562</ele>
        <time>2014-02-23T11:56:29.000Z</time>
      </trkpt>
      <trkpt lat="44.12754" lon="7.31948">
        <ele>2290.3999023438</ele>
        <time>2014-02-23T11:56:37.000Z</time>
      </trkpt>
      <trkpt lat="44.12746" lon="7.31977">
        <ele>2288.1999511719</ele>
        <time>2014-02-23T11:56:41.000Z</time>
      </trkpt>
      <trkpt lat="44.12739" lon="7.31994">
        <ele>2286.6000976562</ele>
        <time>2014-02-23T11:56:43.000Z</time>
      </trkpt>
      <trkpt lat="44.12728" lon="7.32011">
        <ele>2285.8000488281</ele>
        <time>2014-02-23T11:56:47.000Z</time>
      </trkpt>
      <trkpt lat="44.12703" lon="7.32048">
        <ele>2283.1999511719</ele>
        <time>2014-02-23T11:56:56.000Z</time>
      </trkpt>
      <trkpt lat="44.12685" lon="7.32065">
        <ele>2279.8000488281</ele>
        <time>2014-02-23T11:56:59.000Z</time>
      </trkpt>
      <trkpt lat="44.12664" lon="7.32088">
        <ele>2275</ele>
        <time>2014-02-23T11:57:03.000Z</time>
      </trkpt>
      <trkpt lat="44.12646" lon="7.32108">
        <ele>2271.3999023438</ele>
        <time>2014-02-23T11:57:07.000Z</time>
      </trkpt>
      <trkpt lat="44.12641" lon="7.32113">
        <ele>2270.1999511719</ele>
        <time>2014-02-23T11:57:08.000Z</time>
      </trkpt>
      <trkpt lat="44.12627" lon="7.32132">
        <ele>2269</ele>
        <time>2014-02-23T11:57:19.000Z</time>
      </trkpt>
      <trkpt lat="44.12627" lon="7.32132">
        <ele>2269</ele>
        <time>2014-02-23T11:57:23.000Z</time>
      </trkpt>
      <trkpt lat="44.12629" lon="7.32113">
        <ele>2265.3999023438</ele>
        <time>2014-02-23T11:57:29.000Z</time>
      </trkpt>
      <trkpt lat="44.1262" lon="7.32115">
        <ele>2261.1999511719</ele>
        <time>2014-02-23T11:57:31.000Z</time>
      </trkpt>
      <trkpt lat="44.12614" lon="7.32119">
        <ele>2258.8000488281</ele>
        <time>2014-02-23T11:57:32.000Z</time>
      </trkpt>
      <trkpt lat="44.12595" lon="7.32137">
        <ele>2253.1999511719</ele>
        <time>2014-02-23T11:57:36.000Z</time>
      </trkpt>
      <trkpt lat="44.12583" lon="7.3215">
        <ele>2251</ele>
        <time>2014-02-23T11:57:40.000Z</time>
      </trkpt>
      <trkpt lat="44.1256" lon="7.32177">
        <ele>2248</ele>
        <time>2014-02-23T11:57:49.000Z</time>
      </trkpt>
      <trkpt lat="44.12537" lon="7.32202">
        <ele>2246.1999511719</ele>
        <time>2014-02-23T11:58:00.000Z</time>
      </trkpt>
      <trkpt lat="44.12521" lon="7.32222">
        <ele>2246.6000976562</ele>
        <time>2014-02-23T11:58:12.000Z</time>
      </trkpt>
      <trkpt lat="44.12512" lon="7.32235">
        <ele>2245.8000488281</ele>
        <time>2014-02-23T11:58:21.000Z</time>
      </trkpt>
      <trkpt lat="44.12509" lon="7.32239">
        <ele>2246.1999511719</ele>
        <time>2014-02-23T11:58:25.000Z</time>
      </trkpt>
      <trkpt lat="44.12503" lon="7.32248">
        <ele>2246</ele>
        <time>2014-02-23T11:58:35.000Z</time>
      </trkpt>
      <trkpt lat="44.12502" lon="7.32249">
        <ele>2246.1999511719</ele>
        <time>2014-02-23T11:58:37.000Z</time>
      </trkpt>
      <trkpt lat="44.12494" lon="7.32256">
        <ele>2246</ele>
        <time>2014-02-23T11:58:54.000Z</time>
      </trkpt>
      <trkpt lat="44.12485" lon="7.32266">
        <ele>2246.3999023438</ele>
        <time>2014-02-23T11:59:11.000Z</time>
      </trkpt>
      <trkpt lat="44.12476" lon="7.32271">
        <ele>2247.3999023438</ele>
        <time>2014-02-23T11:59:33.000Z</time>
      </trkpt>
      <trkpt lat="44.12473" lon="7.32279">
        <ele>2248.3999023438</ele>
        <time>2014-02-23T11:59:56.000Z</time>
      </trkpt>
      <trkpt lat="44.12471" lon="7.32283">
        <ele>2248.8000488281</ele>
        <time>2014-02-23T12:00:14.000Z</time>
      </trkpt>
      <trkpt lat="44.12454" lon="7.32308">
        <ele>2247.6000976562</ele>
        <time>2014-02-23T12:00:31.000Z</time>
      </trkpt>
      <trkpt lat="44.12453" lon="7.32313">
        <ele>2247.3999023438</ele>
        <time>2014-02-23T12:00:42.000Z</time>
      </trkpt>
      <trkpt lat="44.12454" lon="7.32313">
        <ele>2247.6000976562</ele>
        <time>2014-02-23T12:01:13.000Z</time>
      </trkpt>
      <trkpt lat="44.12454" lon="7.3232">
        <ele>2247.6000976562</ele>
        <time>2014-02-23T12:01:30.000Z</time>
      </trkpt>
      <trkpt lat="44.12453" lon="7.32325">
        <ele>2247.1999511719</ele>
        <time>2014-02-23T12:01:53.000Z</time>
      </trkpt>
      <trkpt lat="44.12452" lon="7.32341">
        <ele>2247.1999511719</ele>
        <time>2014-02-23T12:02:11.000Z</time>
      </trkpt>
      <trkpt lat="44.12452" lon="7.32342">
        <ele>2247.1999511719</ele>
        <time>2014-02-23T12:02:22.000Z</time>
      </trkpt>
      <trkpt lat="44.12434" lon="7.32346">
        <ele>2244.1999511719</ele>
        <time>2014-02-23T12:02:27.000Z</time>
      </trkpt>
      <trkpt lat="44.12417" lon="7.3235">
        <ele>2236.1999511719</ele>
        <time>2014-02-23T12:02:31.000Z</time>
      </trkpt>
      <trkpt lat="44.12412" lon="7.3235">
        <ele>2233</ele>
        <time>2014-02-23T12:02:32.000Z</time>
      </trkpt>
      <trkpt lat="44.12404" lon="7.32364">
        <ele>2228.1999511719</ele>
        <time>2014-02-23T12:02:34.000Z</time>
      </trkpt>
      <trkpt lat="44.12401" lon="7.32375">
        <ele>2225.8000488281</ele>
        <time>2014-02-23T12:02:35.000Z</time>
      </trkpt>
      <trkpt lat="44.12387" lon="7.32428">
        <ele>2221.3999023438</ele>
        <time>2014-02-23T12:02:44.000Z</time>
      </trkpt>
      <trkpt lat="44.12389" lon="7.32448">
        <ele>2219.3999023438</ele>
        <time>2014-02-23T12:02:57.000Z</time>
      </trkpt>
      <trkpt lat="44.12389" lon="7.32466">
        <ele>2220</ele>
        <time>2014-02-23T12:03:12.000Z</time>
      </trkpt>
      <trkpt lat="44.12393" lon="7.32499">
        <ele>2219</ele>
        <time>2014-02-23T12:03:22.000Z</time>
      </trkpt>
      <trkpt lat="44.12395" lon="7.32516">
        <ele>2218.1999511719</ele>
        <time>2014-02-23T12:03:29.000Z</time>
      </trkpt>
      <trkpt lat="44.124" lon="7.32549">
        <ele>2214.1999511719</ele>
        <time>2014-02-23T12:03:33.000Z</time>
      </trkpt>
      <trkpt lat="44.12402" lon="7.32553">
        <ele>2214.1999511719</ele>
        <time>2014-02-23T12:03:34.000Z</time>
      </trkpt>
      <trkpt lat="44.12402" lon="7.32554">
        <ele>2214.6000976562</ele>
        <time>2014-02-23T12:03:44.000Z</time>
      </trkpt>
      <trkpt lat="44.12402" lon="7.32552">
        <ele>2215</ele>
        <time>2014-02-23T12:04:12.000Z</time>
      </trkpt>
      <trkpt lat="44.12403" lon="7.32551">
        <ele>2214.8000488281</ele>
        <time>2014-02-23T12:04:41.000Z</time>
      </trkpt>
      <trkpt lat="44.12403" lon="7.32551">
        <ele>2214.8000488281</ele>
        <time>2014-02-23T12:05:08.000Z</time>
      </trkpt>
      <trkpt lat="44.12404" lon="7.3255">
        <ele>2214.8000488281</ele>
        <time>2014-02-23T12:05:38.000Z</time>
      </trkpt>
      <trkpt lat="44.12404" lon="7.32551">
        <ele>2214.3999023438</ele>
        <time>2014-02-23T12:05:48.000Z</time>
      </trkpt>
      <trkpt lat="44.12416" lon="7.32576">
        <ele>2211</ele>
        <time>2014-02-23T12:05:55.000Z</time>
      </trkpt>
      <trkpt lat="44.12407" lon="7.32583">
        <ele>2207.1999511719</ele>
        <time>2014-02-23T12:05:58.000Z</time>
      </trkpt>
      <trkpt lat="44.12407" lon="7.32601">
        <ele>2203.8000488281</ele>
        <time>2014-02-23T12:06:00.000Z</time>
      </trkpt>
      <trkpt lat="44.12409" lon="7.32609">
        <ele>2201.6000976562</ele>
        <time>2014-02-23T12:06:01.000Z</time>
      </trkpt>
      <trkpt lat="44.124" lon="7.32619">
        <ele>2194.6000976562</ele>
        <time>2014-02-23T12:06:05.000Z</time>
      </trkpt>
      <trkpt lat="44.12391" lon="7.32624">
        <ele>2191</ele>
        <time>2014-02-23T12:06:07.000Z</time>
      </trkpt>
      <trkpt lat="44.1238" lon="7.32629">
        <ele>2185.1999511719</ele>
        <time>2014-02-23T12:06:09.000Z</time>
      </trkpt>
      <trkpt lat="44.12371" lon="7.32638">
        <ele>2179.1999511719</ele>
        <time>2014-02-23T12:06:11.000Z</time>
      </trkpt>
      <trkpt lat="44.12366" lon="7.32638">
        <ele>2175.3999023438</ele>
        <time>2014-02-23T12:06:12.000Z</time>
      </trkpt>
      <trkpt lat="44.12358" lon="7.32639">
        <ele>2170.8000488281</ele>
        <time>2014-02-23T12:06:14.000Z</time>
      </trkpt>
      <trkpt lat="44.12352" lon="7.32647">
        <ele>2165.3999023438</ele>
        <time>2014-02-23T12:06:16.000Z</time>
      </trkpt>
      <trkpt lat="44.12347" lon="7.32651">
        <ele>2162.3999023438</ele>
        <time>2014-02-23T12:06:17.000Z</time>
      </trkpt>
      <trkpt lat="44.12335" lon="7.32674">
        <ele>2152.8000488281</ele>
        <time>2014-02-23T12:06:20.000Z</time>
      </trkpt>
      <trkpt lat="44.12338" lon="7.32678">
        <ele>2149.6000976562</ele>
        <time>2014-02-23T12:06:21.000Z</time>
      </trkpt>
      <trkpt lat="44.1234" lon="7.32681">
        <ele>2145.8000488281</ele>
        <time>2014-02-23T12:06:24.000Z</time>
      </trkpt>
      <trkpt lat="44.12341" lon="7.3268">
        <ele>2145.3999023438</ele>
        <time>2014-02-23T12:06:52.000Z</time>
      </trkpt>
      <trkpt lat="44.12341" lon="7.32679">
        <ele>2145.8000488281</ele>
        <time>2014-02-23T12:07:25.000Z</time>
      </trkpt>
      <trkpt lat="44.12341" lon="7.32676">
        <ele>2146.1999511719</ele>
        <time>2014-02-23T12:07:55.000Z</time>
      </trkpt>
      <trkpt lat="44.12341" lon="7.32676">
        <ele>2146</ele>
        <time>2014-02-23T12:08:00.000Z</time>
      </trkpt>
      <trkpt lat="44.1235" lon="7.32691">
        <ele>2142.6000976562</ele>
        <time>2014-02-23T12:08:07.000Z</time>
      </trkpt>
      <trkpt lat="44.1235" lon="7.32694">
        <ele>2142.1999511719</ele>
        <time>2014-02-23T12:08:08.000Z</time>
      </trkpt>
      <trkpt lat="44.12344" lon="7.32698">
        <ele>2137.6000976562</ele>
        <time>2014-02-23T12:08:12.000Z</time>
      </trkpt>
      <trkpt lat="44.12345" lon="7.32706">
        <ele>2133.6000976562</ele>
        <time>2014-02-23T12:08:14.000Z</time>
      </trkpt>
      <trkpt lat="44.12347" lon="7.32718">
        <ele>2128.6000976562</ele>
        <time>2014-02-23T12:08:16.000Z</time>
      </trkpt>
      <trkpt lat="44.12344" lon="7.32729">
        <ele>2123.8000488281</ele>
        <time>2014-02-23T12:08:18.000Z</time>
      </trkpt>
      <trkpt lat="44.12347" lon="7.3274">
        <ele>2118.8000488281</ele>
        <time>2014-02-23T12:08:20.000Z</time>
      </trkpt>
      <trkpt lat="44.12348" lon="7.32756">
        <ele>2111.6000976562</ele>
        <time>2014-02-23T12:08:24.000Z</time>
      </trkpt>
      <trkpt lat="44.12351" lon="7.32764">
        <ele>2107.6000976562</ele>
        <time>2014-02-23T12:08:26.000Z</time>
      </trkpt>
      <trkpt lat="44.12351" lon="7.32765">
        <ele>2105.8000488281</ele>
        <time>2014-02-23T12:08:29.000Z</time>
      </trkpt>
      <trkpt lat="44.1235" lon="7.32766">
        <ele>2105.6000976562</ele>
        <time>2014-02-23T12:08:30.000Z</time>
      </trkpt>
      <trkpt lat="44.12337" lon="7.32767">
        <ele>2100.8000488281</ele>
        <time>2014-02-23T12:08:34.000Z</time>
      </trkpt>
      <trkpt lat="44.12337" lon="7.32765">
        <ele>2097.3999023438</ele>
        <time>2014-02-23T12:08:44.000Z</time>
      </trkpt>
      <trkpt lat="44.12319" lon="7.32775">
        <ele>2094</ele>
        <time>2014-02-23T12:08:47.000Z</time>
      </trkpt>
      <trkpt lat="44.12312" lon="7.32775">
        <ele>2090.8000488281</ele>
        <time>2014-02-23T12:08:49.000Z</time>
      </trkpt>
      <trkpt lat="44.12306" lon="7.32774">
        <ele>2088.8000488281</ele>
        <time>2014-02-23T12:08:52.000Z</time>
      </trkpt>
      <trkpt lat="44.123" lon="7.32789">
        <ele>2084</ele>
        <time>2014-02-23T12:08:56.000Z</time>
      </trkpt>
      <trkpt lat="44.12296" lon="7.32798">
        <ele>2079.8000488281</ele>
        <time>2014-02-23T12:08:58.000Z</time>
      </trkpt>
      <trkpt lat="44.1229" lon="7.32806">
        <ele>2075.1999511719</ele>
        <time>2014-02-23T12:09:00.000Z</time>
      </trkpt>
      <trkpt lat="44.12283" lon="7.32805">
        <ele>2071.3999023438</ele>
        <time>2014-02-23T12:09:02.000Z</time>
      </trkpt>
      <trkpt lat="44.1228" lon="7.32809">
        <ele>2068.1999511719</ele>
        <time>2014-02-23T12:09:04.000Z</time>
      </trkpt>
      <trkpt lat="44.12275" lon="7.32817">
        <ele>2064.1999511719</ele>
        <time>2014-02-23T12:09:06.000Z</time>
      </trkpt>
      <trkpt lat="44.12273" lon="7.32826">
        <ele>2060.1999511719</ele>
        <time>2014-02-23T12:09:08.000Z</time>
      </trkpt>
      <trkpt lat="44.12272" lon="7.32831">
        <ele>2056.8000488281</ele>
        <time>2014-02-23T12:09:10.000Z</time>
      </trkpt>
      <trkpt lat="44.12271" lon="7.32828">
        <ele>2053.8000488281</ele>
        <time>2014-02-23T12:09:12.000Z</time>
      </trkpt>
      <trkpt lat="44.12266" lon="7.32826">
        <ele>2050.1999511719</ele>
        <time>2014-02-23T12:09:17.000Z</time>
      </trkpt>
      <trkpt lat="44.12273" lon="7.32841">
        <ele>2044.8000488281</ele>
        <time>2014-02-23T12:09:20.000Z</time>
      </trkpt>
      <trkpt lat="44.12277" lon="7.32848">
        <ele>2042.4000244141</ele>
        <time>2014-02-23T12:09:21.000Z</time>
      </trkpt>
      <trkpt lat="44.12281" lon="7.32852">
        <ele>2040</ele>
        <time>2014-02-23T12:09:24.000Z</time>
      </trkpt>
      <trkpt lat="44.12282" lon="7.32853">
        <ele>2039.4000244141</ele>
        <time>2014-02-23T12:09:27.000Z</time>
      </trkpt>
      <trkpt lat="44.12271" lon="7.32857">
        <ele>2036.1999511719</ele>
        <time>2014-02-23T12:09:31.000Z</time>
      </trkpt>
      <trkpt lat="44.12264" lon="7.32861">
        <ele>2032.5999755859</ele>
        <time>2014-02-23T12:09:33.000Z</time>
      </trkpt>
      <trkpt lat="44.12257" lon="7.32872">
        <ele>2028.8000488281</ele>
        <time>2014-02-23T12:09:35.000Z</time>
      </trkpt>
      <trkpt lat="44.12247" lon="7.32881">
        <ele>2023.8000488281</ele>
        <time>2014-02-23T12:09:37.000Z</time>
      </trkpt>
      <trkpt lat="44.12239" lon="7.32889">
        <ele>2020.5999755859</ele>
        <time>2014-02-23T12:09:39.000Z</time>
      </trkpt>
      <trkpt lat="44.12228" lon="7.32902">
        <ele>2013.4000244141</ele>
        <time>2014-02-23T12:09:44.000Z</time>
      </trkpt>
      <trkpt lat="44.1223" lon="7.32905">
        <ele>2012.5999755859</ele>
        <time>2014-02-23T12:09:45.000Z</time>
      </trkpt>
      <trkpt lat="44.12232" lon="7.32906">
        <ele>2011.8000488281</ele>
        <time>2014-02-23T12:09:47.000Z</time>
      </trkpt>
      <trkpt lat="44.12234" lon="7.32905">
        <ele>2011.5999755859</ele>
        <time>2014-02-23T12:10:11.000Z</time>
      </trkpt>
      <trkpt lat="44.12237" lon="7.32904">
        <ele>2011.8000488281</ele>
        <time>2014-02-23T12:10:38.000Z</time>
      </trkpt>
      <trkpt lat="44.12236" lon="7.32905">
        <ele>2012</ele>
        <time>2014-02-23T12:11:08.000Z</time>
      </trkpt>
      <trkpt lat="44.12237" lon="7.32902">
        <ele>2012.1999511719</ele>
        <time>2014-02-23T12:11:31.000Z</time>
      </trkpt>
      <trkpt lat="44.12239" lon="7.329">
        <ele>2012.4000244141</ele>
        <time>2014-02-23T12:12:03.000Z</time>
      </trkpt>
      <trkpt lat="44.12239" lon="7.32898">
        <ele>2012.8000488281</ele>
        <time>2014-02-23T12:12:30.000Z</time>
      </trkpt>
      <trkpt lat="44.1224" lon="7.32898">
        <ele>2012.5999755859</ele>
        <time>2014-02-23T12:12:57.000Z</time>
      </trkpt>
      <trkpt lat="44.12239" lon="7.32899">
        <ele>2013</ele>
        <time>2014-02-23T12:13:25.000Z</time>
      </trkpt>
      <trkpt lat="44.12245" lon="7.32933">
        <ele>2009.5999755859</ele>
        <time>2014-02-23T12:13:33.000Z</time>
      </trkpt>
      <trkpt lat="44.12239" lon="7.32936">
        <ele>2009</ele>
        <time>2014-02-23T12:13:35.000Z</time>
      </trkpt>
      <trkpt lat="44.12213" lon="7.32946">
        <ele>2002.5999755859</ele>
        <time>2014-02-23T12:13:40.000Z</time>
      </trkpt>
      <trkpt lat="44.12203" lon="7.32949">
        <ele>2000.1999511719</ele>
        <time>2014-02-23T12:13:42.000Z</time>
      </trkpt>
      <trkpt lat="44.1218" lon="7.32953">
        <ele>1995.4000244141</ele>
        <time>2014-02-23T12:13:48.000Z</time>
      </trkpt>
      <trkpt lat="44.12163" lon="7.32962">
        <ele>1992.1999511719</ele>
        <time>2014-02-23T12:13:52.000Z</time>
      </trkpt>
      <trkpt lat="44.12154" lon="7.32976">
        <ele>1988.5999755859</ele>
        <time>2014-02-23T12:13:55.000Z</time>
      </trkpt>
      <trkpt lat="44.12146" lon="7.3299">
        <ele>1984.5999755859</ele>
        <time>2014-02-23T12:13:58.000Z</time>
      </trkpt>
      <trkpt lat="44.12142" lon="7.32991">
        <ele>1983.1999511719</ele>
        <time>2014-02-23T12:13:59.000Z</time>
      </trkpt>
      <trkpt lat="44.12136" lon="7.32992">
        <ele>1980</ele>
        <time>2014-02-23T12:14:01.000Z</time>
      </trkpt>
      <trkpt lat="44.1213" lon="7.33008">
        <ele>1975.4000244141</ele>
        <time>2014-02-23T12:14:04.000Z</time>
      </trkpt>
      <trkpt lat="44.12123" lon="7.33015">
        <ele>1972.5999755859</ele>
        <time>2014-02-23T12:14:06.000Z</time>
      </trkpt>
      <trkpt lat="44.12111" lon="7.3303">
        <ele>1968.4000244141</ele>
        <time>2014-02-23T12:14:09.000Z</time>
      </trkpt>
      <trkpt lat="44.12108" lon="7.33039">
        <ele>1964.1999511719</ele>
        <time>2014-02-23T12:14:14.000Z</time>
      </trkpt>
      <trkpt lat="44.12107" lon="7.33039">
        <ele>1963.8000488281</ele>
        <time>2014-02-23T12:14:37.000Z</time>
      </trkpt>
      <trkpt lat="44.12106" lon="7.33042">
        <ele>1963.4000244141</ele>
        <time>2014-02-23T12:14:50.000Z</time>
      </trkpt>
      <trkpt lat="44.12086" lon="7.3304">
        <ele>1959.5999755859</ele>
        <time>2014-02-23T12:14:54.000Z</time>
      </trkpt>
      <trkpt lat="44.12075" lon="7.33033">
        <ele>1956</ele>
        <time>2014-02-23T12:14:56.000Z</time>
      </trkpt>
      <trkpt lat="44.12065" lon="7.33033">
        <ele>1952.4000244141</ele>
        <time>2014-02-23T12:14:59.000Z</time>
      </trkpt>
      <trkpt lat="44.12059" lon="7.33026">
        <ele>1949.4000244141</ele>
        <time>2014-02-23T12:15:03.000Z</time>
      </trkpt>
      <trkpt lat="44.12059" lon="7.33027">
        <ele>1948.8000488281</ele>
        <time>2014-02-23T12:15:05.000Z</time>
      </trkpt>
      <trkpt lat="44.12058" lon="7.3303">
        <ele>1948.1999511719</ele>
        <time>2014-02-23T12:15:27.000Z</time>
      </trkpt>
      <trkpt lat="44.12059" lon="7.3303">
        <ele>1948.5999755859</ele>
        <time>2014-02-23T12:15:51.000Z</time>
      </trkpt>
      <trkpt lat="44.12058" lon="7.33033">
        <ele>1948.5999755859</ele>
        <time>2014-02-23T12:16:14.000Z</time>
      </trkpt>
      <trkpt lat="44.12059" lon="7.33033">
        <ele>1949</ele>
        <time>2014-02-23T12:16:42.000Z</time>
      </trkpt>
      <trkpt lat="44.12058" lon="7.33034">
        <ele>1949.4000244141</ele>
        <time>2014-02-23T12:17:09.000Z</time>
      </trkpt>
      <trkpt lat="44.12036" lon="7.33014">
        <ele>1947.1999511719</ele>
        <time>2014-02-23T12:17:16.000Z</time>
      </trkpt>
      <trkpt lat="44.12021" lon="7.33004">
        <ele>1946.1999511719</ele>
        <time>2014-02-23T12:17:21.000Z</time>
      </trkpt>
      <trkpt lat="44.1202" lon="7.32995">
        <ele>1944.8000488281</ele>
        <time>2014-02-23T12:17:25.000Z</time>
      </trkpt>
      <trkpt lat="44.11999" lon="7.32973">
        <ele>1943</ele>
        <time>2014-02-23T12:17:37.000Z</time>
      </trkpt>
      <trkpt lat="44.11996" lon="7.32971">
        <ele>1942.8000488281</ele>
        <time>2014-02-23T12:17:38.000Z</time>
      </trkpt>
      <trkpt lat="44.11983" lon="7.32961">
        <ele>1941.1999511719</ele>
        <time>2014-02-23T12:17:42.000Z</time>
      </trkpt>
      <trkpt lat="44.11975" lon="7.32946">
        <ele>1940.8000488281</ele>
        <time>2014-02-23T12:17:49.000Z</time>
      </trkpt>
      <trkpt lat="44.11963" lon="7.32934">
        <ele>1937.1999511719</ele>
        <time>2014-02-23T12:17:53.000Z</time>
      </trkpt>
      <trkpt lat="44.11948" lon="7.32927">
        <ele>1933.4000244141</ele>
        <time>2014-02-23T12:17:57.000Z</time>
      </trkpt>
      <trkpt lat="44.11932" lon="7.32917">
        <ele>1930.8000488281</ele>
        <time>2014-02-23T12:18:01.000Z</time>
      </trkpt>
      <trkpt lat="44.11928" lon="7.32917">
        <ele>1930.5999755859</ele>
        <time>2014-02-23T12:18:04.000Z</time>
      </trkpt>
      <trkpt lat="44.11925" lon="7.32914">
        <ele>1931</ele>
        <time>2014-02-23T12:18:15.000Z</time>
      </trkpt>
      <trkpt lat="44.11903" lon="7.32902">
        <ele>1930</ele>
        <time>2014-02-23T12:18:24.000Z</time>
      </trkpt>
      <trkpt lat="44.11898" lon="7.32897">
        <ele>1929.8000488281</ele>
        <time>2014-02-23T12:18:27.000Z</time>
      </trkpt>
      <trkpt lat="44.11889" lon="7.32895">
        <ele>1929.1999511719</ele>
        <time>2014-02-23T12:18:30.000Z</time>
      </trkpt>
      <trkpt lat="44.11866" lon="7.32886">
        <ele>1926.1999511719</ele>
        <time>2014-02-23T12:18:34.000Z</time>
      </trkpt>
      <trkpt lat="44.11847" lon="7.32862">
        <ele>1922.1999511719</ele>
        <time>2014-02-23T12:18:40.000Z</time>
      </trkpt>
      <trkpt lat="44.11846" lon="7.3286">
        <ele>1921.8000488281</ele>
        <time>2014-02-23T12:18:41.000Z</time>
      </trkpt>
      <trkpt lat="44.11833" lon="7.32859">
        <ele>1919</ele>
        <time>2014-02-23T12:18:49.000Z</time>
      </trkpt>
      <trkpt lat="44.11813" lon="7.32844">
        <ele>1916.8000488281</ele>
        <time>2014-02-23T12:18:59.000Z</time>
      </trkpt>
      <trkpt lat="44.11811" lon="7.32843">
        <ele>1916.5999755859</ele>
        <time>2014-02-23T12:19:00.000Z</time>
      </trkpt>
      <trkpt lat="44.11794" lon="7.32842">
        <ele>1913</ele>
        <time>2014-02-23T12:19:04.000Z</time>
      </trkpt>
      <trkpt lat="44.11789" lon="7.32842">
        <ele>1912</ele>
        <time>2014-02-23T12:19:05.000Z</time>
      </trkpt>
      <trkpt lat="44.11784" lon="7.32841">
        <ele>1908.8000488281</ele>
        <time>2014-02-23T12:19:10.000Z</time>
      </trkpt>
      <trkpt lat="44.11784" lon="7.32842">
        <ele>1908.5999755859</ele>
        <time>2014-02-23T12:19:17.000Z</time>
      </trkpt>
      <trkpt lat="44.11773" lon="7.32846">
        <ele>1905.8000488281</ele>
        <time>2014-02-23T12:19:23.000Z</time>
      </trkpt>
      <trkpt lat="44.11772" lon="7.32839">
        <ele>1905.1999511719</ele>
        <time>2014-02-23T12:19:25.000Z</time>
      </trkpt>
      <trkpt lat="44.11767" lon="7.32825">
        <ele>1904</ele>
        <time>2014-02-23T12:19:28.000Z</time>
      </trkpt>
      <trkpt lat="44.11753" lon="7.32807">
        <ele>1901</ele>
        <time>2014-02-23T12:19:32.000Z</time>
      </trkpt>
      <trkpt lat="44.11739" lon="7.32789">
        <ele>1897.8000488281</ele>
        <time>2014-02-23T12:19:37.000Z</time>
      </trkpt>
      <trkpt lat="44.11733" lon="7.32769">
        <ele>1896.4000244141</ele>
        <time>2014-02-23T12:19:41.000Z</time>
      </trkpt>
      <trkpt lat="44.11711" lon="7.3276">
        <ele>1892.4000244141</ele>
        <time>2014-02-23T12:19:46.000Z</time>
      </trkpt>
      <trkpt lat="44.11704" lon="7.32758">
        <ele>1890.4000244141</ele>
        <time>2014-02-23T12:19:50.000Z</time>
      </trkpt>
      <trkpt lat="44.11701" lon="7.3276">
        <ele>1889.5999755859</ele>
        <time>2014-02-23T12:20:16.000Z</time>
      </trkpt>
      <trkpt lat="44.11701" lon="7.32757">
        <ele>1889.8000488281</ele>
        <time>2014-02-23T12:20:20.000Z</time>
      </trkpt>
      <trkpt lat="44.11694" lon="7.32751">
        <ele>1889.4000244141</ele>
        <time>2014-02-23T12:20:26.000Z</time>
      </trkpt>
      <trkpt lat="44.11683" lon="7.32747">
        <ele>1889</ele>
        <time>2014-02-23T12:20:29.000Z</time>
      </trkpt>
      <trkpt lat="44.11664" lon="7.32738">
        <ele>1887.4000244141</ele>
        <time>2014-02-23T12:20:34.000Z</time>
      </trkpt>
      <trkpt lat="44.11639" lon="7.32711">
        <ele>1885.1999511719</ele>
        <time>2014-02-23T12:20:44.000Z</time>
      </trkpt>
      <trkpt lat="44.11635" lon="7.32703">
        <ele>1884.8000488281</ele>
        <time>2014-02-23T12:20:46.000Z</time>
      </trkpt>
      <trkpt lat="44.11615" lon="7.32687">
        <ele>1882</ele>
        <time>2014-02-23T12:20:51.000Z</time>
      </trkpt>
      <trkpt lat="44.11591" lon="7.32672">
        <ele>1879.1999511719</ele>
        <time>2014-02-23T12:21:01.000Z</time>
      </trkpt>
      <trkpt lat="44.11591" lon="7.32672">
        <ele>1879.4000244141</ele>
        <time>2014-02-23T12:21:06.000Z</time>
      </trkpt>
      <trkpt lat="44.11599" lon="7.32656">
        <ele>1877.4000244141</ele>
        <time>2014-02-23T12:21:15.000Z</time>
      </trkpt>
      <trkpt lat="44.11599" lon="7.32647">
        <ele>1877.5999755859</ele>
        <time>2014-02-23T12:21:22.000Z</time>
      </trkpt>
      <trkpt lat="44.11601" lon="7.32605">
        <ele>1876</ele>
        <time>2014-02-23T12:21:31.000Z</time>
      </trkpt>
      <trkpt lat="44.11595" lon="7.32551">
        <ele>1873.8000488281</ele>
        <time>2014-02-23T12:21:40.000Z</time>
      </trkpt>
      <trkpt lat="44.11591" lon="7.32534">
        <ele>1874.1999511719</ele>
        <time>2014-02-23T12:21:45.000Z</time>
      </trkpt>
      <trkpt lat="44.1158" lon="7.32511">
        <ele>1872.4000244141</ele>
        <time>2014-02-23T12:21:49.000Z</time>
      </trkpt>
      <trkpt lat="44.11559" lon="7.32486">
        <ele>1869.1999511719</ele>
        <time>2014-02-23T12:21:55.000Z</time>
      </trkpt>
      <trkpt lat="44.11531" lon="7.32463">
        <ele>1866.1999511719</ele>
        <time>2014-02-23T12:22:02.000Z</time>
      </trkpt>
      <trkpt lat="44.11523" lon="7.32455">
        <ele>1865.5999755859</ele>
        <time>2014-02-23T12:22:04.000Z</time>
      </trkpt>
      <trkpt lat="44.11512" lon="7.3244">
        <ele>1865.8000488281</ele>
        <time>2014-02-23T12:22:11.000Z</time>
      </trkpt>
      <trkpt lat="44.11501" lon="7.32429">
        <ele>1864.4000244141</ele>
        <time>2014-02-23T12:22:15.000Z</time>
      </trkpt>
      <trkpt lat="44.1149" lon="7.32415">
        <ele>1863.8000488281</ele>
        <time>2014-02-23T12:22:18.000Z</time>
      </trkpt>
      <trkpt lat="44.11474" lon="7.32388">
        <ele>1863.1999511719</ele>
        <time>2014-02-23T12:22:26.000Z</time>
      </trkpt>
      <trkpt lat="44.11468" lon="7.32364">
        <ele>1863</ele>
        <time>2014-02-23T12:22:32.000Z</time>
      </trkpt>
      <trkpt lat="44.11454" lon="7.32341">
        <ele>1859.5999755859</ele>
        <time>2014-02-23T12:22:38.000Z</time>
      </trkpt>
      <trkpt lat="44.11445" lon="7.32326">
        <ele>1856.4000244141</ele>
        <time>2014-02-23T12:22:42.000Z</time>
      </trkpt>
      <trkpt lat="44.11443" lon="7.32322">
        <ele>1855.8000488281</ele>
        <time>2014-02-23T12:22:43.000Z</time>
      </trkpt>
      <trkpt lat="44.11438" lon="7.32311">
        <ele>1854</ele>
        <time>2014-02-23T12:22:46.000Z</time>
      </trkpt>
      <trkpt lat="44.11428" lon="7.32313">
        <ele>1853</ele>
        <time>2014-02-23T12:22:50.000Z</time>
      </trkpt>
      <trkpt lat="44.1142" lon="7.32314">
        <ele>1852.1999511719</ele>
        <time>2014-02-23T12:22:54.000Z</time>
      </trkpt>
      <trkpt lat="44.11417" lon="7.32307">
        <ele>1852.1999511719</ele>
        <time>2014-02-23T12:23:07.000Z</time>
      </trkpt>
      <trkpt lat="44.11418" lon="7.323">
        <ele>1852.4000244141</ele>
        <time>2014-02-23T12:23:27.000Z</time>
      </trkpt>
      <trkpt lat="44.11407" lon="7.32269">
        <ele>1851.5999755859</ele>
        <time>2014-02-23T12:23:36.000Z</time>
      </trkpt>
      <trkpt lat="44.11404" lon="7.32265">
        <ele>1851.1999511719</ele>
        <time>2014-02-23T12:23:38.000Z</time>
      </trkpt>
      <trkpt lat="44.11399" lon="7.32254">
        <ele>1851.4000244141</ele>
        <time>2014-02-23T12:23:49.000Z</time>
      </trkpt>
      <trkpt lat="44.11389" lon="7.32233">
        <ele>1851.5999755859</ele>
        <time>2014-02-23T12:24:02.000Z</time>
      </trkpt>
      <trkpt lat="44.11379" lon="7.32221">
        <ele>1851.1999511719</ele>
        <time>2014-02-23T12:24:07.000Z</time>
      </trkpt>
      <trkpt lat="44.11344" lon="7.32183">
        <ele>1848.5999755859</ele>
        <time>2014-02-23T12:24:18.000Z</time>
      </trkpt>
      <trkpt lat="44.1132" lon="7.32166">
        <ele>1847.5999755859</ele>
        <time>2014-02-23T12:24:25.000Z</time>
      </trkpt>
      <trkpt lat="44.11318" lon="7.32167">
        <ele>1846.8000488281</ele>
        <time>2014-02-23T12:24:33.000Z</time>
      </trkpt>
      <trkpt lat="44.113" lon="7.32169">
        <ele>1843.4000244141</ele>
        <time>2014-02-23T12:24:40.000Z</time>
      </trkpt>
      <trkpt lat="44.11295" lon="7.32167">
        <ele>1842.8000488281</ele>
        <time>2014-02-23T12:24:42.000Z</time>
      </trkpt>
      <trkpt lat="44.11294" lon="7.32177">
        <ele>1839.4000244141</ele>
        <time>2014-02-23T12:24:46.000Z</time>
      </trkpt>
      <trkpt lat="44.11296" lon="7.32181">
        <ele>1838.4000244141</ele>
        <time>2014-02-23T12:24:48.000Z</time>
      </trkpt>
      <trkpt lat="44.113" lon="7.32199">
        <ele>1837.4000244141</ele>
        <time>2014-02-23T12:24:53.000Z</time>
      </trkpt>
      <trkpt lat="44.11301" lon="7.32206">
        <ele>1834.8000488281</ele>
        <time>2014-02-23T12:24:56.000Z</time>
      </trkpt>
      <trkpt lat="44.11299" lon="7.32208">
        <ele>1834.4000244141</ele>
        <time>2014-02-23T12:25:00.000Z</time>
      </trkpt>
      <trkpt lat="44.11287" lon="7.32228">
        <ele>1831.1999511719</ele>
        <time>2014-02-23T12:25:05.000Z</time>
      </trkpt>
      <trkpt lat="44.11283" lon="7.32241">
        <ele>1829.8000488281</ele>
        <time>2014-02-23T12:25:08.000Z</time>
      </trkpt>
      <trkpt lat="44.11281" lon="7.32242">
        <ele>1829.8000488281</ele>
        <time>2014-02-23T12:25:09.000Z</time>
      </trkpt>
      <trkpt lat="44.11278" lon="7.32248">
        <ele>1829</ele>
        <time>2014-02-23T12:25:18.000Z</time>
      </trkpt>
      <trkpt lat="44.1126" lon="7.32248">
        <ele>1826.5999755859</ele>
        <time>2014-02-23T12:25:23.000Z</time>
      </trkpt>
      <trkpt lat="44.11255" lon="7.32268">
        <ele>1822.5999755859</ele>
        <time>2014-02-23T12:25:28.000Z</time>
      </trkpt>
      <trkpt lat="44.11238" lon="7.32265">
        <ele>1819.4000244141</ele>
        <time>2014-02-23T12:25:31.000Z</time>
      </trkpt>
      <trkpt lat="44.11207" lon="7.32259">
        <ele>1815.5999755859</ele>
        <time>2014-02-23T12:25:39.000Z</time>
      </trkpt>
      <trkpt lat="44.11194" lon="7.32254">
        <ele>1814.4000244141</ele>
        <time>2014-02-23T12:25:42.000Z</time>
      </trkpt>
      <trkpt lat="44.11181" lon="7.32252">
        <ele>1812</ele>
        <time>2014-02-23T12:25:46.000Z</time>
      </trkpt>
      <trkpt lat="44.11173" lon="7.32252">
        <ele>1811.1999511719</ele>
        <time>2014-02-23T12:25:51.000Z</time>
      </trkpt>
      <trkpt lat="44.11156" lon="7.32248">
        <ele>1810.5999755859</ele>
        <time>2014-02-23T12:25:58.000Z</time>
      </trkpt>
      <trkpt lat="44.11136" lon="7.32241">
        <ele>1810.1999511719</ele>
        <time>2014-02-23T12:26:08.000Z</time>
      </trkpt>
      <trkpt lat="44.11123" lon="7.32226">
        <ele>1808</ele>
        <time>2014-02-23T12:26:14.000Z</time>
      </trkpt>
      <trkpt lat="44.11121" lon="7.32221">
        <ele>1806.8000488281</ele>
        <time>2014-02-23T12:26:16.000Z</time>
      </trkpt>
      <trkpt lat="44.11118" lon="7.32211">
        <ele>1804.5999755859</ele>
        <time>2014-02-23T12:26:20.000Z</time>
      </trkpt>
      <trkpt lat="44.11105" lon="7.322">
        <ele>1802.4000244141</ele>
        <time>2014-02-23T12:26:29.000Z</time>
      </trkpt>
      <trkpt lat="44.11107" lon="7.32197">
        <ele>1801.4000244141</ele>
        <time>2014-02-23T12:26:35.000Z</time>
      </trkpt>
      <trkpt lat="44.11111" lon="7.32181">
        <ele>1799.8000488281</ele>
        <time>2014-02-23T12:26:40.000Z</time>
      </trkpt>
      <trkpt lat="44.11107" lon="7.32154">
        <ele>1797.4000244141</ele>
        <time>2014-02-23T12:26:50.000Z</time>
      </trkpt>
      <trkpt lat="44.1111" lon="7.32153">
        <ele>1797</ele>
        <time>2014-02-23T12:27:10.000Z</time>
      </trkpt>
      <trkpt lat="44.1111" lon="7.32152">
        <ele>1797</ele>
        <time>2014-02-23T12:27:16.000Z</time>
      </trkpt>
      <trkpt lat="44.11091" lon="7.32122">
        <ele>1795.5999755859</ele>
        <time>2014-02-23T12:27:27.000Z</time>
      </trkpt>
      <trkpt lat="44.11085" lon="7.32114">
        <ele>1794.8000488281</ele>
        <time>2014-02-23T12:27:30.000Z</time>
      </trkpt>
      <trkpt lat="44.11061" lon="7.32099">
        <ele>1793.4000244141</ele>
        <time>2014-02-23T12:27:38.000Z</time>
      </trkpt>
      <trkpt lat="44.11053" lon="7.32092">
        <ele>1792.4000244141</ele>
        <time>2014-02-23T12:27:51.000Z</time>
      </trkpt>
      <trkpt lat="44.11052" lon="7.32091">
        <ele>1792.1999511719</ele>
        <time>2014-02-23T12:28:16.000Z</time>
      </trkpt>
      <trkpt lat="44.11054" lon="7.32089">
        <ele>1792</ele>
        <time>2014-02-23T12:28:42.000Z</time>
      </trkpt>
      <trkpt lat="44.11053" lon="7.3209">
        <ele>1792</ele>
        <time>2014-02-23T12:29:10.000Z</time>
      </trkpt>
      <trkpt lat="44.11053" lon="7.3209">
        <ele>1791.8000488281</ele>
        <time>2014-02-23T12:29:36.000Z</time>
      </trkpt>
      <trkpt lat="44.11053" lon="7.32089">
        <ele>1791.8000488281</ele>
        <time>2014-02-23T12:30:05.000Z</time>
      </trkpt>
      <trkpt lat="44.11043" lon="7.32082">
        <ele>1791</ele>
        <time>2014-02-23T12:30:18.000Z</time>
      </trkpt>
      <trkpt lat="44.1103" lon="7.32072">
        <ele>1790</ele>
        <time>2014-02-23T12:30:21.000Z</time>
      </trkpt>
      <trkpt lat="44.11021" lon="7.32064">
        <ele>1789.1999511719</ele>
        <time>2014-02-23T12:30:23.000Z</time>
      </trkpt>
      <trkpt lat="44.11013" lon="7.32058">
        <ele>1788.8000488281</ele>
        <time>2014-02-23T12:30:25.000Z</time>
      </trkpt>
      <trkpt lat="44.11005" lon="7.32052">
        <ele>1788</ele>
        <time>2014-02-23T12:30:27.000Z</time>
      </trkpt>
      <trkpt lat="44.10997" lon="7.32044">
        <ele>1787</ele>
        <time>2014-02-23T12:30:29.000Z</time>
      </trkpt>
      <trkpt lat="44.1099" lon="7.32022">
        <ele>1784.1999511719</ele>
        <time>2014-02-23T12:30:35.000Z</time>
      </trkpt>
      <trkpt lat="44.10995" lon="7.32004">
        <ele>1781</ele>
        <time>2014-02-23T12:30:46.000Z</time>
      </trkpt>
      <trkpt lat="44.10997" lon="7.32">
        <ele>1780.4000244141</ele>
        <time>2014-02-23T12:30:47.000Z</time>
      </trkpt>
      <trkpt lat="44.10997" lon="7.31979">
        <ele>1776.5999755859</ele>
        <time>2014-02-23T12:30:53.000Z</time>
      </trkpt>
      <trkpt lat="44.11" lon="7.31976">
        <ele>1775.5999755859</ele>
        <time>2014-02-23T12:31:04.000Z</time>
      </trkpt>
      <trkpt lat="44.1099" lon="7.31962">
        <ele>1773.8000488281</ele>
        <time>2014-02-23T12:31:08.000Z</time>
      </trkpt>
      <trkpt lat="44.1098" lon="7.31951">
        <ele>1772.8000488281</ele>
        <time>2014-02-23T12:31:11.000Z</time>
      </trkpt>
      <trkpt lat="44.10968" lon="7.31922">
        <ele>1769.1999511719</ele>
        <time>2014-02-23T12:31:18.000Z</time>
      </trkpt>
      <trkpt lat="44.10965" lon="7.31916">
        <ele>1769.5999755859</ele>
        <time>2014-02-23T12:31:30.000Z</time>
      </trkpt>
      <trkpt lat="44.10962" lon="7.31911">
        <ele>1770.1999511719</ele>
        <time>2014-02-23T12:31:44.000Z</time>
      </trkpt>
      <trkpt lat="44.10956" lon="7.319">
        <ele>1771</ele>
        <time>2014-02-23T12:32:03.000Z</time>
      </trkpt>
      <trkpt lat="44.10948" lon="7.31883">
        <ele>1770.1999511719</ele>
        <time>2014-02-23T12:32:09.000Z</time>
      </trkpt>
      <trkpt lat="44.10933" lon="7.31878">
        <ele>1766.5999755859</ele>
        <time>2014-02-23T12:32:15.000Z</time>
      </trkpt>
      <trkpt lat="44.1093" lon="7.31878">
        <ele>1766.4000244141</ele>
        <time>2014-02-23T12:32:16.000Z</time>
      </trkpt>
      <trkpt lat="44.10904" lon="7.31876">
        <ele>1762.4000244141</ele>
        <time>2014-02-23T12:32:22.000Z</time>
      </trkpt>
      <trkpt lat="44.10901" lon="7.31867">
        <ele>1760.5999755859</ele>
        <time>2014-02-23T12:32:29.000Z</time>
      </trkpt>
      <trkpt lat="44.109" lon="7.31866">
        <ele>1760.1999511719</ele>
        <time>2014-02-23T12:32:43.000Z</time>
      </trkpt>
      <trkpt lat="44.1088" lon="7.31863">
        <ele>1756.8000488281</ele>
        <time>2014-02-23T12:32:51.000Z</time>
      </trkpt>
      <trkpt lat="44.10867" lon="7.31849">
        <ele>1752.5999755859</ele>
        <time>2014-02-23T12:32:56.000Z</time>
      </trkpt>
      <trkpt lat="44.10866" lon="7.31847">
        <ele>1751</ele>
        <time>2014-02-23T12:33:01.000Z</time>
      </trkpt>
      <trkpt lat="44.10846" lon="7.31826">
        <ele>1747.5999755859</ele>
        <time>2014-02-23T12:33:09.000Z</time>
      </trkpt>
      <trkpt lat="44.10845" lon="7.3182">
        <ele>1746.8000488281</ele>
        <time>2014-02-23T12:33:10.000Z</time>
      </trkpt>
      <trkpt lat="44.10842" lon="7.31791">
        <ele>1742.4000244141</ele>
        <time>2014-02-23T12:33:16.000Z</time>
      </trkpt>
      <trkpt lat="44.10841" lon="7.31764">
        <ele>1739</ele>
        <time>2014-02-23T12:33:22.000Z</time>
      </trkpt>
      <trkpt lat="44.1084" lon="7.31762">
        <ele>1738.8000488281</ele>
        <time>2014-02-23T12:33:23.000Z</time>
      </trkpt>
      <trkpt lat="44.1084" lon="7.31758">
        <ele>1739</ele>
        <time>2014-02-23T12:33:25.000Z</time>
      </trkpt>
      <trkpt lat="44.10845" lon="7.31741">
        <ele>1736.8000488281</ele>
        <time>2014-02-23T12:33:29.000Z</time>
      </trkpt>
      <trkpt lat="44.1085" lon="7.31701">
        <ele>1732.8000488281</ele>
        <time>2014-02-23T12:33:36.000Z</time>
      </trkpt>
      <trkpt lat="44.1085" lon="7.31699">
        <ele>1732</ele>
        <time>2014-02-23T12:33:39.000Z</time>
      </trkpt>
      <trkpt lat="44.10848" lon="7.31679">
        <ele>1729.4000244141</ele>
        <time>2014-02-23T12:33:44.000Z</time>
      </trkpt>
      <trkpt lat="44.10846" lon="7.31665">
        <ele>1728</ele>
        <time>2014-02-23T12:33:46.000Z</time>
      </trkpt>
      <trkpt lat="44.10842" lon="7.31645">
        <ele>1726.8000488281</ele>
        <time>2014-02-23T12:33:49.000Z</time>
      </trkpt>
      <trkpt lat="44.10829" lon="7.31618">
        <ele>1725.4000244141</ele>
        <time>2014-02-23T12:33:59.000Z</time>
      </trkpt>
      <trkpt lat="44.10809" lon="7.31575">
        <ele>1724.4000244141</ele>
        <time>2014-02-23T12:34:12.000Z</time>
      </trkpt>
      <trkpt lat="44.10807" lon="7.31569">
        <ele>1724</ele>
        <time>2014-02-23T12:34:13.000Z</time>
      </trkpt>
      <trkpt lat="44.10805" lon="7.3153">
        <ele>1720.1999511719</ele>
        <time>2014-02-23T12:34:18.000Z</time>
      </trkpt>
      <trkpt lat="44.10806" lon="7.31513">
        <ele>1718</ele>
        <time>2014-02-23T12:34:20.000Z</time>
      </trkpt>
      <trkpt lat="44.10805" lon="7.31469">
        <ele>1714.5999755859</ele>
        <time>2014-02-23T12:34:25.000Z</time>
      </trkpt>
      <trkpt lat="44.10806" lon="7.31453">
        <ele>1713.5999755859</ele>
        <time>2014-02-23T12:34:27.000Z</time>
      </trkpt>
      <trkpt lat="44.10808" lon="7.31431">
        <ele>1711.1999511719</ele>
        <time>2014-02-23T12:34:32.000Z</time>
      </trkpt>
      <trkpt lat="44.10806" lon="7.31431">
        <ele>1710.5999755859</ele>
        <time>2014-02-23T12:34:52.000Z</time>
      </trkpt>
      <trkpt lat="44.10806" lon="7.3143">
        <ele>1710.4000244141</ele>
        <time>2014-02-23T12:34:53.000Z</time>
      </trkpt>
      <trkpt lat="44.10807" lon="7.31385">
        <ele>1709.4000244141</ele>
        <time>2014-02-23T12:35:02.000Z</time>
      </trkpt>
      <trkpt lat="44.10808" lon="7.31372">
        <ele>1709</ele>
        <time>2014-02-23T12:35:04.000Z</time>
      </trkpt>
      <trkpt lat="44.10812" lon="7.31351">
        <ele>1708.4000244141</ele>
        <time>2014-02-23T12:35:07.000Z</time>
      </trkpt>
      <trkpt lat="44.10808" lon="7.31283">
        <ele>1704.5999755859</ele>
        <time>2014-02-23T12:35:14.000Z</time>
      </trkpt>
      <trkpt lat="44.10801" lon="7.31213">
        <ele>1700.8000488281</ele>
        <time>2014-02-23T12:35:21.000Z</time>
      </trkpt>
      <trkpt lat="44.10798" lon="7.31177">
        <ele>1697.4000244141</ele>
        <time>2014-02-23T12:35:25.000Z</time>
      </trkpt>
      <trkpt lat="44.10796" lon="7.31168">
        <ele>1696.8000488281</ele>
        <time>2014-02-23T12:35:26.000Z</time>
      </trkpt>
      <trkpt lat="44.10785" lon="7.31133">
        <ele>1693.4000244141</ele>
        <time>2014-02-23T12:35:30.000Z</time>
      </trkpt>
      <trkpt lat="44.10777" lon="7.31117">
        <ele>1692.1999511719</ele>
        <time>2014-02-23T12:35:32.000Z</time>
      </trkpt>
      <trkpt lat="44.10781" lon="7.31074">
        <ele>1688.1999511719</ele>
        <time>2014-02-23T12:35:37.000Z</time>
      </trkpt>
      <trkpt lat="44.10784" lon="7.31075">
        <ele>1686.4000244141</ele>
        <time>2014-02-23T12:35:40.000Z</time>
      </trkpt>
      <trkpt lat="44.10785" lon="7.31074">
        <ele>1686.1999511719</ele>
        <time>2014-02-23T12:35:41.000Z</time>
      </trkpt>
      <trkpt lat="44.10787" lon="7.31073">
        <ele>1686</ele>
        <time>2014-02-23T12:35:43.000Z</time>
      </trkpt>
      <trkpt lat="44.10802" lon="7.31061">
        <ele>1685.4000244141</ele>
        <time>2014-02-23T12:35:49.000Z</time>
      </trkpt>
      <trkpt lat="44.10808" lon="7.31011">
        <ele>1681.8000488281</ele>
        <time>2014-02-23T12:35:57.000Z</time>
      </trkpt>
      <trkpt lat="44.10808" lon="7.31007">
        <ele>1680.5999755859</ele>
        <time>2014-02-23T12:35:58.000Z</time>
      </trkpt>
      <trkpt lat="44.1081" lon="7.31004">
        <ele>1679</ele>
        <time>2014-02-23T12:36:06.000Z</time>
      </trkpt>
      <trkpt lat="44.10807" lon="7.30979">
        <ele>1675.5999755859</ele>
        <time>2014-02-23T12:36:16.000Z</time>
      </trkpt>
      <trkpt lat="44.10806" lon="7.30978">
        <ele>1675.4000244141</ele>
        <time>2014-02-23T12:36:17.000Z</time>
      </trkpt>
      <trkpt lat="44.10799" lon="7.30968">
        <ele>1673.8000488281</ele>
        <time>2014-02-23T12:36:27.000Z</time>
      </trkpt>
      <trkpt lat="44.10805" lon="7.30961">
        <ele>1672</ele>
        <time>2014-02-23T12:36:36.000Z</time>
      </trkpt>
      <trkpt lat="44.10808" lon="7.3096">
        <ele>1670.4000244141</ele>
        <time>2014-02-23T12:36:38.000Z</time>
      </trkpt>
      <trkpt lat="44.10809" lon="7.30956">
        <ele>1669.8000488281</ele>
        <time>2014-02-23T12:36:40.000Z</time>
      </trkpt>
      <trkpt lat="44.10815" lon="7.30916">
        <ele>1666.1999511719</ele>
        <time>2014-02-23T12:36:46.000Z</time>
      </trkpt>
      <trkpt lat="44.10821" lon="7.30887">
        <ele>1664.1999511719</ele>
        <time>2014-02-23T12:36:49.000Z</time>
      </trkpt>
      <trkpt lat="44.10825" lon="7.30858">
        <ele>1661.1999511719</ele>
        <time>2014-02-23T12:36:54.000Z</time>
      </trkpt>
      <trkpt lat="44.10832" lon="7.30842">
        <ele>1658.5999755859</ele>
        <time>2014-02-23T12:37:01.000Z</time>
      </trkpt>
      <trkpt lat="44.10856" lon="7.30845">
        <ele>1655.1999511719</ele>
        <time>2014-02-23T12:37:08.000Z</time>
      </trkpt>
      <trkpt lat="44.10865" lon="7.30824">
        <ele>1652.8000488281</ele>
        <time>2014-02-23T12:37:11.000Z</time>
      </trkpt>
      <trkpt lat="44.1087" lon="7.30818">
        <ele>1652.4000244141</ele>
        <time>2014-02-23T12:37:13.000Z</time>
      </trkpt>
      <trkpt lat="44.10877" lon="7.3083">
        <ele>1650</ele>
        <time>2014-02-23T12:37:17.000Z</time>
      </trkpt>
      <trkpt lat="44.10899" lon="7.30835">
        <ele>1646</ele>
        <time>2014-02-23T12:37:24.000Z</time>
      </trkpt>
      <trkpt lat="44.10902" lon="7.30852">
        <ele>1643.8000488281</ele>
        <time>2014-02-23T12:37:28.000Z</time>
      </trkpt>
      <trkpt lat="44.10909" lon="7.30854">
        <ele>1642.5999755859</ele>
        <time>2014-02-23T12:37:31.000Z</time>
      </trkpt>
      <trkpt lat="44.1093" lon="7.30833">
        <ele>1640</ele>
        <time>2014-02-23T12:37:37.000Z</time>
      </trkpt>
      <trkpt lat="44.10948" lon="7.30819">
        <ele>1637</ele>
        <time>2014-02-23T12:37:40.000Z</time>
      </trkpt>
      <trkpt lat="44.10973" lon="7.30793">
        <ele>1632.5999755859</ele>
        <time>2014-02-23T12:37:44.000Z</time>
      </trkpt>
      <trkpt lat="44.10986" lon="7.30781">
        <ele>1630.8000488281</ele>
        <time>2014-02-23T12:37:46.000Z</time>
      </trkpt>
      <trkpt lat="44.11011" lon="7.30755">
        <ele>1625.4000244141</ele>
        <time>2014-02-23T12:37:50.000Z</time>
      </trkpt>
      <trkpt lat="44.11013" lon="7.30711">
        <ele>1620.4000244141</ele>
        <time>2014-02-23T12:37:55.000Z</time>
      </trkpt>
      <trkpt lat="44.11009" lon="7.30701">
        <ele>1619.4000244141</ele>
        <time>2014-02-23T12:37:56.000Z</time>
      </trkpt>
      <trkpt lat="44.10986" lon="7.30648">
        <ele>1614.8000488281</ele>
        <time>2014-02-23T12:38:01.000Z</time>
      </trkpt>
      <trkpt lat="44.10973" lon="7.30611">
        <ele>1611.1999511719</ele>
        <time>2014-02-23T12:38:04.000Z</time>
      </trkpt>
      <trkpt lat="44.10966" lon="7.30586">
        <ele>1606.1999511719</ele>
        <time>2014-02-23T12:38:06.000Z</time>
      </trkpt>
      <trkpt lat="44.10963" lon="7.30573">
        <ele>1604.5999755859</ele>
        <time>2014-02-23T12:38:07.000Z</time>
      </trkpt>
      <trkpt lat="44.10958" lon="7.30518">
        <ele>1601.1999511719</ele>
        <time>2014-02-23T12:38:11.000Z</time>
      </trkpt>
      <trkpt lat="44.10968" lon="7.30433">
        <ele>1597.4000244141</ele>
        <time>2014-02-23T12:38:17.000Z</time>
      </trkpt>
      <trkpt lat="44.10971" lon="7.30403">
        <ele>1595.8000488281</ele>
        <time>2014-02-23T12:38:19.000Z</time>
      </trkpt>
      <trkpt lat="44.10981" lon="7.30355">
        <ele>1592</ele>
        <time>2014-02-23T12:38:22.000Z</time>
      </trkpt>
      <trkpt lat="44.11004" lon="7.30294">
        <ele>1587.8000488281</ele>
        <time>2014-02-23T12:38:26.000Z</time>
      </trkpt>
      <trkpt lat="44.11015" lon="7.30263">
        <ele>1584</ele>
        <time>2014-02-23T12:38:28.000Z</time>
      </trkpt>
      <trkpt lat="44.11031" lon="7.30216">
        <ele>1579</ele>
        <time>2014-02-23T12:38:31.000Z</time>
      </trkpt>
      <trkpt lat="44.11043" lon="7.30187">
        <ele>1574.8000488281</ele>
        <time>2014-02-23T12:38:33.000Z</time>
      </trkpt>
      <trkpt lat="44.11054" lon="7.30158">
        <ele>1571.8000488281</ele>
        <time>2014-02-23T12:38:35.000Z</time>
      </trkpt>
      <trkpt lat="44.11067" lon="7.30128">
        <ele>1568</ele>
        <time>2014-02-23T12:38:37.000Z</time>
      </trkpt>
      <trkpt lat="44.1108" lon="7.30065">
        <ele>1563.1999511719</ele>
        <time>2014-02-23T12:38:41.000Z</time>
      </trkpt>
      <trkpt lat="44.11086" lon="7.3002">
        <ele>1558.1999511719</ele>
        <time>2014-02-23T12:38:44.000Z</time>
      </trkpt>
      <trkpt lat="44.11088" lon="7.29951">
        <ele>1555.5999755859</ele>
        <time>2014-02-23T12:38:49.000Z</time>
      </trkpt>
      <trkpt lat="44.11099" lon="7.29876">
        <ele>1552</ele>
        <time>2014-02-23T12:38:55.000Z</time>
      </trkpt>
      <trkpt lat="44.11121" lon="7.29758">
        <ele>1548.5999755859</ele>
        <time>2014-02-23T12:39:05.000Z</time>
      </trkpt>
      <trkpt lat="44.11128" lon="7.29726">
        <ele>1545.5999755859</ele>
        <time>2014-02-23T12:39:08.000Z</time>
      </trkpt>
      <trkpt lat="44.11132" lon="7.29705">
        <ele>1544</ele>
        <time>2014-02-23T12:39:10.000Z</time>
      </trkpt>
      <trkpt lat="44.11141" lon="7.29672">
        <ele>1543.1999511719</ele>
        <time>2014-02-23T12:39:13.000Z</time>
      </trkpt>
      <trkpt lat="44.11162" lon="7.29613">
        <ele>1539.8000488281</ele>
        <time>2014-02-23T12:39:19.000Z</time>
      </trkpt>
      <trkpt lat="44.1119" lon="7.29512">
        <ele>1536.4000244141</ele>
        <time>2014-02-23T12:39:30.000Z</time>
      </trkpt>
      <trkpt lat="44.11199" lon="7.29483">
        <ele>1534.8000488281</ele>
        <time>2014-02-23T12:39:33.000Z</time>
      </trkpt>
      <trkpt lat="44.11234" lon="7.29411">
        <ele>1531.4000244141</ele>
        <time>2014-02-23T12:39:42.000Z</time>
      </trkpt>
      <trkpt lat="44.11274" lon="7.29346">
        <ele>1528.5999755859</ele>
        <time>2014-02-23T12:39:52.000Z</time>
      </trkpt>
      <trkpt lat="44.11287" lon="7.29319">
        <ele>1526.5999755859</ele>
        <time>2014-02-23T12:39:55.000Z</time>
      </trkpt>
      <trkpt lat="44.11308" lon="7.29274">
        <ele>1524</ele>
        <time>2014-02-23T12:40:00.000Z</time>
      </trkpt>
      <trkpt lat="44.11315" lon="7.29244">
        <ele>1520.5999755859</ele>
        <time>2014-02-23T12:40:03.000Z</time>
      </trkpt>
      <trkpt lat="44.11316" lon="7.29225">
        <ele>1519.5999755859</ele>
        <time>2014-02-23T12:40:05.000Z</time>
      </trkpt>
      <trkpt lat="44.11321" lon="7.29183">
        <ele>1518.5999755859</ele>
        <time>2014-02-23T12:40:09.000Z</time>
      </trkpt>
      <trkpt lat="44.11347" lon="7.29079">
        <ele>1517.5999755859</ele>
        <time>2014-02-23T12:40:21.000Z</time>
      </trkpt>
      <trkpt lat="44.11349" lon="7.29064">
        <ele>1517.4000244141</ele>
        <time>2014-02-23T12:40:23.000Z</time>
      </trkpt>
      <trkpt lat="44.11367" lon="7.29011">
        <ele>1513.1999511719</ele>
        <time>2014-02-23T12:40:29.000Z</time>
      </trkpt>
      <trkpt lat="44.11373" lon="7.28992">
        <ele>1512.1999511719</ele>
        <time>2014-02-23T12:40:31.000Z</time>
      </trkpt>
      <trkpt lat="44.11367" lon="7.28951">
        <ele>1507.8000488281</ele>
        <time>2014-02-23T12:40:36.000Z</time>
      </trkpt>
      <trkpt lat="44.11365" lon="7.28945">
        <ele>1507.5999755859</ele>
        <time>2014-02-23T12:40:37.000Z</time>
      </trkpt>
      <trkpt lat="44.11364" lon="7.28943">
        <ele>1506</ele>
        <time>2014-02-23T12:40:43.000Z</time>
      </trkpt>
      <trkpt lat="44.11363" lon="7.28943">
        <ele>1506</ele>
        <time>2014-02-23T12:41:08.000Z</time>
      </trkpt>
    </trkseg>
  </trk>
</gpx>